<?xml version="1.0" encoding="UTF-8" standalone="no" ?>
<gpx xmlns="http://www.topografix.com/GPX/1/1" xmlns:xsi="http://www.w3.org/2001/XMLSchema-instance" xsi:schemaLocation="http://www.topografix.com/GPX/1/1 http://www.topografix.com/GPX/1/1/gpx.xsd" version="1.1" creator="VisuGPX - https://www.visugpx.com">
  <metadata>
    <name>Diesen Bisten Guerting</name>
    <desc><![CDATA[Boucle de 25km vers Bisten par le Kirchenberg et retour par Guerting et Ham
]]></desc>
  </metadata>
  <trk>
    <name><![CDATA[2020-02-29 08:05:17]]></name>
    <trkseg>
      <trkpt lat="49.17726" lon="6.67581">
        <ele>229</ele>
        <time>2020-02-29T07:05:24.000Z</time>
      </trkpt>
      <trkpt lat="49.17726" lon="6.67579">
        <ele>229</ele>
        <time>2020-02-29T07:07:03.000Z</time>
      </trkpt>
      <trkpt lat="49.17721" lon="6.67572">
        <ele>229</ele>
        <time>2020-02-29T07:07:13.000Z</time>
      </trkpt>
      <trkpt lat="49.17707" lon="6.67569">
        <ele>229</ele>
        <time>2020-02-29T07:07:23.000Z</time>
      </trkpt>
      <trkpt lat="49.17692" lon="6.67563">
        <ele>229</ele>
        <time>2020-02-29T07:07:33.000Z</time>
      </trkpt>
      <trkpt lat="49.17677" lon="6.67553">
        <ele>229</ele>
        <time>2020-02-29T07:07:43.000Z</time>
      </trkpt>
      <trkpt lat="49.17665" lon="6.67547">
        <ele>229</ele>
        <time>2020-02-29T07:07:53.000Z</time>
      </trkpt>
      <trkpt lat="49.17661" lon="6.67538">
        <ele>229</ele>
        <time>2020-02-29T07:08:03.000Z</time>
      </trkpt>
      <trkpt lat="49.17652" lon="6.67533">
        <ele>229</ele>
        <time>2020-02-29T07:08:13.000Z</time>
      </trkpt>
      <trkpt lat="49.17637" lon="6.67525">
        <ele>229</ele>
        <time>2020-02-29T07:08:23.000Z</time>
      </trkpt>
      <trkpt lat="49.17622" lon="6.67518">
        <ele>229</ele>
        <time>2020-02-29T07:08:33.000Z</time>
      </trkpt>
      <trkpt lat="49.17611" lon="6.67512">
        <ele>229</ele>
        <time>2020-02-29T07:08:43.000Z</time>
      </trkpt>
      <trkpt lat="49.17601" lon="6.67506">
        <ele>229</ele>
        <time>2020-02-29T07:08:53.000Z</time>
      </trkpt>
      <trkpt lat="49.1759" lon="6.67504">
        <ele>229</ele>
        <time>2020-02-29T07:09:03.000Z</time>
      </trkpt>
      <trkpt lat="49.1758" lon="6.675">
        <ele>229</ele>
        <time>2020-02-29T07:09:13.000Z</time>
      </trkpt>
      <trkpt lat="49.1757" lon="6.67495">
        <ele>230</ele>
        <time>2020-02-29T07:09:23.000Z</time>
      </trkpt>
      <trkpt lat="49.17561" lon="6.67487">
        <ele>231</ele>
        <time>2020-02-29T07:09:33.000Z</time>
      </trkpt>
      <trkpt lat="49.1756" lon="6.67467">
        <ele>232</ele>
        <time>2020-02-29T07:09:43.000Z</time>
      </trkpt>
      <trkpt lat="49.17561" lon="6.67444">
        <ele>232</ele>
        <time>2020-02-29T07:09:53.000Z</time>
      </trkpt>
      <trkpt lat="49.17549" lon="6.67429">
        <ele>233</ele>
        <time>2020-02-29T07:10:03.000Z</time>
      </trkpt>
      <trkpt lat="49.17541" lon="6.67421">
        <ele>233</ele>
        <time>2020-02-29T07:10:13.000Z</time>
      </trkpt>
      <trkpt lat="49.17536" lon="6.67418">
        <ele>233</ele>
        <time>2020-02-29T07:10:23.000Z</time>
      </trkpt>
      <trkpt lat="49.17525" lon="6.67431">
        <ele>233</ele>
        <time>2020-02-29T07:10:33.000Z</time>
      </trkpt>
      <trkpt lat="49.17512" lon="6.67448">
        <ele>233</ele>
        <time>2020-02-29T07:10:43.000Z</time>
      </trkpt>
      <trkpt lat="49.17501" lon="6.67464">
        <ele>233</ele>
        <time>2020-02-29T07:10:53.000Z</time>
      </trkpt>
      <trkpt lat="49.17489" lon="6.67474">
        <ele>236</ele>
        <time>2020-02-29T07:11:03.000Z</time>
      </trkpt>
      <trkpt lat="49.17478" lon="6.67485">
        <ele>236</ele>
        <time>2020-02-29T07:11:13.000Z</time>
      </trkpt>
      <trkpt lat="49.17468" lon="6.67494">
        <ele>237</ele>
        <time>2020-02-29T07:11:23.000Z</time>
      </trkpt>
      <trkpt lat="49.17456" lon="6.67499">
        <ele>238</ele>
        <time>2020-02-29T07:11:33.000Z</time>
      </trkpt>
      <trkpt lat="49.17444" lon="6.67496">
        <ele>239</ele>
        <time>2020-02-29T07:11:43.000Z</time>
      </trkpt>
      <trkpt lat="49.17435" lon="6.67491">
        <ele>239</ele>
        <time>2020-02-29T07:11:53.000Z</time>
      </trkpt>
      <trkpt lat="49.17421" lon="6.67487">
        <ele>240</ele>
        <time>2020-02-29T07:12:03.000Z</time>
      </trkpt>
      <trkpt lat="49.1741" lon="6.67483">
        <ele>244</ele>
        <time>2020-02-29T07:12:13.000Z</time>
      </trkpt>
      <trkpt lat="49.17399" lon="6.67481">
        <ele>245</ele>
        <time>2020-02-29T07:12:23.000Z</time>
      </trkpt>
      <trkpt lat="49.17389" lon="6.67477">
        <ele>246</ele>
        <time>2020-02-29T07:12:33.000Z</time>
      </trkpt>
      <trkpt lat="49.17377" lon="6.67469">
        <ele>247</ele>
        <time>2020-02-29T07:12:43.000Z</time>
      </trkpt>
      <trkpt lat="49.17365" lon="6.67462">
        <ele>248</ele>
        <time>2020-02-29T07:12:53.000Z</time>
      </trkpt>
      <trkpt lat="49.17354" lon="6.67453">
        <ele>249</ele>
        <time>2020-02-29T07:13:03.000Z</time>
      </trkpt>
      <trkpt lat="49.17343" lon="6.67441">
        <ele>250</ele>
        <time>2020-02-29T07:13:13.000Z</time>
      </trkpt>
      <trkpt lat="49.17332" lon="6.67433">
        <ele>252</ele>
        <time>2020-02-29T07:13:23.000Z</time>
      </trkpt>
      <trkpt lat="49.17323" lon="6.67424">
        <ele>252</ele>
        <time>2020-02-29T07:13:33.000Z</time>
      </trkpt>
      <trkpt lat="49.17311" lon="6.67414">
        <ele>251</ele>
        <time>2020-02-29T07:13:43.000Z</time>
      </trkpt>
      <trkpt lat="49.17301" lon="6.67404">
        <ele>250</ele>
        <time>2020-02-29T07:13:53.000Z</time>
      </trkpt>
      <trkpt lat="49.17287" lon="6.67389">
        <ele>249</ele>
        <time>2020-02-29T07:14:03.000Z</time>
      </trkpt>
      <trkpt lat="49.17274" lon="6.67384">
        <ele>249</ele>
        <time>2020-02-29T07:14:13.000Z</time>
      </trkpt>
      <trkpt lat="49.17266" lon="6.6738">
        <ele>248</ele>
        <time>2020-02-29T07:14:23.000Z</time>
      </trkpt>
      <trkpt lat="49.17257" lon="6.67379">
        <ele>248</ele>
        <time>2020-02-29T07:14:33.000Z</time>
      </trkpt>
      <trkpt lat="49.17243" lon="6.67374">
        <ele>245</ele>
        <time>2020-02-29T07:14:43.000Z</time>
      </trkpt>
      <trkpt lat="49.17227" lon="6.67366">
        <ele>244</ele>
        <time>2020-02-29T07:14:53.000Z</time>
      </trkpt>
      <trkpt lat="49.17209" lon="6.67354">
        <ele>244</ele>
        <time>2020-02-29T07:15:03.000Z</time>
      </trkpt>
      <trkpt lat="49.17198" lon="6.6735">
        <ele>244</ele>
        <time>2020-02-29T07:15:13.000Z</time>
      </trkpt>
      <trkpt lat="49.1719" lon="6.67346">
        <ele>243</ele>
        <time>2020-02-29T07:15:23.000Z</time>
      </trkpt>
      <trkpt lat="49.17177" lon="6.67341">
        <ele>243</ele>
        <time>2020-02-29T07:15:33.000Z</time>
      </trkpt>
      <trkpt lat="49.17165" lon="6.67337">
        <ele>242</ele>
        <time>2020-02-29T07:15:43.000Z</time>
      </trkpt>
      <trkpt lat="49.17154" lon="6.67331">
        <ele>243</ele>
        <time>2020-02-29T07:15:53.000Z</time>
      </trkpt>
      <trkpt lat="49.17145" lon="6.6733">
        <ele>243</ele>
        <time>2020-02-29T07:16:03.000Z</time>
      </trkpt>
      <trkpt lat="49.17136" lon="6.67328">
        <ele>242</ele>
        <time>2020-02-29T07:16:13.000Z</time>
      </trkpt>
      <trkpt lat="49.17122" lon="6.67323">
        <ele>242</ele>
        <time>2020-02-29T07:16:23.000Z</time>
      </trkpt>
      <trkpt lat="49.17113" lon="6.67321">
        <ele>241</ele>
        <time>2020-02-29T07:16:33.000Z</time>
      </trkpt>
      <trkpt lat="49.17102" lon="6.67319">
        <ele>241</ele>
        <time>2020-02-29T07:16:45.000Z</time>
      </trkpt>
      <trkpt lat="49.17085" lon="6.67317">
        <ele>240</ele>
        <time>2020-02-29T07:16:55.000Z</time>
      </trkpt>
      <trkpt lat="49.17048" lon="6.67298">
        <ele>243</ele>
        <time>2020-02-29T07:17:05.000Z</time>
      </trkpt>
      <trkpt lat="49.17038" lon="6.67295">
        <ele>243</ele>
        <time>2020-02-29T07:17:15.000Z</time>
      </trkpt>
      <trkpt lat="49.1703" lon="6.67301">
        <ele>244</ele>
        <time>2020-02-29T07:17:25.000Z</time>
      </trkpt>
      <trkpt lat="49.17021" lon="6.67305">
        <ele>244</ele>
        <time>2020-02-29T07:17:35.000Z</time>
      </trkpt>
      <trkpt lat="49.1701" lon="6.67297">
        <ele>244</ele>
        <time>2020-02-29T07:17:45.000Z</time>
      </trkpt>
      <trkpt lat="49.16997" lon="6.67286">
        <ele>245</ele>
        <time>2020-02-29T07:17:55.000Z</time>
      </trkpt>
      <trkpt lat="49.16986" lon="6.67276">
        <ele>245</ele>
        <time>2020-02-29T07:18:05.000Z</time>
      </trkpt>
      <trkpt lat="49.16972" lon="6.67265">
        <ele>245</ele>
        <time>2020-02-29T07:18:15.000Z</time>
      </trkpt>
      <trkpt lat="49.1696" lon="6.6725">
        <ele>247</ele>
        <time>2020-02-29T07:18:25.000Z</time>
      </trkpt>
      <trkpt lat="49.16951" lon="6.67233">
        <ele>247</ele>
        <time>2020-02-29T07:18:35.000Z</time>
      </trkpt>
      <trkpt lat="49.16943" lon="6.67213">
        <ele>247</ele>
        <time>2020-02-29T07:18:45.000Z</time>
      </trkpt>
      <trkpt lat="49.16933" lon="6.67196">
        <ele>247</ele>
        <time>2020-02-29T07:18:55.000Z</time>
      </trkpt>
      <trkpt lat="49.1692" lon="6.6718">
        <ele>248</ele>
        <time>2020-02-29T07:19:05.000Z</time>
      </trkpt>
      <trkpt lat="49.16904" lon="6.67167">
        <ele>246</ele>
        <time>2020-02-29T07:19:15.000Z</time>
      </trkpt>
      <trkpt lat="49.16895" lon="6.67156">
        <ele>247</ele>
        <time>2020-02-29T07:19:25.000Z</time>
      </trkpt>
      <trkpt lat="49.16887" lon="6.67144">
        <ele>246</ele>
        <time>2020-02-29T07:19:35.000Z</time>
      </trkpt>
      <trkpt lat="49.16882" lon="6.67132">
        <ele>246</ele>
        <time>2020-02-29T07:19:45.000Z</time>
      </trkpt>
      <trkpt lat="49.16878" lon="6.67117">
        <ele>246</ele>
        <time>2020-02-29T07:19:55.000Z</time>
      </trkpt>
      <trkpt lat="49.1687" lon="6.67105">
        <ele>246</ele>
        <time>2020-02-29T07:20:05.000Z</time>
      </trkpt>
      <trkpt lat="49.16859" lon="6.67093">
        <ele>245</ele>
        <time>2020-02-29T07:20:15.000Z</time>
      </trkpt>
      <trkpt lat="49.16846" lon="6.67083">
        <ele>244</ele>
        <time>2020-02-29T07:20:25.000Z</time>
      </trkpt>
      <trkpt lat="49.16835" lon="6.67067">
        <ele>245</ele>
        <time>2020-02-29T07:20:35.000Z</time>
      </trkpt>
      <trkpt lat="49.16827" lon="6.67042">
        <ele>239</ele>
        <time>2020-02-29T07:20:45.000Z</time>
      </trkpt>
      <trkpt lat="49.16821" lon="6.67025">
        <ele>240</ele>
        <time>2020-02-29T07:20:55.000Z</time>
      </trkpt>
      <trkpt lat="49.16817" lon="6.67008">
        <ele>241</ele>
        <time>2020-02-29T07:21:05.000Z</time>
      </trkpt>
      <trkpt lat="49.16811" lon="6.66993">
        <ele>243</ele>
        <time>2020-02-29T07:21:15.000Z</time>
      </trkpt>
      <trkpt lat="49.16805" lon="6.66977">
        <ele>243</ele>
        <time>2020-02-29T07:21:25.000Z</time>
      </trkpt>
      <trkpt lat="49.16796" lon="6.66961">
        <ele>243</ele>
        <time>2020-02-29T07:21:35.000Z</time>
      </trkpt>
      <trkpt lat="49.16787" lon="6.66947">
        <ele>243</ele>
        <time>2020-02-29T07:21:45.000Z</time>
      </trkpt>
      <trkpt lat="49.16778" lon="6.66933">
        <ele>243</ele>
        <time>2020-02-29T07:21:55.000Z</time>
      </trkpt>
      <trkpt lat="49.1677" lon="6.66918">
        <ele>242</ele>
        <time>2020-02-29T07:22:05.000Z</time>
      </trkpt>
      <trkpt lat="49.16762" lon="6.66904">
        <ele>244</ele>
        <time>2020-02-29T07:22:15.000Z</time>
      </trkpt>
      <trkpt lat="49.16755" lon="6.66888">
        <ele>245</ele>
        <time>2020-02-29T07:22:25.000Z</time>
      </trkpt>
      <trkpt lat="49.16745" lon="6.6687">
        <ele>240</ele>
        <time>2020-02-29T07:22:35.000Z</time>
      </trkpt>
      <trkpt lat="49.16737" lon="6.66854">
        <ele>241</ele>
        <time>2020-02-29T07:22:45.000Z</time>
      </trkpt>
      <trkpt lat="49.16731" lon="6.66837">
        <ele>242</ele>
        <time>2020-02-29T07:22:55.000Z</time>
      </trkpt>
      <trkpt lat="49.16725" lon="6.66821">
        <ele>243</ele>
        <time>2020-02-29T07:23:05.000Z</time>
      </trkpt>
      <trkpt lat="49.16719" lon="6.66804">
        <ele>243</ele>
        <time>2020-02-29T07:23:15.000Z</time>
      </trkpt>
      <trkpt lat="49.16712" lon="6.66785">
        <ele>243</ele>
        <time>2020-02-29T07:23:25.000Z</time>
      </trkpt>
      <trkpt lat="49.16705" lon="6.66764">
        <ele>243</ele>
        <time>2020-02-29T07:23:35.000Z</time>
      </trkpt>
      <trkpt lat="49.16693" lon="6.66756">
        <ele>243</ele>
        <time>2020-02-29T07:23:45.000Z</time>
      </trkpt>
      <trkpt lat="49.16688" lon="6.66765">
        <ele>242</ele>
        <time>2020-02-29T07:23:55.000Z</time>
      </trkpt>
      <trkpt lat="49.16686" lon="6.66772">
        <ele>242</ele>
        <time>2020-02-29T07:24:05.000Z</time>
      </trkpt>
      <trkpt lat="49.16682" lon="6.66785">
        <ele>242</ele>
        <time>2020-02-29T07:24:15.000Z</time>
      </trkpt>
      <trkpt lat="49.16678" lon="6.66803">
        <ele>241</ele>
        <time>2020-02-29T07:24:25.000Z</time>
      </trkpt>
      <trkpt lat="49.16671" lon="6.6682">
        <ele>240</ele>
        <time>2020-02-29T07:24:35.000Z</time>
      </trkpt>
      <trkpt lat="49.16662" lon="6.66835">
        <ele>237</ele>
        <time>2020-02-29T07:24:45.000Z</time>
      </trkpt>
      <trkpt lat="49.16654" lon="6.66849">
        <ele>234</ele>
        <time>2020-02-29T07:24:55.000Z</time>
      </trkpt>
      <trkpt lat="49.16643" lon="6.66864">
        <ele>233</ele>
        <time>2020-02-29T07:25:05.000Z</time>
      </trkpt>
      <trkpt lat="49.16632" lon="6.66881">
        <ele>232</ele>
        <time>2020-02-29T07:25:15.000Z</time>
      </trkpt>
      <trkpt lat="49.16623" lon="6.66896">
        <ele>231</ele>
        <time>2020-02-29T07:25:25.000Z</time>
      </trkpt>
      <trkpt lat="49.16616" lon="6.66913">
        <ele>230</ele>
        <time>2020-02-29T07:25:35.000Z</time>
      </trkpt>
      <trkpt lat="49.16611" lon="6.66931">
        <ele>227</ele>
        <time>2020-02-29T07:25:45.000Z</time>
      </trkpt>
      <trkpt lat="49.1661" lon="6.66949">
        <ele>227</ele>
        <time>2020-02-29T07:25:55.000Z</time>
      </trkpt>
      <trkpt lat="49.16609" lon="6.66968">
        <ele>227</ele>
        <time>2020-02-29T07:26:05.000Z</time>
      </trkpt>
      <trkpt lat="49.16606" lon="6.66987">
        <ele>226</ele>
        <time>2020-02-29T07:26:15.000Z</time>
      </trkpt>
      <trkpt lat="49.16599" lon="6.67006">
        <ele>225</ele>
        <time>2020-02-29T07:26:25.000Z</time>
      </trkpt>
      <trkpt lat="49.16592" lon="6.67022">
        <ele>225</ele>
        <time>2020-02-29T07:26:35.000Z</time>
      </trkpt>
      <trkpt lat="49.16586" lon="6.67037">
        <ele>226</ele>
        <time>2020-02-29T07:26:45.000Z</time>
      </trkpt>
      <trkpt lat="49.16578" lon="6.67048">
        <ele>232</ele>
        <time>2020-02-29T07:26:55.000Z</time>
      </trkpt>
      <trkpt lat="49.16568" lon="6.67049">
        <ele>233</ele>
        <time>2020-02-29T07:27:05.000Z</time>
      </trkpt>
      <trkpt lat="49.16557" lon="6.67049">
        <ele>234</ele>
        <time>2020-02-29T07:27:15.000Z</time>
      </trkpt>
      <trkpt lat="49.16545" lon="6.67051">
        <ele>235</ele>
        <time>2020-02-29T07:27:25.000Z</time>
      </trkpt>
      <trkpt lat="49.16533" lon="6.67051">
        <ele>236</ele>
        <time>2020-02-29T07:27:35.000Z</time>
      </trkpt>
      <trkpt lat="49.16518" lon="6.67046">
        <ele>237</ele>
        <time>2020-02-29T07:27:45.000Z</time>
      </trkpt>
      <trkpt lat="49.16506" lon="6.67042">
        <ele>237</ele>
        <time>2020-02-29T07:27:55.000Z</time>
      </trkpt>
      <trkpt lat="49.16496" lon="6.67037">
        <ele>242</ele>
        <time>2020-02-29T07:28:05.000Z</time>
      </trkpt>
      <trkpt lat="49.16488" lon="6.67031">
        <ele>242</ele>
        <time>2020-02-29T07:28:15.000Z</time>
      </trkpt>
      <trkpt lat="49.16477" lon="6.6702">
        <ele>242</ele>
        <time>2020-02-29T07:28:25.000Z</time>
      </trkpt>
      <trkpt lat="49.16461" lon="6.66993">
        <ele>236</ele>
        <time>2020-02-29T07:28:35.000Z</time>
      </trkpt>
      <trkpt lat="49.16449" lon="6.66971">
        <ele>235</ele>
        <time>2020-02-29T07:28:45.000Z</time>
      </trkpt>
      <trkpt lat="49.16442" lon="6.66963">
        <ele>235</ele>
        <time>2020-02-29T07:28:55.000Z</time>
      </trkpt>
      <trkpt lat="49.16437" lon="6.66954">
        <ele>234</ele>
        <time>2020-02-29T07:29:05.000Z</time>
      </trkpt>
      <trkpt lat="49.16438" lon="6.66951">
        <ele>234</ele>
        <time>2020-02-29T07:29:15.000Z</time>
      </trkpt>
      <trkpt lat="49.16439" lon="6.66953">
        <ele>234</ele>
        <time>2020-02-29T07:29:25.000Z</time>
      </trkpt>
      <trkpt lat="49.16434" lon="6.66946">
        <ele>233</ele>
        <time>2020-02-29T07:29:35.000Z</time>
      </trkpt>
      <trkpt lat="49.16433" lon="6.66942">
        <ele>233</ele>
        <time>2020-02-29T07:29:45.000Z</time>
      </trkpt>
      <trkpt lat="49.16432" lon="6.66941">
        <ele>233</ele>
        <time>2020-02-29T07:30:13.000Z</time>
      </trkpt>
      <trkpt lat="49.16429" lon="6.66941">
        <ele>233</ele>
        <time>2020-02-29T07:30:23.000Z</time>
      </trkpt>
      <trkpt lat="49.16428" lon="6.66944">
        <ele>233</ele>
        <time>2020-02-29T07:30:33.000Z</time>
      </trkpt>
      <trkpt lat="49.16423" lon="6.66943">
        <ele>233</ele>
        <time>2020-02-29T07:30:43.000Z</time>
      </trkpt>
      <trkpt lat="49.16412" lon="6.66946">
        <ele>233</ele>
        <time>2020-02-29T07:30:53.000Z</time>
      </trkpt>
      <trkpt lat="49.16403" lon="6.66949">
        <ele>234</ele>
        <time>2020-02-29T07:31:03.000Z</time>
      </trkpt>
      <trkpt lat="49.164" lon="6.66952">
        <ele>234</ele>
        <time>2020-02-29T07:31:13.000Z</time>
      </trkpt>
      <trkpt lat="49.16389" lon="6.6696">
        <ele>234</ele>
        <time>2020-02-29T07:31:23.000Z</time>
      </trkpt>
      <trkpt lat="49.16383" lon="6.66971">
        <ele>235</ele>
        <time>2020-02-29T07:31:33.000Z</time>
      </trkpt>
      <trkpt lat="49.16379" lon="6.66983">
        <ele>236</ele>
        <time>2020-02-29T07:31:43.000Z</time>
      </trkpt>
      <trkpt lat="49.16377" lon="6.66991">
        <ele>236</ele>
        <time>2020-02-29T07:31:53.000Z</time>
      </trkpt>
      <trkpt lat="49.16375" lon="6.66997">
        <ele>236</ele>
        <time>2020-02-29T07:32:03.000Z</time>
      </trkpt>
      <trkpt lat="49.16369" lon="6.67003">
        <ele>241</ele>
        <time>2020-02-29T07:32:25.000Z</time>
      </trkpt>
      <trkpt lat="49.16355" lon="6.67011">
        <ele>241</ele>
        <time>2020-02-29T07:32:35.000Z</time>
      </trkpt>
      <trkpt lat="49.16342" lon="6.67015">
        <ele>240</ele>
        <time>2020-02-29T07:32:45.000Z</time>
      </trkpt>
      <trkpt lat="49.1633" lon="6.67017">
        <ele>238</ele>
        <time>2020-02-29T07:32:55.000Z</time>
      </trkpt>
      <trkpt lat="49.16323" lon="6.67018">
        <ele>238</ele>
        <time>2020-02-29T07:33:05.000Z</time>
      </trkpt>
      <trkpt lat="49.1631" lon="6.67025">
        <ele>238</ele>
        <time>2020-02-29T07:33:15.000Z</time>
      </trkpt>
      <trkpt lat="49.163" lon="6.67029">
        <ele>238</ele>
        <time>2020-02-29T07:33:25.000Z</time>
      </trkpt>
      <trkpt lat="49.16287" lon="6.67041">
        <ele>239</ele>
        <time>2020-02-29T07:33:35.000Z</time>
      </trkpt>
      <trkpt lat="49.16278" lon="6.67049">
        <ele>239</ele>
        <time>2020-02-29T07:33:45.000Z</time>
      </trkpt>
      <trkpt lat="49.16266" lon="6.67058">
        <ele>240</ele>
        <time>2020-02-29T07:33:55.000Z</time>
      </trkpt>
      <trkpt lat="49.16249" lon="6.67068">
        <ele>239</ele>
        <time>2020-02-29T07:34:05.000Z</time>
      </trkpt>
      <trkpt lat="49.16233" lon="6.67072">
        <ele>238</ele>
        <time>2020-02-29T07:34:15.000Z</time>
      </trkpt>
      <trkpt lat="49.16222" lon="6.67072">
        <ele>237</ele>
        <time>2020-02-29T07:34:25.000Z</time>
      </trkpt>
      <trkpt lat="49.16208" lon="6.67073">
        <ele>236</ele>
        <time>2020-02-29T07:34:35.000Z</time>
      </trkpt>
      <trkpt lat="49.16198" lon="6.67077">
        <ele>236</ele>
        <time>2020-02-29T07:34:45.000Z</time>
      </trkpt>
      <trkpt lat="49.16186" lon="6.67082">
        <ele>236</ele>
        <time>2020-02-29T07:34:55.000Z</time>
      </trkpt>
      <trkpt lat="49.16175" lon="6.67086">
        <ele>240</ele>
        <time>2020-02-29T07:35:05.000Z</time>
      </trkpt>
      <trkpt lat="49.16164" lon="6.67088">
        <ele>239</ele>
        <time>2020-02-29T07:35:15.000Z</time>
      </trkpt>
      <trkpt lat="49.16155" lon="6.6709">
        <ele>240</ele>
        <time>2020-02-29T07:35:25.000Z</time>
      </trkpt>
      <trkpt lat="49.16144" lon="6.67092">
        <ele>240</ele>
        <time>2020-02-29T07:35:35.000Z</time>
      </trkpt>
      <trkpt lat="49.16134" lon="6.67093">
        <ele>240</ele>
        <time>2020-02-29T07:35:45.000Z</time>
      </trkpt>
      <trkpt lat="49.16124" lon="6.67098">
        <ele>240</ele>
        <time>2020-02-29T07:35:55.000Z</time>
      </trkpt>
      <trkpt lat="49.16113" lon="6.67105">
        <ele>240</ele>
        <time>2020-02-29T07:36:05.000Z</time>
      </trkpt>
      <trkpt lat="49.16104" lon="6.6711">
        <ele>240</ele>
        <time>2020-02-29T07:36:15.000Z</time>
      </trkpt>
      <trkpt lat="49.16093" lon="6.67118">
        <ele>241</ele>
        <time>2020-02-29T07:36:25.000Z</time>
      </trkpt>
      <trkpt lat="49.16081" lon="6.67123">
        <ele>239</ele>
        <time>2020-02-29T07:36:35.000Z</time>
      </trkpt>
      <trkpt lat="49.1607" lon="6.67122">
        <ele>238</ele>
        <time>2020-02-29T07:36:45.000Z</time>
      </trkpt>
      <trkpt lat="49.16058" lon="6.67124">
        <ele>238</ele>
        <time>2020-02-29T07:36:55.000Z</time>
      </trkpt>
      <trkpt lat="49.16041" lon="6.67126">
        <ele>238</ele>
        <time>2020-02-29T07:37:05.000Z</time>
      </trkpt>
      <trkpt lat="49.16027" lon="6.67124">
        <ele>238</ele>
        <time>2020-02-29T07:37:15.000Z</time>
      </trkpt>
      <trkpt lat="49.16017" lon="6.67123">
        <ele>238</ele>
        <time>2020-02-29T07:37:25.000Z</time>
      </trkpt>
      <trkpt lat="49.16005" lon="6.67123">
        <ele>237</ele>
        <time>2020-02-29T07:37:35.000Z</time>
      </trkpt>
      <trkpt lat="49.15994" lon="6.67124">
        <ele>237</ele>
        <time>2020-02-29T07:37:45.000Z</time>
      </trkpt>
      <trkpt lat="49.15983" lon="6.67126">
        <ele>237</ele>
        <time>2020-02-29T07:37:55.000Z</time>
      </trkpt>
      <trkpt lat="49.1597" lon="6.67131">
        <ele>237</ele>
        <time>2020-02-29T07:38:05.000Z</time>
      </trkpt>
      <trkpt lat="49.15959" lon="6.67131">
        <ele>237</ele>
        <time>2020-02-29T07:38:15.000Z</time>
      </trkpt>
      <trkpt lat="49.15946" lon="6.67132">
        <ele>237</ele>
        <time>2020-02-29T07:38:25.000Z</time>
      </trkpt>
      <trkpt lat="49.15931" lon="6.67134">
        <ele>238</ele>
        <time>2020-02-29T07:38:35.000Z</time>
      </trkpt>
      <trkpt lat="49.15918" lon="6.67139">
        <ele>238</ele>
        <time>2020-02-29T07:38:45.000Z</time>
      </trkpt>
      <trkpt lat="49.15907" lon="6.67141">
        <ele>237</ele>
        <time>2020-02-29T07:38:55.000Z</time>
      </trkpt>
      <trkpt lat="49.15898" lon="6.6714">
        <ele>237</ele>
        <time>2020-02-29T07:39:05.000Z</time>
      </trkpt>
      <trkpt lat="49.1589" lon="6.6714">
        <ele>237</ele>
        <time>2020-02-29T07:39:15.000Z</time>
      </trkpt>
      <trkpt lat="49.15881" lon="6.6714">
        <ele>236</ele>
        <time>2020-02-29T07:39:25.000Z</time>
      </trkpt>
      <trkpt lat="49.1587" lon="6.67144">
        <ele>236</ele>
        <time>2020-02-29T07:39:35.000Z</time>
      </trkpt>
      <trkpt lat="49.15862" lon="6.67152">
        <ele>236</ele>
        <time>2020-02-29T07:39:45.000Z</time>
      </trkpt>
      <trkpt lat="49.15858" lon="6.67151">
        <ele>236</ele>
        <time>2020-02-29T07:39:55.000Z</time>
      </trkpt>
      <trkpt lat="49.15859" lon="6.67148">
        <ele>236</ele>
        <time>2020-02-29T07:40:13.000Z</time>
      </trkpt>
      <trkpt lat="49.15852" lon="6.67156">
        <ele>236</ele>
        <time>2020-02-29T07:40:23.000Z</time>
      </trkpt>
      <trkpt lat="49.15844" lon="6.67167">
        <ele>238</ele>
        <time>2020-02-29T07:40:33.000Z</time>
      </trkpt>
      <trkpt lat="49.15838" lon="6.67179">
        <ele>239</ele>
        <time>2020-02-29T07:40:43.000Z</time>
      </trkpt>
      <trkpt lat="49.15832" lon="6.67192">
        <ele>238</ele>
        <time>2020-02-29T07:40:53.000Z</time>
      </trkpt>
      <trkpt lat="49.15824" lon="6.67207">
        <ele>239</ele>
        <time>2020-02-29T07:41:03.000Z</time>
      </trkpt>
      <trkpt lat="49.15812" lon="6.6722">
        <ele>239</ele>
        <time>2020-02-29T07:41:13.000Z</time>
      </trkpt>
      <trkpt lat="49.15799" lon="6.67235">
        <ele>239</ele>
        <time>2020-02-29T07:41:23.000Z</time>
      </trkpt>
      <trkpt lat="49.15783" lon="6.67252">
        <ele>243</ele>
        <time>2020-02-29T07:41:33.000Z</time>
      </trkpt>
      <trkpt lat="49.15768" lon="6.67268">
        <ele>243</ele>
        <time>2020-02-29T07:41:43.000Z</time>
      </trkpt>
      <trkpt lat="49.1576" lon="6.67279">
        <ele>243</ele>
        <time>2020-02-29T07:41:53.000Z</time>
      </trkpt>
      <trkpt lat="49.15758" lon="6.67293">
        <ele>244</ele>
        <time>2020-02-29T07:42:03.000Z</time>
      </trkpt>
      <trkpt lat="49.15755" lon="6.67308">
        <ele>245</ele>
        <time>2020-02-29T07:42:13.000Z</time>
      </trkpt>
      <trkpt lat="49.15744" lon="6.6732">
        <ele>244</ele>
        <time>2020-02-29T07:42:23.000Z</time>
      </trkpt>
      <trkpt lat="49.15733" lon="6.67328">
        <ele>243</ele>
        <time>2020-02-29T07:42:33.000Z</time>
      </trkpt>
      <trkpt lat="49.1572" lon="6.67335">
        <ele>247</ele>
        <time>2020-02-29T07:42:43.000Z</time>
      </trkpt>
      <trkpt lat="49.15708" lon="6.67344">
        <ele>247</ele>
        <time>2020-02-29T07:42:53.000Z</time>
      </trkpt>
      <trkpt lat="49.15698" lon="6.67354">
        <ele>247</ele>
        <time>2020-02-29T07:43:03.000Z</time>
      </trkpt>
      <trkpt lat="49.15689" lon="6.67364">
        <ele>247</ele>
        <time>2020-02-29T07:43:13.000Z</time>
      </trkpt>
      <trkpt lat="49.1568" lon="6.67374">
        <ele>247</ele>
        <time>2020-02-29T07:43:23.000Z</time>
      </trkpt>
      <trkpt lat="49.1567" lon="6.67383">
        <ele>248</ele>
        <time>2020-02-29T07:43:33.000Z</time>
      </trkpt>
      <trkpt lat="49.1566" lon="6.67393">
        <ele>245</ele>
        <time>2020-02-29T07:43:43.000Z</time>
      </trkpt>
      <trkpt lat="49.1565" lon="6.67404">
        <ele>245</ele>
        <time>2020-02-29T07:43:53.000Z</time>
      </trkpt>
      <trkpt lat="49.15641" lon="6.67416">
        <ele>245</ele>
        <time>2020-02-29T07:44:03.000Z</time>
      </trkpt>
      <trkpt lat="49.15633" lon="6.67429">
        <ele>249</ele>
        <time>2020-02-29T07:44:13.000Z</time>
      </trkpt>
      <trkpt lat="49.15628" lon="6.67442">
        <ele>249</ele>
        <time>2020-02-29T07:44:23.000Z</time>
      </trkpt>
      <trkpt lat="49.15624" lon="6.67456">
        <ele>250</ele>
        <time>2020-02-29T07:44:33.000Z</time>
      </trkpt>
      <trkpt lat="49.15619" lon="6.67466">
        <ele>250</ele>
        <time>2020-02-29T07:44:43.000Z</time>
      </trkpt>
      <trkpt lat="49.15611" lon="6.67478">
        <ele>250</ele>
        <time>2020-02-29T07:44:53.000Z</time>
      </trkpt>
      <trkpt lat="49.15604" lon="6.6749">
        <ele>251</ele>
        <time>2020-02-29T07:45:03.000Z</time>
      </trkpt>
      <trkpt lat="49.15596" lon="6.67505">
        <ele>254</ele>
        <time>2020-02-29T07:45:13.000Z</time>
      </trkpt>
      <trkpt lat="49.15586" lon="6.67519">
        <ele>254</ele>
        <time>2020-02-29T07:45:23.000Z</time>
      </trkpt>
      <trkpt lat="49.15578" lon="6.67531">
        <ele>253</ele>
        <time>2020-02-29T07:45:33.000Z</time>
      </trkpt>
      <trkpt lat="49.15571" lon="6.67544">
        <ele>253</ele>
        <time>2020-02-29T07:45:43.000Z</time>
      </trkpt>
      <trkpt lat="49.15555" lon="6.67553">
        <ele>253</ele>
        <time>2020-02-29T07:45:53.000Z</time>
      </trkpt>
      <trkpt lat="49.15536" lon="6.67558">
        <ele>253</ele>
        <time>2020-02-29T07:46:03.000Z</time>
      </trkpt>
      <trkpt lat="49.15523" lon="6.67561">
        <ele>253</ele>
        <time>2020-02-29T07:46:13.000Z</time>
      </trkpt>
      <trkpt lat="49.15511" lon="6.67561">
        <ele>253</ele>
        <time>2020-02-29T07:46:23.000Z</time>
      </trkpt>
      <trkpt lat="49.15497" lon="6.67555">
        <ele>250</ele>
        <time>2020-02-29T07:46:33.000Z</time>
      </trkpt>
      <trkpt lat="49.15483" lon="6.67554">
        <ele>250</ele>
        <time>2020-02-29T07:46:43.000Z</time>
      </trkpt>
      <trkpt lat="49.15468" lon="6.67557">
        <ele>250</ele>
        <time>2020-02-29T07:46:53.000Z</time>
      </trkpt>
      <trkpt lat="49.15454" lon="6.6756">
        <ele>249</ele>
        <time>2020-02-29T07:47:03.000Z</time>
      </trkpt>
      <trkpt lat="49.15439" lon="6.67563">
        <ele>249</ele>
        <time>2020-02-29T07:47:13.000Z</time>
      </trkpt>
      <trkpt lat="49.15426" lon="6.67567">
        <ele>250</ele>
        <time>2020-02-29T07:47:23.000Z</time>
      </trkpt>
      <trkpt lat="49.15413" lon="6.6757">
        <ele>251</ele>
        <time>2020-02-29T07:47:33.000Z</time>
      </trkpt>
      <trkpt lat="49.15399" lon="6.67574">
        <ele>251</ele>
        <time>2020-02-29T07:47:43.000Z</time>
      </trkpt>
      <trkpt lat="49.15385" lon="6.67578">
        <ele>252</ele>
        <time>2020-02-29T07:47:53.000Z</time>
      </trkpt>
      <trkpt lat="49.15372" lon="6.67583">
        <ele>252</ele>
        <time>2020-02-29T07:48:03.000Z</time>
      </trkpt>
      <trkpt lat="49.15363" lon="6.67586">
        <ele>255</ele>
        <time>2020-02-29T07:48:13.000Z</time>
      </trkpt>
      <trkpt lat="49.1536" lon="6.67575">
        <ele>253</ele>
        <time>2020-02-29T07:48:23.000Z</time>
      </trkpt>
      <trkpt lat="49.15353" lon="6.6757">
        <ele>253</ele>
        <time>2020-02-29T07:48:33.000Z</time>
      </trkpt>
      <trkpt lat="49.15352" lon="6.67568">
        <ele>253</ele>
        <time>2020-02-29T07:48:43.000Z</time>
      </trkpt>
      <trkpt lat="49.15347" lon="6.67563">
        <ele>253</ele>
        <time>2020-02-29T07:48:53.000Z</time>
      </trkpt>
      <trkpt lat="49.15345" lon="6.67555">
        <ele>253</ele>
        <time>2020-02-29T07:49:03.000Z</time>
      </trkpt>
      <trkpt lat="49.15342" lon="6.67549">
        <ele>253</ele>
        <time>2020-02-29T07:49:13.000Z</time>
      </trkpt>
      <trkpt lat="49.15338" lon="6.6754">
        <ele>253</ele>
        <time>2020-02-29T07:49:23.000Z</time>
      </trkpt>
      <trkpt lat="49.15336" lon="6.67532">
        <ele>254</ele>
        <time>2020-02-29T07:49:33.000Z</time>
      </trkpt>
      <trkpt lat="49.15335" lon="6.67529">
        <ele>254</ele>
        <time>2020-02-29T07:49:43.000Z</time>
      </trkpt>
      <trkpt lat="49.1533" lon="6.67519">
        <ele>257</ele>
        <time>2020-02-29T07:49:53.000Z</time>
      </trkpt>
      <trkpt lat="49.15326" lon="6.6751">
        <ele>257</ele>
        <time>2020-02-29T07:50:03.000Z</time>
      </trkpt>
      <trkpt lat="49.15319" lon="6.67504">
        <ele>257</ele>
        <time>2020-02-29T07:50:13.000Z</time>
      </trkpt>
      <trkpt lat="49.15305" lon="6.67501">
        <ele>257</ele>
        <time>2020-02-29T07:50:23.000Z</time>
      </trkpt>
      <trkpt lat="49.15295" lon="6.67494">
        <ele>261</ele>
        <time>2020-02-29T07:50:33.000Z</time>
      </trkpt>
      <trkpt lat="49.15285" lon="6.67486">
        <ele>261</ele>
        <time>2020-02-29T07:50:43.000Z</time>
      </trkpt>
      <trkpt lat="49.15274" lon="6.67476">
        <ele>261</ele>
        <time>2020-02-29T07:50:53.000Z</time>
      </trkpt>
      <trkpt lat="49.15262" lon="6.67472">
        <ele>261</ele>
        <time>2020-02-29T07:51:03.000Z</time>
      </trkpt>
      <trkpt lat="49.15253" lon="6.67469">
        <ele>262</ele>
        <time>2020-02-29T07:51:13.000Z</time>
      </trkpt>
      <trkpt lat="49.15241" lon="6.67464">
        <ele>261</ele>
        <time>2020-02-29T07:51:23.000Z</time>
      </trkpt>
      <trkpt lat="49.15229" lon="6.67463">
        <ele>261</ele>
        <time>2020-02-29T07:51:33.000Z</time>
      </trkpt>
      <trkpt lat="49.15217" lon="6.67462">
        <ele>261</ele>
        <time>2020-02-29T07:51:43.000Z</time>
      </trkpt>
      <trkpt lat="49.15206" lon="6.67459">
        <ele>260</ele>
        <time>2020-02-29T07:51:53.000Z</time>
      </trkpt>
      <trkpt lat="49.15194" lon="6.67456">
        <ele>260</ele>
        <time>2020-02-29T07:52:03.000Z</time>
      </trkpt>
      <trkpt lat="49.1518" lon="6.67455">
        <ele>260</ele>
        <time>2020-02-29T07:52:13.000Z</time>
      </trkpt>
      <trkpt lat="49.15172" lon="6.67449">
        <ele>260</ele>
        <time>2020-02-29T07:52:23.000Z</time>
      </trkpt>
      <trkpt lat="49.15162" lon="6.67442">
        <ele>258</ele>
        <time>2020-02-29T07:52:33.000Z</time>
      </trkpt>
      <trkpt lat="49.1515" lon="6.67435">
        <ele>258</ele>
        <time>2020-02-29T07:52:43.000Z</time>
      </trkpt>
      <trkpt lat="49.1514" lon="6.67429">
        <ele>258</ele>
        <time>2020-02-29T07:52:53.000Z</time>
      </trkpt>
      <trkpt lat="49.15127" lon="6.67421">
        <ele>257</ele>
        <time>2020-02-29T07:53:03.000Z</time>
      </trkpt>
      <trkpt lat="49.15118" lon="6.67419">
        <ele>257</ele>
        <time>2020-02-29T07:53:13.000Z</time>
      </trkpt>
      <trkpt lat="49.15111" lon="6.67416">
        <ele>258</ele>
        <time>2020-02-29T07:53:23.000Z</time>
      </trkpt>
      <trkpt lat="49.15108" lon="6.67415">
        <ele>257</ele>
        <time>2020-02-29T07:53:33.000Z</time>
      </trkpt>
      <trkpt lat="49.15095" lon="6.6741">
        <ele>256</ele>
        <time>2020-02-29T07:53:43.000Z</time>
      </trkpt>
      <trkpt lat="49.15078" lon="6.67397">
        <ele>256</ele>
        <time>2020-02-29T07:53:53.000Z</time>
      </trkpt>
      <trkpt lat="49.15069" lon="6.67389">
        <ele>257</ele>
        <time>2020-02-29T07:54:03.000Z</time>
      </trkpt>
      <trkpt lat="49.15055" lon="6.67383">
        <ele>258</ele>
        <time>2020-02-29T07:54:13.000Z</time>
      </trkpt>
      <trkpt lat="49.15041" lon="6.67373">
        <ele>258</ele>
        <time>2020-02-29T07:54:23.000Z</time>
      </trkpt>
      <trkpt lat="49.15028" lon="6.67359">
        <ele>259</ele>
        <time>2020-02-29T07:54:33.000Z</time>
      </trkpt>
      <trkpt lat="49.15024" lon="6.67349">
        <ele>259</ele>
        <time>2020-02-29T07:54:43.000Z</time>
      </trkpt>
      <trkpt lat="49.15023" lon="6.67351">
        <ele>259</ele>
        <time>2020-02-29T07:54:53.000Z</time>
      </trkpt>
      <trkpt lat="49.15022" lon="6.6735">
        <ele>259</ele>
        <time>2020-02-29T07:55:16.000Z</time>
      </trkpt>
      <trkpt lat="49.15017" lon="6.67346">
        <ele>259</ele>
        <time>2020-02-29T07:55:26.000Z</time>
      </trkpt>
      <trkpt lat="49.15011" lon="6.67339">
        <ele>259</ele>
        <time>2020-02-29T07:55:36.000Z</time>
      </trkpt>
      <trkpt lat="49.15006" lon="6.6733">
        <ele>260</ele>
        <time>2020-02-29T07:55:46.000Z</time>
      </trkpt>
      <trkpt lat="49.15" lon="6.67315">
        <ele>261</ele>
        <time>2020-02-29T07:55:56.000Z</time>
      </trkpt>
      <trkpt lat="49.14998" lon="6.67306">
        <ele>265</ele>
        <time>2020-02-29T07:56:06.000Z</time>
      </trkpt>
      <trkpt lat="49.14991" lon="6.67292">
        <ele>266</ele>
        <time>2020-02-29T07:56:16.000Z</time>
      </trkpt>
      <trkpt lat="49.14986" lon="6.6728">
        <ele>267</ele>
        <time>2020-02-29T07:56:26.000Z</time>
      </trkpt>
      <trkpt lat="49.1498" lon="6.67267">
        <ele>267</ele>
        <time>2020-02-29T07:56:36.000Z</time>
      </trkpt>
      <trkpt lat="49.14976" lon="6.67257">
        <ele>268</ele>
        <time>2020-02-29T07:56:46.000Z</time>
      </trkpt>
      <trkpt lat="49.14972" lon="6.67254">
        <ele>268</ele>
        <time>2020-02-29T07:56:56.000Z</time>
      </trkpt>
      <trkpt lat="49.14964" lon="6.67254">
        <ele>269</ele>
        <time>2020-02-29T07:57:06.000Z</time>
      </trkpt>
      <trkpt lat="49.1496" lon="6.67255">
        <ele>269</ele>
        <time>2020-02-29T07:57:16.000Z</time>
      </trkpt>
      <trkpt lat="49.14946" lon="6.67259">
        <ele>271</ele>
        <time>2020-02-29T07:57:26.000Z</time>
      </trkpt>
      <trkpt lat="49.14935" lon="6.67267">
        <ele>272</ele>
        <time>2020-02-29T07:57:36.000Z</time>
      </trkpt>
      <trkpt lat="49.14926" lon="6.67269">
        <ele>273</ele>
        <time>2020-02-29T07:57:46.000Z</time>
      </trkpt>
      <trkpt lat="49.14914" lon="6.67274">
        <ele>277</ele>
        <time>2020-02-29T07:57:56.000Z</time>
      </trkpt>
      <trkpt lat="49.14905" lon="6.67274">
        <ele>277</ele>
        <time>2020-02-29T07:58:06.000Z</time>
      </trkpt>
      <trkpt lat="49.14894" lon="6.67276">
        <ele>277</ele>
        <time>2020-02-29T07:58:16.000Z</time>
      </trkpt>
      <trkpt lat="49.14884" lon="6.6728">
        <ele>277</ele>
        <time>2020-02-29T07:58:26.000Z</time>
      </trkpt>
      <trkpt lat="49.14873" lon="6.67285">
        <ele>278</ele>
        <time>2020-02-29T07:58:36.000Z</time>
      </trkpt>
      <trkpt lat="49.14863" lon="6.67292">
        <ele>278</ele>
        <time>2020-02-29T07:58:46.000Z</time>
      </trkpt>
      <trkpt lat="49.14854" lon="6.673">
        <ele>278</ele>
        <time>2020-02-29T07:58:56.000Z</time>
      </trkpt>
      <trkpt lat="49.14837" lon="6.67312">
        <ele>277</ele>
        <time>2020-02-29T07:59:06.000Z</time>
      </trkpt>
      <trkpt lat="49.14822" lon="6.67319">
        <ele>280</ele>
        <time>2020-02-29T07:59:16.000Z</time>
      </trkpt>
      <trkpt lat="49.14811" lon="6.67326">
        <ele>281</ele>
        <time>2020-02-29T07:59:26.000Z</time>
      </trkpt>
      <trkpt lat="49.14805" lon="6.67332">
        <ele>281</ele>
        <time>2020-02-29T07:59:36.000Z</time>
      </trkpt>
      <trkpt lat="49.14797" lon="6.67338">
        <ele>283</ele>
        <time>2020-02-29T07:59:46.000Z</time>
      </trkpt>
      <trkpt lat="49.14786" lon="6.67343">
        <ele>283</ele>
        <time>2020-02-29T07:59:56.000Z</time>
      </trkpt>
      <trkpt lat="49.14772" lon="6.67351">
        <ele>284</ele>
        <time>2020-02-29T08:00:06.000Z</time>
      </trkpt>
      <trkpt lat="49.14759" lon="6.67356">
        <ele>285</ele>
        <time>2020-02-29T08:00:16.000Z</time>
      </trkpt>
      <trkpt lat="49.14751" lon="6.67359">
        <ele>285</ele>
        <time>2020-02-29T08:00:26.000Z</time>
      </trkpt>
      <trkpt lat="49.14741" lon="6.67363">
        <ele>288</ele>
        <time>2020-02-29T08:00:36.000Z</time>
      </trkpt>
      <trkpt lat="49.14728" lon="6.6737">
        <ele>288</ele>
        <time>2020-02-29T08:00:46.000Z</time>
      </trkpt>
      <trkpt lat="49.14718" lon="6.67375">
        <ele>288</ele>
        <time>2020-02-29T08:00:56.000Z</time>
      </trkpt>
      <trkpt lat="49.14702" lon="6.67368">
        <ele>288</ele>
        <time>2020-02-29T08:01:06.000Z</time>
      </trkpt>
      <trkpt lat="49.14686" lon="6.67358">
        <ele>288</ele>
        <time>2020-02-29T08:01:16.000Z</time>
      </trkpt>
      <trkpt lat="49.14675" lon="6.67343">
        <ele>288</ele>
        <time>2020-02-29T08:01:26.000Z</time>
      </trkpt>
      <trkpt lat="49.14662" lon="6.67322">
        <ele>286</ele>
        <time>2020-02-29T08:01:36.000Z</time>
      </trkpt>
      <trkpt lat="49.14655" lon="6.67304">
        <ele>284</ele>
        <time>2020-02-29T08:01:46.000Z</time>
      </trkpt>
      <trkpt lat="49.14649" lon="6.67287">
        <ele>283</ele>
        <time>2020-02-29T08:01:56.000Z</time>
      </trkpt>
      <trkpt lat="49.14642" lon="6.6727">
        <ele>283</ele>
        <time>2020-02-29T08:02:06.000Z</time>
      </trkpt>
      <trkpt lat="49.14636" lon="6.67254">
        <ele>283</ele>
        <time>2020-02-29T08:02:16.000Z</time>
      </trkpt>
      <trkpt lat="49.14631" lon="6.67236">
        <ele>282</ele>
        <time>2020-02-29T08:02:26.000Z</time>
      </trkpt>
      <trkpt lat="49.14624" lon="6.67215">
        <ele>281</ele>
        <time>2020-02-29T08:02:36.000Z</time>
      </trkpt>
      <trkpt lat="49.1462" lon="6.67192">
        <ele>281</ele>
        <time>2020-02-29T08:02:46.000Z</time>
      </trkpt>
      <trkpt lat="49.14618" lon="6.67168">
        <ele>281</ele>
        <time>2020-02-29T08:02:56.000Z</time>
      </trkpt>
      <trkpt lat="49.1462" lon="6.67143">
        <ele>283</ele>
        <time>2020-02-29T08:03:06.000Z</time>
      </trkpt>
      <trkpt lat="49.14621" lon="6.67122">
        <ele>283</ele>
        <time>2020-02-29T08:03:16.000Z</time>
      </trkpt>
      <trkpt lat="49.14623" lon="6.67109">
        <ele>284</ele>
        <time>2020-02-29T08:03:26.000Z</time>
      </trkpt>
      <trkpt lat="49.14627" lon="6.67095">
        <ele>284</ele>
        <time>2020-02-29T08:03:36.000Z</time>
      </trkpt>
      <trkpt lat="49.14629" lon="6.67082">
        <ele>287</ele>
        <time>2020-02-29T08:03:46.000Z</time>
      </trkpt>
      <trkpt lat="49.14628" lon="6.6708">
        <ele>287</ele>
        <time>2020-02-29T08:03:56.000Z</time>
      </trkpt>
      <trkpt lat="49.14629" lon="6.67079">
        <ele>287</ele>
        <time>2020-02-29T08:04:09.000Z</time>
      </trkpt>
      <trkpt lat="49.14637" lon="6.67061">
        <ele>287</ele>
        <time>2020-02-29T08:04:19.000Z</time>
      </trkpt>
      <trkpt lat="49.14642" lon="6.67042">
        <ele>287</ele>
        <time>2020-02-29T08:04:29.000Z</time>
      </trkpt>
      <trkpt lat="49.14647" lon="6.67016">
        <ele>288</ele>
        <time>2020-02-29T08:04:39.000Z</time>
      </trkpt>
      <trkpt lat="49.14649" lon="6.66996">
        <ele>290</ele>
        <time>2020-02-29T08:04:49.000Z</time>
      </trkpt>
      <trkpt lat="49.14651" lon="6.66978">
        <ele>290</ele>
        <time>2020-02-29T08:04:59.000Z</time>
      </trkpt>
      <trkpt lat="49.14652" lon="6.66959">
        <ele>290</ele>
        <time>2020-02-29T08:05:09.000Z</time>
      </trkpt>
      <trkpt lat="49.14655" lon="6.66941">
        <ele>291</ele>
        <time>2020-02-29T08:05:19.000Z</time>
      </trkpt>
      <trkpt lat="49.1466" lon="6.66921">
        <ele>293</ele>
        <time>2020-02-29T08:05:29.000Z</time>
      </trkpt>
      <trkpt lat="49.14664" lon="6.66902">
        <ele>293</ele>
        <time>2020-02-29T08:05:39.000Z</time>
      </trkpt>
      <trkpt lat="49.14669" lon="6.66885">
        <ele>296</ele>
        <time>2020-02-29T08:05:49.000Z</time>
      </trkpt>
      <trkpt lat="49.14673" lon="6.66869">
        <ele>296</ele>
        <time>2020-02-29T08:05:59.000Z</time>
      </trkpt>
      <trkpt lat="49.14679" lon="6.66856">
        <ele>296</ele>
        <time>2020-02-29T08:06:09.000Z</time>
      </trkpt>
      <trkpt lat="49.14689" lon="6.66839">
        <ele>296</ele>
        <time>2020-02-29T08:06:19.000Z</time>
      </trkpt>
      <trkpt lat="49.14697" lon="6.66822">
        <ele>297</ele>
        <time>2020-02-29T08:06:29.000Z</time>
      </trkpt>
      <trkpt lat="49.14703" lon="6.66809">
        <ele>298</ele>
        <time>2020-02-29T08:06:39.000Z</time>
      </trkpt>
      <trkpt lat="49.14708" lon="6.66794">
        <ele>298</ele>
        <time>2020-02-29T08:06:49.000Z</time>
      </trkpt>
      <trkpt lat="49.14712" lon="6.66776">
        <ele>298</ele>
        <time>2020-02-29T08:06:59.000Z</time>
      </trkpt>
      <trkpt lat="49.14717" lon="6.6676">
        <ele>299</ele>
        <time>2020-02-29T08:07:09.000Z</time>
      </trkpt>
      <trkpt lat="49.14721" lon="6.66741">
        <ele>301</ele>
        <time>2020-02-29T08:07:19.000Z</time>
      </trkpt>
      <trkpt lat="49.14723" lon="6.66722">
        <ele>302</ele>
        <time>2020-02-29T08:07:29.000Z</time>
      </trkpt>
      <trkpt lat="49.14723" lon="6.66705">
        <ele>302</ele>
        <time>2020-02-29T08:07:39.000Z</time>
      </trkpt>
      <trkpt lat="49.14721" lon="6.66692">
        <ele>303</ele>
        <time>2020-02-29T08:07:49.000Z</time>
      </trkpt>
      <trkpt lat="49.14717" lon="6.66673">
        <ele>303</ele>
        <time>2020-02-29T08:07:59.000Z</time>
      </trkpt>
      <trkpt lat="49.14713" lon="6.66652">
        <ele>304</ele>
        <time>2020-02-29T08:08:09.000Z</time>
      </trkpt>
      <trkpt lat="49.14708" lon="6.66631">
        <ele>304</ele>
        <time>2020-02-29T08:08:19.000Z</time>
      </trkpt>
      <trkpt lat="49.14702" lon="6.66616">
        <ele>303</ele>
        <time>2020-02-29T08:08:29.000Z</time>
      </trkpt>
      <trkpt lat="49.14698" lon="6.66601">
        <ele>303</ele>
        <time>2020-02-29T08:08:39.000Z</time>
      </trkpt>
      <trkpt lat="49.14694" lon="6.66584">
        <ele>302</ele>
        <time>2020-02-29T08:08:49.000Z</time>
      </trkpt>
      <trkpt lat="49.14691" lon="6.66563">
        <ele>303</ele>
        <time>2020-02-29T08:08:59.000Z</time>
      </trkpt>
      <trkpt lat="49.14689" lon="6.66541">
        <ele>303</ele>
        <time>2020-02-29T08:09:09.000Z</time>
      </trkpt>
      <trkpt lat="49.14686" lon="6.6652">
        <ele>303</ele>
        <time>2020-02-29T08:09:19.000Z</time>
      </trkpt>
      <trkpt lat="49.14683" lon="6.66497">
        <ele>303</ele>
        <time>2020-02-29T08:09:29.000Z</time>
      </trkpt>
      <trkpt lat="49.1468" lon="6.66475">
        <ele>304</ele>
        <time>2020-02-29T08:09:39.000Z</time>
      </trkpt>
      <trkpt lat="49.14678" lon="6.66455">
        <ele>305</ele>
        <time>2020-02-29T08:09:49.000Z</time>
      </trkpt>
      <trkpt lat="49.14678" lon="6.66435">
        <ele>304</ele>
        <time>2020-02-29T08:09:59.000Z</time>
      </trkpt>
      <trkpt lat="49.1468" lon="6.66415">
        <ele>303</ele>
        <time>2020-02-29T08:10:09.000Z</time>
      </trkpt>
      <trkpt lat="49.14682" lon="6.66395">
        <ele>304</ele>
        <time>2020-02-29T08:10:19.000Z</time>
      </trkpt>
      <trkpt lat="49.14686" lon="6.66375">
        <ele>304</ele>
        <time>2020-02-29T08:10:29.000Z</time>
      </trkpt>
      <trkpt lat="49.14692" lon="6.6635">
        <ele>303</ele>
        <time>2020-02-29T08:10:39.000Z</time>
      </trkpt>
      <trkpt lat="49.14696" lon="6.66323">
        <ele>301</ele>
        <time>2020-02-29T08:10:49.000Z</time>
      </trkpt>
      <trkpt lat="49.14701" lon="6.66305">
        <ele>301</ele>
        <time>2020-02-29T08:10:59.000Z</time>
      </trkpt>
      <trkpt lat="49.14706" lon="6.66288">
        <ele>301</ele>
        <time>2020-02-29T08:11:09.000Z</time>
      </trkpt>
      <trkpt lat="49.14711" lon="6.66272">
        <ele>301</ele>
        <time>2020-02-29T08:11:19.000Z</time>
      </trkpt>
      <trkpt lat="49.14715" lon="6.66253">
        <ele>301</ele>
        <time>2020-02-29T08:11:29.000Z</time>
      </trkpt>
      <trkpt lat="49.1472" lon="6.66232">
        <ele>299</ele>
        <time>2020-02-29T08:11:39.000Z</time>
      </trkpt>
      <trkpt lat="49.14725" lon="6.66214">
        <ele>299</ele>
        <time>2020-02-29T08:11:49.000Z</time>
      </trkpt>
      <trkpt lat="49.14731" lon="6.66194">
        <ele>299</ele>
        <time>2020-02-29T08:11:59.000Z</time>
      </trkpt>
      <trkpt lat="49.14737" lon="6.66176">
        <ele>300</ele>
        <time>2020-02-29T08:12:09.000Z</time>
      </trkpt>
      <trkpt lat="49.14744" lon="6.66157">
        <ele>300</ele>
        <time>2020-02-29T08:12:19.000Z</time>
      </trkpt>
      <trkpt lat="49.1475" lon="6.66138">
        <ele>298</ele>
        <time>2020-02-29T08:12:29.000Z</time>
      </trkpt>
      <trkpt lat="49.14757" lon="6.6612">
        <ele>298</ele>
        <time>2020-02-29T08:12:39.000Z</time>
      </trkpt>
      <trkpt lat="49.14761" lon="6.66101">
        <ele>299</ele>
        <time>2020-02-29T08:12:49.000Z</time>
      </trkpt>
      <trkpt lat="49.14765" lon="6.66085">
        <ele>300</ele>
        <time>2020-02-29T08:12:59.000Z</time>
      </trkpt>
      <trkpt lat="49.14769" lon="6.66073">
        <ele>301</ele>
        <time>2020-02-29T08:13:09.000Z</time>
      </trkpt>
      <trkpt lat="49.14773" lon="6.6606">
        <ele>300</ele>
        <time>2020-02-29T08:13:19.000Z</time>
      </trkpt>
      <trkpt lat="49.14774" lon="6.66044">
        <ele>301</ele>
        <time>2020-02-29T08:13:29.000Z</time>
      </trkpt>
      <trkpt lat="49.14773" lon="6.66026">
        <ele>302</ele>
        <time>2020-02-29T08:13:39.000Z</time>
      </trkpt>
      <trkpt lat="49.14772" lon="6.66006">
        <ele>303</ele>
        <time>2020-02-29T08:13:49.000Z</time>
      </trkpt>
      <trkpt lat="49.14771" lon="6.65984">
        <ele>305</ele>
        <time>2020-02-29T08:13:59.000Z</time>
      </trkpt>
      <trkpt lat="49.1477" lon="6.65965">
        <ele>305</ele>
        <time>2020-02-29T08:14:09.000Z</time>
      </trkpt>
      <trkpt lat="49.14769" lon="6.65943">
        <ele>305</ele>
        <time>2020-02-29T08:14:19.000Z</time>
      </trkpt>
      <trkpt lat="49.14768" lon="6.65919">
        <ele>306</ele>
        <time>2020-02-29T08:14:29.000Z</time>
      </trkpt>
      <trkpt lat="49.14766" lon="6.65898">
        <ele>308</ele>
        <time>2020-02-29T08:14:39.000Z</time>
      </trkpt>
      <trkpt lat="49.14764" lon="6.65876">
        <ele>308</ele>
        <time>2020-02-29T08:14:49.000Z</time>
      </trkpt>
      <trkpt lat="49.14764" lon="6.65857">
        <ele>309</ele>
        <time>2020-02-29T08:14:59.000Z</time>
      </trkpt>
      <trkpt lat="49.14763" lon="6.65837">
        <ele>310</ele>
        <time>2020-02-29T08:15:09.000Z</time>
      </trkpt>
      <trkpt lat="49.14761" lon="6.65817">
        <ele>310</ele>
        <time>2020-02-29T08:15:19.000Z</time>
      </trkpt>
      <trkpt lat="49.1476" lon="6.65798">
        <ele>310</ele>
        <time>2020-02-29T08:15:29.000Z</time>
      </trkpt>
      <trkpt lat="49.14759" lon="6.65777">
        <ele>310</ele>
        <time>2020-02-29T08:15:39.000Z</time>
      </trkpt>
      <trkpt lat="49.14759" lon="6.65758">
        <ele>312</ele>
        <time>2020-02-29T08:15:49.000Z</time>
      </trkpt>
      <trkpt lat="49.1476" lon="6.65736">
        <ele>311</ele>
        <time>2020-02-29T08:15:59.000Z</time>
      </trkpt>
      <trkpt lat="49.14761" lon="6.65709">
        <ele>309</ele>
        <time>2020-02-29T08:16:09.000Z</time>
      </trkpt>
      <trkpt lat="49.1476" lon="6.65685">
        <ele>310</ele>
        <time>2020-02-29T08:16:19.000Z</time>
      </trkpt>
      <trkpt lat="49.14759" lon="6.65666">
        <ele>311</ele>
        <time>2020-02-29T08:16:29.000Z</time>
      </trkpt>
      <trkpt lat="49.14758" lon="6.65649">
        <ele>309</ele>
        <time>2020-02-29T08:16:39.000Z</time>
      </trkpt>
      <trkpt lat="49.1476" lon="6.65637">
        <ele>308</ele>
        <time>2020-02-29T08:16:49.000Z</time>
      </trkpt>
      <trkpt lat="49.14762" lon="6.65628">
        <ele>308</ele>
        <time>2020-02-29T08:16:59.000Z</time>
      </trkpt>
      <trkpt lat="49.14765" lon="6.65607">
        <ele>308</ele>
        <time>2020-02-29T08:17:09.000Z</time>
      </trkpt>
      <trkpt lat="49.1477" lon="6.65575">
        <ele>308</ele>
        <time>2020-02-29T08:17:19.000Z</time>
      </trkpt>
      <trkpt lat="49.14773" lon="6.65544">
        <ele>307</ele>
        <time>2020-02-29T08:17:29.000Z</time>
      </trkpt>
      <trkpt lat="49.14775" lon="6.65521">
        <ele>307</ele>
        <time>2020-02-29T08:17:39.000Z</time>
      </trkpt>
      <trkpt lat="49.14774" lon="6.65504">
        <ele>307</ele>
        <time>2020-02-29T08:17:49.000Z</time>
      </trkpt>
      <trkpt lat="49.14773" lon="6.65485">
        <ele>306</ele>
        <time>2020-02-29T08:17:59.000Z</time>
      </trkpt>
      <trkpt lat="49.14772" lon="6.65467">
        <ele>305</ele>
        <time>2020-02-29T08:18:09.000Z</time>
      </trkpt>
      <trkpt lat="49.1477" lon="6.65446">
        <ele>304</ele>
        <time>2020-02-29T08:18:19.000Z</time>
      </trkpt>
      <trkpt lat="49.1477" lon="6.65427">
        <ele>304</ele>
        <time>2020-02-29T08:18:29.000Z</time>
      </trkpt>
      <trkpt lat="49.14769" lon="6.6541">
        <ele>304</ele>
        <time>2020-02-29T08:18:39.000Z</time>
      </trkpt>
      <trkpt lat="49.14767" lon="6.65392">
        <ele>304</ele>
        <time>2020-02-29T08:18:49.000Z</time>
      </trkpt>
      <trkpt lat="49.14763" lon="6.65371">
        <ele>304</ele>
        <time>2020-02-29T08:18:59.000Z</time>
      </trkpt>
      <trkpt lat="49.14762" lon="6.65351">
        <ele>305</ele>
        <time>2020-02-29T08:19:09.000Z</time>
      </trkpt>
      <trkpt lat="49.14761" lon="6.6533">
        <ele>306</ele>
        <time>2020-02-29T08:19:19.000Z</time>
      </trkpt>
      <trkpt lat="49.1476" lon="6.65313">
        <ele>306</ele>
        <time>2020-02-29T08:19:29.000Z</time>
      </trkpt>
      <trkpt lat="49.14758" lon="6.65294">
        <ele>305</ele>
        <time>2020-02-29T08:19:39.000Z</time>
      </trkpt>
      <trkpt lat="49.1476" lon="6.6528">
        <ele>306</ele>
        <time>2020-02-29T08:19:49.000Z</time>
      </trkpt>
      <trkpt lat="49.14762" lon="6.65269">
        <ele>306</ele>
        <time>2020-02-29T08:19:59.000Z</time>
      </trkpt>
      <trkpt lat="49.1476" lon="6.6526">
        <ele>307</ele>
        <time>2020-02-29T08:22:47.000Z</time>
      </trkpt>
      <trkpt lat="49.14761" lon="6.65257">
        <ele>307</ele>
        <time>2020-02-29T08:25:21.000Z</time>
      </trkpt>
      <trkpt lat="49.14769" lon="6.65254">
        <ele>306</ele>
        <time>2020-02-29T08:26:41.000Z</time>
      </trkpt>
      <trkpt lat="49.14771" lon="6.65252">
        <ele>306</ele>
        <time>2020-02-29T08:26:51.000Z</time>
      </trkpt>
      <trkpt lat="49.14771" lon="6.65251">
        <ele>306</ele>
        <time>2020-02-29T08:27:06.000Z</time>
      </trkpt>
      <trkpt lat="49.14772" lon="6.65249">
        <ele>306</ele>
        <time>2020-02-29T08:27:26.000Z</time>
      </trkpt>
      <trkpt lat="49.14767" lon="6.65251">
        <ele>306</ele>
        <time>2020-02-29T08:29:14.000Z</time>
      </trkpt>
      <trkpt lat="49.14766" lon="6.6525">
        <ele>307</ele>
        <time>2020-02-29T08:30:49.000Z</time>
      </trkpt>
      <trkpt lat="49.14766" lon="6.65248">
        <ele>307</ele>
        <time>2020-02-29T08:30:59.000Z</time>
      </trkpt>
      <trkpt lat="49.14765" lon="6.65247">
        <ele>307</ele>
        <time>2020-02-29T08:31:14.000Z</time>
      </trkpt>
      <trkpt lat="49.14766" lon="6.65246">
        <ele>307</ele>
        <time>2020-02-29T08:31:41.000Z</time>
      </trkpt>
      <trkpt lat="49.14765" lon="6.6524">
        <ele>307</ele>
        <time>2020-02-29T08:31:51.000Z</time>
      </trkpt>
      <trkpt lat="49.14756" lon="6.65224">
        <ele>306</ele>
        <time>2020-02-29T08:32:01.000Z</time>
      </trkpt>
      <trkpt lat="49.14751" lon="6.6521">
        <ele>307</ele>
        <time>2020-02-29T08:32:11.000Z</time>
      </trkpt>
      <trkpt lat="49.14751" lon="6.65201">
        <ele>307</ele>
        <time>2020-02-29T08:32:21.000Z</time>
      </trkpt>
      <trkpt lat="49.14754" lon="6.65186">
        <ele>308</ele>
        <time>2020-02-29T08:32:31.000Z</time>
      </trkpt>
      <trkpt lat="49.14757" lon="6.65158">
        <ele>311</ele>
        <time>2020-02-29T08:32:41.000Z</time>
      </trkpt>
      <trkpt lat="49.14757" lon="6.65128">
        <ele>311</ele>
        <time>2020-02-29T08:32:51.000Z</time>
      </trkpt>
      <trkpt lat="49.14754" lon="6.6511">
        <ele>312</ele>
        <time>2020-02-29T08:33:01.000Z</time>
      </trkpt>
      <trkpt lat="49.1475" lon="6.65096">
        <ele>313</ele>
        <time>2020-02-29T08:33:11.000Z</time>
      </trkpt>
      <trkpt lat="49.14745" lon="6.65085">
        <ele>313</ele>
        <time>2020-02-29T08:33:21.000Z</time>
      </trkpt>
      <trkpt lat="49.14739" lon="6.65077">
        <ele>314</ele>
        <time>2020-02-29T08:33:31.000Z</time>
      </trkpt>
      <trkpt lat="49.14734" lon="6.65061">
        <ele>313</ele>
        <time>2020-02-29T08:33:41.000Z</time>
      </trkpt>
      <trkpt lat="49.14726" lon="6.65046">
        <ele>313</ele>
        <time>2020-02-29T08:33:51.000Z</time>
      </trkpt>
      <trkpt lat="49.1472" lon="6.65035">
        <ele>313</ele>
        <time>2020-02-29T08:34:01.000Z</time>
      </trkpt>
      <trkpt lat="49.14717" lon="6.65027">
        <ele>314</ele>
        <time>2020-02-29T08:34:11.000Z</time>
      </trkpt>
      <trkpt lat="49.14714" lon="6.65022">
        <ele>314</ele>
        <time>2020-02-29T08:34:21.000Z</time>
      </trkpt>
      <trkpt lat="49.1471" lon="6.65017">
        <ele>314</ele>
        <time>2020-02-29T08:34:31.000Z</time>
      </trkpt>
      <trkpt lat="49.14707" lon="6.6501">
        <ele>314</ele>
        <time>2020-02-29T08:34:41.000Z</time>
      </trkpt>
      <trkpt lat="49.14704" lon="6.64994">
        <ele>318</ele>
        <time>2020-02-29T08:34:51.000Z</time>
      </trkpt>
      <trkpt lat="49.14702" lon="6.64987">
        <ele>318</ele>
        <time>2020-02-29T08:35:01.000Z</time>
      </trkpt>
      <trkpt lat="49.147" lon="6.64974">
        <ele>318</ele>
        <time>2020-02-29T08:35:11.000Z</time>
      </trkpt>
      <trkpt lat="49.14696" lon="6.64962">
        <ele>319</ele>
        <time>2020-02-29T08:35:21.000Z</time>
      </trkpt>
      <trkpt lat="49.1469" lon="6.64949">
        <ele>319</ele>
        <time>2020-02-29T08:35:31.000Z</time>
      </trkpt>
      <trkpt lat="49.14688" lon="6.64938">
        <ele>319</ele>
        <time>2020-02-29T08:35:41.000Z</time>
      </trkpt>
      <trkpt lat="49.14688" lon="6.64914">
        <ele>323</ele>
        <time>2020-02-29T08:35:51.000Z</time>
      </trkpt>
      <trkpt lat="49.14684" lon="6.64901">
        <ele>323</ele>
        <time>2020-02-29T08:36:01.000Z</time>
      </trkpt>
      <trkpt lat="49.14684" lon="6.64896">
        <ele>323</ele>
        <time>2020-02-29T08:36:11.000Z</time>
      </trkpt>
      <trkpt lat="49.14683" lon="6.64895">
        <ele>323</ele>
        <time>2020-02-29T08:36:27.000Z</time>
      </trkpt>
      <trkpt lat="49.14679" lon="6.64886">
        <ele>324</ele>
        <time>2020-02-29T08:36:37.000Z</time>
      </trkpt>
      <trkpt lat="49.14674" lon="6.6487">
        <ele>325</ele>
        <time>2020-02-29T08:36:47.000Z</time>
      </trkpt>
      <trkpt lat="49.14668" lon="6.64841">
        <ele>326</ele>
        <time>2020-02-29T08:36:57.000Z</time>
      </trkpt>
      <trkpt lat="49.14666" lon="6.64813">
        <ele>323</ele>
        <time>2020-02-29T08:37:07.000Z</time>
      </trkpt>
      <trkpt lat="49.14668" lon="6.648">
        <ele>328</ele>
        <time>2020-02-29T08:37:17.000Z</time>
      </trkpt>
      <trkpt lat="49.14669" lon="6.64789">
        <ele>328</ele>
        <time>2020-02-29T08:37:27.000Z</time>
      </trkpt>
      <trkpt lat="49.14669" lon="6.6478">
        <ele>328</ele>
        <time>2020-02-29T08:37:37.000Z</time>
      </trkpt>
      <trkpt lat="49.14672" lon="6.64776">
        <ele>328</ele>
        <time>2020-02-29T08:37:47.000Z</time>
      </trkpt>
      <trkpt lat="49.14674" lon="6.64768">
        <ele>328</ele>
        <time>2020-02-29T08:37:57.000Z</time>
      </trkpt>
      <trkpt lat="49.14679" lon="6.64756">
        <ele>328</ele>
        <time>2020-02-29T08:38:07.000Z</time>
      </trkpt>
      <trkpt lat="49.14685" lon="6.64738">
        <ele>329</ele>
        <time>2020-02-29T08:38:17.000Z</time>
      </trkpt>
      <trkpt lat="49.1469" lon="6.6472">
        <ele>329</ele>
        <time>2020-02-29T08:38:27.000Z</time>
      </trkpt>
      <trkpt lat="49.14692" lon="6.64713">
        <ele>329</ele>
        <time>2020-02-29T08:38:37.000Z</time>
      </trkpt>
      <trkpt lat="49.14693" lon="6.64699">
        <ele>328</ele>
        <time>2020-02-29T08:38:47.000Z</time>
      </trkpt>
      <trkpt lat="49.14695" lon="6.64688">
        <ele>328</ele>
        <time>2020-02-29T08:38:57.000Z</time>
      </trkpt>
      <trkpt lat="49.14697" lon="6.64675">
        <ele>328</ele>
        <time>2020-02-29T08:39:07.000Z</time>
      </trkpt>
      <trkpt lat="49.14694" lon="6.64662">
        <ele>328</ele>
        <time>2020-02-29T08:39:17.000Z</time>
      </trkpt>
      <trkpt lat="49.14693" lon="6.64639">
        <ele>328</ele>
        <time>2020-02-29T08:39:27.000Z</time>
      </trkpt>
      <trkpt lat="49.14693" lon="6.64619">
        <ele>328</ele>
        <time>2020-02-29T08:39:37.000Z</time>
      </trkpt>
      <trkpt lat="49.14691" lon="6.64598">
        <ele>328</ele>
        <time>2020-02-29T08:39:47.000Z</time>
      </trkpt>
      <trkpt lat="49.14689" lon="6.64578">
        <ele>327</ele>
        <time>2020-02-29T08:39:57.000Z</time>
      </trkpt>
      <trkpt lat="49.14686" lon="6.64558">
        <ele>327</ele>
        <time>2020-02-29T08:40:07.000Z</time>
      </trkpt>
      <trkpt lat="49.14681" lon="6.64542">
        <ele>327</ele>
        <time>2020-02-29T08:40:17.000Z</time>
      </trkpt>
      <trkpt lat="49.14672" lon="6.64529">
        <ele>327</ele>
        <time>2020-02-29T08:40:27.000Z</time>
      </trkpt>
      <trkpt lat="49.14665" lon="6.64514">
        <ele>328</ele>
        <time>2020-02-29T08:40:37.000Z</time>
      </trkpt>
      <trkpt lat="49.14666" lon="6.64504">
        <ele>329</ele>
        <time>2020-02-29T08:40:47.000Z</time>
      </trkpt>
      <trkpt lat="49.14666" lon="6.64501">
        <ele>329</ele>
        <time>2020-02-29T08:42:58.000Z</time>
      </trkpt>
      <trkpt lat="49.14667" lon="6.64499">
        <ele>329</ele>
        <time>2020-02-29T08:43:20.000Z</time>
      </trkpt>
      <trkpt lat="49.14664" lon="6.64482">
        <ele>328</ele>
        <time>2020-02-29T08:43:30.000Z</time>
      </trkpt>
      <trkpt lat="49.1466" lon="6.64464">
        <ele>328</ele>
        <time>2020-02-29T08:43:40.000Z</time>
      </trkpt>
      <trkpt lat="49.14654" lon="6.64443">
        <ele>327</ele>
        <time>2020-02-29T08:43:50.000Z</time>
      </trkpt>
      <trkpt lat="49.14649" lon="6.64427">
        <ele>327</ele>
        <time>2020-02-29T08:44:00.000Z</time>
      </trkpt>
      <trkpt lat="49.14643" lon="6.64411">
        <ele>327</ele>
        <time>2020-02-29T08:44:10.000Z</time>
      </trkpt>
      <trkpt lat="49.14638" lon="6.64394">
        <ele>328</ele>
        <time>2020-02-29T08:44:20.000Z</time>
      </trkpt>
      <trkpt lat="49.14632" lon="6.64376">
        <ele>328</ele>
        <time>2020-02-29T08:44:30.000Z</time>
      </trkpt>
      <trkpt lat="49.14625" lon="6.64357">
        <ele>328</ele>
        <time>2020-02-29T08:44:40.000Z</time>
      </trkpt>
      <trkpt lat="49.14618" lon="6.64339">
        <ele>328</ele>
        <time>2020-02-29T08:44:50.000Z</time>
      </trkpt>
      <trkpt lat="49.14611" lon="6.6432">
        <ele>328</ele>
        <time>2020-02-29T08:45:00.000Z</time>
      </trkpt>
      <trkpt lat="49.14602" lon="6.64304">
        <ele>328</ele>
        <time>2020-02-29T08:45:10.000Z</time>
      </trkpt>
      <trkpt lat="49.14592" lon="6.64289">
        <ele>329</ele>
        <time>2020-02-29T08:45:20.000Z</time>
      </trkpt>
      <trkpt lat="49.14583" lon="6.64275">
        <ele>330</ele>
        <time>2020-02-29T08:45:30.000Z</time>
      </trkpt>
      <trkpt lat="49.14572" lon="6.64264">
        <ele>330</ele>
        <time>2020-02-29T08:45:40.000Z</time>
      </trkpt>
      <trkpt lat="49.14562" lon="6.64252">
        <ele>330</ele>
        <time>2020-02-29T08:45:50.000Z</time>
      </trkpt>
      <trkpt lat="49.14553" lon="6.64239">
        <ele>331</ele>
        <time>2020-02-29T08:46:00.000Z</time>
      </trkpt>
      <trkpt lat="49.14546" lon="6.64229">
        <ele>331</ele>
        <time>2020-02-29T08:46:10.000Z</time>
      </trkpt>
      <trkpt lat="49.14543" lon="6.64218">
        <ele>331</ele>
        <time>2020-02-29T08:46:20.000Z</time>
      </trkpt>
      <trkpt lat="49.1454" lon="6.64202">
        <ele>331</ele>
        <time>2020-02-29T08:46:30.000Z</time>
      </trkpt>
      <trkpt lat="49.14539" lon="6.64184">
        <ele>331</ele>
        <time>2020-02-29T08:46:40.000Z</time>
      </trkpt>
      <trkpt lat="49.14539" lon="6.64163">
        <ele>330</ele>
        <time>2020-02-29T08:46:50.000Z</time>
      </trkpt>
      <trkpt lat="49.14541" lon="6.64141">
        <ele>330</ele>
        <time>2020-02-29T08:47:00.000Z</time>
      </trkpt>
      <trkpt lat="49.14544" lon="6.64121">
        <ele>330</ele>
        <time>2020-02-29T08:47:10.000Z</time>
      </trkpt>
      <trkpt lat="49.14547" lon="6.64099">
        <ele>330</ele>
        <time>2020-02-29T08:47:20.000Z</time>
      </trkpt>
      <trkpt lat="49.14552" lon="6.64078">
        <ele>329</ele>
        <time>2020-02-29T08:47:30.000Z</time>
      </trkpt>
      <trkpt lat="49.14556" lon="6.64059">
        <ele>329</ele>
        <time>2020-02-29T08:47:40.000Z</time>
      </trkpt>
      <trkpt lat="49.14558" lon="6.64038">
        <ele>330</ele>
        <time>2020-02-29T08:47:50.000Z</time>
      </trkpt>
      <trkpt lat="49.14561" lon="6.64015">
        <ele>330</ele>
        <time>2020-02-29T08:48:00.000Z</time>
      </trkpt>
      <trkpt lat="49.14564" lon="6.64005">
        <ele>329</ele>
        <time>2020-02-29T08:48:10.000Z</time>
      </trkpt>
      <trkpt lat="49.14563" lon="6.64004">
        <ele>329</ele>
        <time>2020-02-29T08:48:41.000Z</time>
      </trkpt>
      <trkpt lat="49.14565" lon="6.63986">
        <ele>329</ele>
        <time>2020-02-29T08:48:51.000Z</time>
      </trkpt>
      <trkpt lat="49.14563" lon="6.63977">
        <ele>329</ele>
        <time>2020-02-29T08:49:01.000Z</time>
      </trkpt>
      <trkpt lat="49.14567" lon="6.63965">
        <ele>329</ele>
        <time>2020-02-29T08:49:11.000Z</time>
      </trkpt>
      <trkpt lat="49.14573" lon="6.63943">
        <ele>329</ele>
        <time>2020-02-29T08:49:21.000Z</time>
      </trkpt>
      <trkpt lat="49.14578" lon="6.63922">
        <ele>330</ele>
        <time>2020-02-29T08:49:31.000Z</time>
      </trkpt>
      <trkpt lat="49.14581" lon="6.63902">
        <ele>328</ele>
        <time>2020-02-29T08:49:41.000Z</time>
      </trkpt>
      <trkpt lat="49.14584" lon="6.63883">
        <ele>329</ele>
        <time>2020-02-29T08:49:51.000Z</time>
      </trkpt>
      <trkpt lat="49.14586" lon="6.63864">
        <ele>329</ele>
        <time>2020-02-29T08:50:01.000Z</time>
      </trkpt>
      <trkpt lat="49.14586" lon="6.63847">
        <ele>329</ele>
        <time>2020-02-29T08:50:11.000Z</time>
      </trkpt>
      <trkpt lat="49.14587" lon="6.63832">
        <ele>329</ele>
        <time>2020-02-29T08:50:21.000Z</time>
      </trkpt>
      <trkpt lat="49.14588" lon="6.63814">
        <ele>330</ele>
        <time>2020-02-29T08:50:31.000Z</time>
      </trkpt>
      <trkpt lat="49.14592" lon="6.63794">
        <ele>330</ele>
        <time>2020-02-29T08:50:41.000Z</time>
      </trkpt>
      <trkpt lat="49.14594" lon="6.63774">
        <ele>330</ele>
        <time>2020-02-29T08:50:51.000Z</time>
      </trkpt>
      <trkpt lat="49.14595" lon="6.63754">
        <ele>330</ele>
        <time>2020-02-29T08:51:01.000Z</time>
      </trkpt>
      <trkpt lat="49.14594" lon="6.63734">
        <ele>332</ele>
        <time>2020-02-29T08:51:11.000Z</time>
      </trkpt>
      <trkpt lat="49.14595" lon="6.63712">
        <ele>333</ele>
        <time>2020-02-29T08:51:21.000Z</time>
      </trkpt>
      <trkpt lat="49.14597" lon="6.63691">
        <ele>333</ele>
        <time>2020-02-29T08:51:31.000Z</time>
      </trkpt>
      <trkpt lat="49.14601" lon="6.63678">
        <ele>334</ele>
        <time>2020-02-29T08:51:41.000Z</time>
      </trkpt>
      <trkpt lat="49.14606" lon="6.63676">
        <ele>334</ele>
        <time>2020-02-29T08:51:51.000Z</time>
      </trkpt>
      <trkpt lat="49.14601" lon="6.63679">
        <ele>334</ele>
        <time>2020-02-29T08:52:27.000Z</time>
      </trkpt>
      <trkpt lat="49.14601" lon="6.63678">
        <ele>334</ele>
        <time>2020-02-29T08:52:37.000Z</time>
      </trkpt>
      <trkpt lat="49.146" lon="6.63674">
        <ele>334</ele>
        <time>2020-02-29T08:52:47.000Z</time>
      </trkpt>
      <trkpt lat="49.14599" lon="6.63657">
        <ele>335</ele>
        <time>2020-02-29T08:52:57.000Z</time>
      </trkpt>
      <trkpt lat="49.146" lon="6.63635">
        <ele>334</ele>
        <time>2020-02-29T08:53:07.000Z</time>
      </trkpt>
      <trkpt lat="49.14604" lon="6.63614">
        <ele>334</ele>
        <time>2020-02-29T08:53:17.000Z</time>
      </trkpt>
      <trkpt lat="49.1461" lon="6.63596">
        <ele>334</ele>
        <time>2020-02-29T08:53:27.000Z</time>
      </trkpt>
      <trkpt lat="49.14612" lon="6.63594">
        <ele>334</ele>
        <time>2020-02-29T08:53:37.000Z</time>
      </trkpt>
      <trkpt lat="49.14611" lon="6.63595">
        <ele>334</ele>
        <time>2020-02-29T08:54:44.000Z</time>
      </trkpt>
      <trkpt lat="49.14612" lon="6.63594">
        <ele>334</ele>
        <time>2020-02-29T08:56:00.000Z</time>
      </trkpt>
      <trkpt lat="49.14616" lon="6.63575">
        <ele>333</ele>
        <time>2020-02-29T08:56:10.000Z</time>
      </trkpt>
      <trkpt lat="49.14624" lon="6.6355">
        <ele>334</ele>
        <time>2020-02-29T08:56:20.000Z</time>
      </trkpt>
      <trkpt lat="49.14631" lon="6.63526">
        <ele>334</ele>
        <time>2020-02-29T08:56:30.000Z</time>
      </trkpt>
      <trkpt lat="49.14637" lon="6.63506">
        <ele>334</ele>
        <time>2020-02-29T08:56:40.000Z</time>
      </trkpt>
      <trkpt lat="49.14644" lon="6.63487">
        <ele>334</ele>
        <time>2020-02-29T08:56:50.000Z</time>
      </trkpt>
      <trkpt lat="49.14651" lon="6.63467">
        <ele>334</ele>
        <time>2020-02-29T08:57:00.000Z</time>
      </trkpt>
      <trkpt lat="49.14659" lon="6.63445">
        <ele>334</ele>
        <time>2020-02-29T08:57:10.000Z</time>
      </trkpt>
      <trkpt lat="49.14667" lon="6.63424">
        <ele>336</ele>
        <time>2020-02-29T08:57:20.000Z</time>
      </trkpt>
      <trkpt lat="49.14674" lon="6.63406">
        <ele>336</ele>
        <time>2020-02-29T08:57:30.000Z</time>
      </trkpt>
      <trkpt lat="49.14681" lon="6.63386">
        <ele>335</ele>
        <time>2020-02-29T08:57:40.000Z</time>
      </trkpt>
      <trkpt lat="49.14686" lon="6.63367">
        <ele>335</ele>
        <time>2020-02-29T08:57:50.000Z</time>
      </trkpt>
      <trkpt lat="49.14691" lon="6.63349">
        <ele>335</ele>
        <time>2020-02-29T08:58:00.000Z</time>
      </trkpt>
      <trkpt lat="49.14696" lon="6.63329">
        <ele>334</ele>
        <time>2020-02-29T08:58:10.000Z</time>
      </trkpt>
      <trkpt lat="49.147" lon="6.6331">
        <ele>334</ele>
        <time>2020-02-29T08:58:20.000Z</time>
      </trkpt>
      <trkpt lat="49.147" lon="6.63291">
        <ele>334</ele>
        <time>2020-02-29T08:58:30.000Z</time>
      </trkpt>
      <trkpt lat="49.14699" lon="6.63272">
        <ele>334</ele>
        <time>2020-02-29T08:58:40.000Z</time>
      </trkpt>
      <trkpt lat="49.14698" lon="6.63251">
        <ele>334</ele>
        <time>2020-02-29T08:58:50.000Z</time>
      </trkpt>
      <trkpt lat="49.14699" lon="6.6323">
        <ele>333</ele>
        <time>2020-02-29T08:59:00.000Z</time>
      </trkpt>
      <trkpt lat="49.14699" lon="6.63209">
        <ele>333</ele>
        <time>2020-02-29T08:59:10.000Z</time>
      </trkpt>
      <trkpt lat="49.14698" lon="6.63188">
        <ele>333</ele>
        <time>2020-02-29T08:59:20.000Z</time>
      </trkpt>
      <trkpt lat="49.14699" lon="6.63167">
        <ele>333</ele>
        <time>2020-02-29T08:59:30.000Z</time>
      </trkpt>
      <trkpt lat="49.147" lon="6.63146">
        <ele>332</ele>
        <time>2020-02-29T08:59:40.000Z</time>
      </trkpt>
      <trkpt lat="49.14699" lon="6.63126">
        <ele>332</ele>
        <time>2020-02-29T08:59:50.000Z</time>
      </trkpt>
      <trkpt lat="49.14701" lon="6.63104">
        <ele>332</ele>
        <time>2020-02-29T09:00:00.000Z</time>
      </trkpt>
      <trkpt lat="49.147" lon="6.63095">
        <ele>331</ele>
        <time>2020-02-29T09:00:10.000Z</time>
      </trkpt>
      <trkpt lat="49.14699" lon="6.63078">
        <ele>331</ele>
        <time>2020-02-29T09:00:20.000Z</time>
      </trkpt>
      <trkpt lat="49.147" lon="6.63047">
        <ele>330</ele>
        <time>2020-02-29T09:00:30.000Z</time>
      </trkpt>
      <trkpt lat="49.14701" lon="6.63034">
        <ele>330</ele>
        <time>2020-02-29T09:00:40.000Z</time>
      </trkpt>
      <trkpt lat="49.14702" lon="6.6303">
        <ele>330</ele>
        <time>2020-02-29T09:00:50.000Z</time>
      </trkpt>
      <trkpt lat="49.14703" lon="6.63027">
        <ele>330</ele>
        <time>2020-02-29T09:01:00.000Z</time>
      </trkpt>
      <trkpt lat="49.14703" lon="6.63025">
        <ele>330</ele>
        <time>2020-02-29T09:01:10.000Z</time>
      </trkpt>
      <trkpt lat="49.14701" lon="6.63007">
        <ele>330</ele>
        <time>2020-02-29T09:01:20.000Z</time>
      </trkpt>
      <trkpt lat="49.14701" lon="6.62981">
        <ele>329</ele>
        <time>2020-02-29T09:01:30.000Z</time>
      </trkpt>
      <trkpt lat="49.14702" lon="6.62959">
        <ele>329</ele>
        <time>2020-02-29T09:01:40.000Z</time>
      </trkpt>
      <trkpt lat="49.14703" lon="6.6294">
        <ele>329</ele>
        <time>2020-02-29T09:01:50.000Z</time>
      </trkpt>
      <trkpt lat="49.14705" lon="6.6292">
        <ele>329</ele>
        <time>2020-02-29T09:02:00.000Z</time>
      </trkpt>
      <trkpt lat="49.14706" lon="6.62899">
        <ele>329</ele>
        <time>2020-02-29T09:02:10.000Z</time>
      </trkpt>
      <trkpt lat="49.14706" lon="6.62877">
        <ele>329</ele>
        <time>2020-02-29T09:02:20.000Z</time>
      </trkpt>
      <trkpt lat="49.14706" lon="6.62854">
        <ele>329</ele>
        <time>2020-02-29T09:02:30.000Z</time>
      </trkpt>
      <trkpt lat="49.14705" lon="6.62834">
        <ele>329</ele>
        <time>2020-02-29T09:02:40.000Z</time>
      </trkpt>
      <trkpt lat="49.14706" lon="6.62817">
        <ele>328</ele>
        <time>2020-02-29T09:02:50.000Z</time>
      </trkpt>
      <trkpt lat="49.14707" lon="6.62798">
        <ele>328</ele>
        <time>2020-02-29T09:03:00.000Z</time>
      </trkpt>
      <trkpt lat="49.14706" lon="6.62778">
        <ele>327</ele>
        <time>2020-02-29T09:03:10.000Z</time>
      </trkpt>
      <trkpt lat="49.14704" lon="6.62758">
        <ele>327</ele>
        <time>2020-02-29T09:03:20.000Z</time>
      </trkpt>
      <trkpt lat="49.14701" lon="6.62738">
        <ele>325</ele>
        <time>2020-02-29T09:03:30.000Z</time>
      </trkpt>
      <trkpt lat="49.14697" lon="6.6272">
        <ele>325</ele>
        <time>2020-02-29T09:03:40.000Z</time>
      </trkpt>
      <trkpt lat="49.14693" lon="6.62702">
        <ele>325</ele>
        <time>2020-02-29T09:03:50.000Z</time>
      </trkpt>
      <trkpt lat="49.14691" lon="6.62683">
        <ele>324</ele>
        <time>2020-02-29T09:04:00.000Z</time>
      </trkpt>
      <trkpt lat="49.14697" lon="6.6267">
        <ele>324</ele>
        <time>2020-02-29T09:04:10.000Z</time>
      </trkpt>
      <trkpt lat="49.1471" lon="6.62662">
        <ele>324</ele>
        <time>2020-02-29T09:04:20.000Z</time>
      </trkpt>
      <trkpt lat="49.14725" lon="6.62658">
        <ele>324</ele>
        <time>2020-02-29T09:04:30.000Z</time>
      </trkpt>
      <trkpt lat="49.14738" lon="6.62657">
        <ele>325</ele>
        <time>2020-02-29T09:04:40.000Z</time>
      </trkpt>
      <trkpt lat="49.14745" lon="6.62651">
        <ele>325</ele>
        <time>2020-02-29T09:04:50.000Z</time>
      </trkpt>
      <trkpt lat="49.14746" lon="6.62651">
        <ele>325</ele>
        <time>2020-02-29T09:05:00.000Z</time>
      </trkpt>
      <trkpt lat="49.14758" lon="6.6265">
        <ele>325</ele>
        <time>2020-02-29T09:05:10.000Z</time>
      </trkpt>
      <trkpt lat="49.14772" lon="6.62656">
        <ele>325</ele>
        <time>2020-02-29T09:05:20.000Z</time>
      </trkpt>
      <trkpt lat="49.14785" lon="6.62666">
        <ele>325</ele>
        <time>2020-02-29T09:05:30.000Z</time>
      </trkpt>
      <trkpt lat="49.14797" lon="6.62677">
        <ele>327</ele>
        <time>2020-02-29T09:05:40.000Z</time>
      </trkpt>
      <trkpt lat="49.14809" lon="6.62688">
        <ele>327</ele>
        <time>2020-02-29T09:05:50.000Z</time>
      </trkpt>
      <trkpt lat="49.14821" lon="6.62699">
        <ele>327</ele>
        <time>2020-02-29T09:06:00.000Z</time>
      </trkpt>
      <trkpt lat="49.14833" lon="6.62708">
        <ele>327</ele>
        <time>2020-02-29T09:06:10.000Z</time>
      </trkpt>
      <trkpt lat="49.14845" lon="6.62719">
        <ele>326</ele>
        <time>2020-02-29T09:06:20.000Z</time>
      </trkpt>
      <trkpt lat="49.14857" lon="6.6273">
        <ele>326</ele>
        <time>2020-02-29T09:06:30.000Z</time>
      </trkpt>
      <trkpt lat="49.1487" lon="6.6274">
        <ele>326</ele>
        <time>2020-02-29T09:06:40.000Z</time>
      </trkpt>
      <trkpt lat="49.14882" lon="6.62748">
        <ele>326</ele>
        <time>2020-02-29T09:06:50.000Z</time>
      </trkpt>
      <trkpt lat="49.14896" lon="6.62757">
        <ele>325</ele>
        <time>2020-02-29T09:07:00.000Z</time>
      </trkpt>
      <trkpt lat="49.14908" lon="6.62764">
        <ele>325</ele>
        <time>2020-02-29T09:07:10.000Z</time>
      </trkpt>
      <trkpt lat="49.14921" lon="6.62772">
        <ele>323</ele>
        <time>2020-02-29T09:07:20.000Z</time>
      </trkpt>
      <trkpt lat="49.14933" lon="6.62781">
        <ele>322</ele>
        <time>2020-02-29T09:07:30.000Z</time>
      </trkpt>
      <trkpt lat="49.14944" lon="6.62793">
        <ele>322</ele>
        <time>2020-02-29T09:07:40.000Z</time>
      </trkpt>
      <trkpt lat="49.14959" lon="6.62798">
        <ele>322</ele>
        <time>2020-02-29T09:07:50.000Z</time>
      </trkpt>
      <trkpt lat="49.14972" lon="6.62798">
        <ele>322</ele>
        <time>2020-02-29T09:08:00.000Z</time>
      </trkpt>
      <trkpt lat="49.14986" lon="6.62796">
        <ele>322</ele>
        <time>2020-02-29T09:08:10.000Z</time>
      </trkpt>
      <trkpt lat="49.15" lon="6.62793">
        <ele>322</ele>
        <time>2020-02-29T09:08:20.000Z</time>
      </trkpt>
      <trkpt lat="49.15013" lon="6.62792">
        <ele>321</ele>
        <time>2020-02-29T09:08:30.000Z</time>
      </trkpt>
      <trkpt lat="49.15026" lon="6.62792">
        <ele>321</ele>
        <time>2020-02-29T09:08:40.000Z</time>
      </trkpt>
      <trkpt lat="49.15041" lon="6.62794">
        <ele>321</ele>
        <time>2020-02-29T09:08:50.000Z</time>
      </trkpt>
      <trkpt lat="49.15056" lon="6.62794">
        <ele>321</ele>
        <time>2020-02-29T09:09:00.000Z</time>
      </trkpt>
      <trkpt lat="49.15069" lon="6.62794">
        <ele>321</ele>
        <time>2020-02-29T09:09:10.000Z</time>
      </trkpt>
      <trkpt lat="49.15083" lon="6.62792">
        <ele>320</ele>
        <time>2020-02-29T09:09:20.000Z</time>
      </trkpt>
      <trkpt lat="49.15097" lon="6.62791">
        <ele>320</ele>
        <time>2020-02-29T09:09:30.000Z</time>
      </trkpt>
      <trkpt lat="49.1511" lon="6.62795">
        <ele>320</ele>
        <time>2020-02-29T09:09:40.000Z</time>
      </trkpt>
      <trkpt lat="49.15124" lon="6.62807">
        <ele>320</ele>
        <time>2020-02-29T09:09:50.000Z</time>
      </trkpt>
      <trkpt lat="49.15137" lon="6.62819">
        <ele>320</ele>
        <time>2020-02-29T09:10:00.000Z</time>
      </trkpt>
      <trkpt lat="49.15149" lon="6.62834">
        <ele>320</ele>
        <time>2020-02-29T09:10:10.000Z</time>
      </trkpt>
      <trkpt lat="49.15162" lon="6.62846">
        <ele>320</ele>
        <time>2020-02-29T09:10:20.000Z</time>
      </trkpt>
      <trkpt lat="49.15174" lon="6.62857">
        <ele>321</ele>
        <time>2020-02-29T09:10:30.000Z</time>
      </trkpt>
      <trkpt lat="49.15186" lon="6.62868">
        <ele>321</ele>
        <time>2020-02-29T09:10:40.000Z</time>
      </trkpt>
      <trkpt lat="49.15198" lon="6.62882">
        <ele>321</ele>
        <time>2020-02-29T09:10:50.000Z</time>
      </trkpt>
      <trkpt lat="49.15208" lon="6.62896">
        <ele>321</ele>
        <time>2020-02-29T09:11:00.000Z</time>
      </trkpt>
      <trkpt lat="49.15219" lon="6.62906">
        <ele>321</ele>
        <time>2020-02-29T09:11:10.000Z</time>
      </trkpt>
      <trkpt lat="49.15231" lon="6.62916">
        <ele>322</ele>
        <time>2020-02-29T09:11:20.000Z</time>
      </trkpt>
      <trkpt lat="49.15239" lon="6.62926">
        <ele>322</ele>
        <time>2020-02-29T09:11:30.000Z</time>
      </trkpt>
      <trkpt lat="49.15255" lon="6.62937">
        <ele>322</ele>
        <time>2020-02-29T09:11:40.000Z</time>
      </trkpt>
      <trkpt lat="49.15271" lon="6.62945">
        <ele>322</ele>
        <time>2020-02-29T09:11:50.000Z</time>
      </trkpt>
      <trkpt lat="49.1528" lon="6.62948">
        <ele>322</ele>
        <time>2020-02-29T09:12:00.000Z</time>
      </trkpt>
      <trkpt lat="49.15293" lon="6.62951">
        <ele>322</ele>
        <time>2020-02-29T09:12:10.000Z</time>
      </trkpt>
      <trkpt lat="49.15311" lon="6.62957">
        <ele>322</ele>
        <time>2020-02-29T09:12:20.000Z</time>
      </trkpt>
      <trkpt lat="49.15326" lon="6.62963">
        <ele>322</ele>
        <time>2020-02-29T09:12:30.000Z</time>
      </trkpt>
      <trkpt lat="49.15339" lon="6.6297">
        <ele>323</ele>
        <time>2020-02-29T09:12:40.000Z</time>
      </trkpt>
      <trkpt lat="49.15352" lon="6.62978">
        <ele>323</ele>
        <time>2020-02-29T09:12:50.000Z</time>
      </trkpt>
      <trkpt lat="49.15366" lon="6.62985">
        <ele>323</ele>
        <time>2020-02-29T09:13:00.000Z</time>
      </trkpt>
      <trkpt lat="49.15379" lon="6.62992">
        <ele>324</ele>
        <time>2020-02-29T09:13:10.000Z</time>
      </trkpt>
      <trkpt lat="49.15392" lon="6.62999">
        <ele>324</ele>
        <time>2020-02-29T09:13:20.000Z</time>
      </trkpt>
      <trkpt lat="49.15407" lon="6.63005">
        <ele>325</ele>
        <time>2020-02-29T09:13:30.000Z</time>
      </trkpt>
      <trkpt lat="49.15421" lon="6.63013">
        <ele>328</ele>
        <time>2020-02-29T09:13:40.000Z</time>
      </trkpt>
      <trkpt lat="49.15434" lon="6.6302">
        <ele>329</ele>
        <time>2020-02-29T09:13:50.000Z</time>
      </trkpt>
      <trkpt lat="49.15448" lon="6.63028">
        <ele>330</ele>
        <time>2020-02-29T09:14:00.000Z</time>
      </trkpt>
      <trkpt lat="49.15461" lon="6.63033">
        <ele>331</ele>
        <time>2020-02-29T09:14:10.000Z</time>
      </trkpt>
      <trkpt lat="49.15474" lon="6.63034">
        <ele>331</ele>
        <time>2020-02-29T09:14:20.000Z</time>
      </trkpt>
      <trkpt lat="49.15483" lon="6.63028">
        <ele>332</ele>
        <time>2020-02-29T09:14:30.000Z</time>
      </trkpt>
      <trkpt lat="49.15481" lon="6.63032">
        <ele>332</ele>
        <time>2020-02-29T09:16:01.000Z</time>
      </trkpt>
      <trkpt lat="49.15481" lon="6.63019">
        <ele>333</ele>
        <time>2020-02-29T09:16:11.000Z</time>
      </trkpt>
      <trkpt lat="49.15482" lon="6.63004">
        <ele>334</ele>
        <time>2020-02-29T09:16:21.000Z</time>
      </trkpt>
      <trkpt lat="49.15482" lon="6.62979">
        <ele>332</ele>
        <time>2020-02-29T09:16:31.000Z</time>
      </trkpt>
      <trkpt lat="49.15482" lon="6.62963">
        <ele>331</ele>
        <time>2020-02-29T09:16:41.000Z</time>
      </trkpt>
      <trkpt lat="49.15483" lon="6.62941">
        <ele>331</ele>
        <time>2020-02-29T09:16:51.000Z</time>
      </trkpt>
      <trkpt lat="49.1548" lon="6.62923">
        <ele>331</ele>
        <time>2020-02-29T09:17:01.000Z</time>
      </trkpt>
      <trkpt lat="49.15476" lon="6.62903">
        <ele>324</ele>
        <time>2020-02-29T09:17:11.000Z</time>
      </trkpt>
      <trkpt lat="49.15469" lon="6.62884">
        <ele>321</ele>
        <time>2020-02-29T09:17:21.000Z</time>
      </trkpt>
      <trkpt lat="49.1546" lon="6.62871">
        <ele>320</ele>
        <time>2020-02-29T09:17:31.000Z</time>
      </trkpt>
      <trkpt lat="49.15456" lon="6.62864">
        <ele>319</ele>
        <time>2020-02-29T09:17:41.000Z</time>
      </trkpt>
      <trkpt lat="49.15455" lon="6.62851">
        <ele>318</ele>
        <time>2020-02-29T09:17:51.000Z</time>
      </trkpt>
      <trkpt lat="49.15449" lon="6.62834">
        <ele>316</ele>
        <time>2020-02-29T09:18:01.000Z</time>
      </trkpt>
      <trkpt lat="49.15446" lon="6.62823">
        <ele>305</ele>
        <time>2020-02-29T09:18:11.000Z</time>
      </trkpt>
      <trkpt lat="49.15446" lon="6.6281">
        <ele>304</ele>
        <time>2020-02-29T09:18:21.000Z</time>
      </trkpt>
      <trkpt lat="49.15447" lon="6.62797">
        <ele>302</ele>
        <time>2020-02-29T09:18:31.000Z</time>
      </trkpt>
      <trkpt lat="49.15455" lon="6.62784">
        <ele>301</ele>
        <time>2020-02-29T09:18:41.000Z</time>
      </trkpt>
      <trkpt lat="49.15463" lon="6.62771">
        <ele>299</ele>
        <time>2020-02-29T09:18:51.000Z</time>
      </trkpt>
      <trkpt lat="49.15472" lon="6.62758">
        <ele>299</ele>
        <time>2020-02-29T09:19:01.000Z</time>
      </trkpt>
      <trkpt lat="49.15479" lon="6.62744">
        <ele>288</ele>
        <time>2020-02-29T09:19:11.000Z</time>
      </trkpt>
      <trkpt lat="49.15486" lon="6.62734">
        <ele>288</ele>
        <time>2020-02-29T09:19:21.000Z</time>
      </trkpt>
      <trkpt lat="49.15492" lon="6.62729">
        <ele>287</ele>
        <time>2020-02-29T09:19:31.000Z</time>
      </trkpt>
      <trkpt lat="49.15498" lon="6.62729">
        <ele>288</ele>
        <time>2020-02-29T09:19:41.000Z</time>
      </trkpt>
      <trkpt lat="49.15511" lon="6.62722">
        <ele>285</ele>
        <time>2020-02-29T09:19:51.000Z</time>
      </trkpt>
      <trkpt lat="49.15516" lon="6.62713">
        <ele>283</ele>
        <time>2020-02-29T09:20:01.000Z</time>
      </trkpt>
      <trkpt lat="49.15515" lon="6.62709">
        <ele>283</ele>
        <time>2020-02-29T09:20:11.000Z</time>
      </trkpt>
      <trkpt lat="49.15514" lon="6.62702">
        <ele>282</ele>
        <time>2020-02-29T09:20:21.000Z</time>
      </trkpt>
      <trkpt lat="49.15515" lon="6.62688">
        <ele>280</ele>
        <time>2020-02-29T09:20:31.000Z</time>
      </trkpt>
      <trkpt lat="49.15517" lon="6.62672">
        <ele>279</ele>
        <time>2020-02-29T09:20:41.000Z</time>
      </trkpt>
      <trkpt lat="49.1552" lon="6.62659">
        <ele>270</ele>
        <time>2020-02-29T09:20:51.000Z</time>
      </trkpt>
      <trkpt lat="49.15522" lon="6.62649">
        <ele>269</ele>
        <time>2020-02-29T09:21:01.000Z</time>
      </trkpt>
      <trkpt lat="49.15517" lon="6.6264">
        <ele>268</ele>
        <time>2020-02-29T09:21:11.000Z</time>
      </trkpt>
      <trkpt lat="49.15518" lon="6.62641">
        <ele>268</ele>
        <time>2020-02-29T09:21:23.000Z</time>
      </trkpt>
      <trkpt lat="49.1552" lon="6.62644">
        <ele>268</ele>
        <time>2020-02-29T09:21:33.000Z</time>
      </trkpt>
      <trkpt lat="49.1552" lon="6.62642">
        <ele>268</ele>
        <time>2020-02-29T09:21:51.000Z</time>
      </trkpt>
      <trkpt lat="49.15512" lon="6.62636">
        <ele>267</ele>
        <time>2020-02-29T09:22:01.000Z</time>
      </trkpt>
      <trkpt lat="49.15502" lon="6.62636">
        <ele>267</ele>
        <time>2020-02-29T09:22:11.000Z</time>
      </trkpt>
      <trkpt lat="49.15496" lon="6.62636">
        <ele>268</ele>
        <time>2020-02-29T09:22:21.000Z</time>
      </trkpt>
      <trkpt lat="49.15491" lon="6.62635">
        <ele>267</ele>
        <time>2020-02-29T09:22:31.000Z</time>
      </trkpt>
      <trkpt lat="49.15478" lon="6.62626">
        <ele>266</ele>
        <time>2020-02-29T09:22:41.000Z</time>
      </trkpt>
      <trkpt lat="49.15464" lon="6.62617">
        <ele>265</ele>
        <time>2020-02-29T09:22:51.000Z</time>
      </trkpt>
      <trkpt lat="49.1545" lon="6.62606">
        <ele>264</ele>
        <time>2020-02-29T09:23:01.000Z</time>
      </trkpt>
      <trkpt lat="49.15434" lon="6.62596">
        <ele>262</ele>
        <time>2020-02-29T09:23:11.000Z</time>
      </trkpt>
      <trkpt lat="49.15422" lon="6.62593">
        <ele>261</ele>
        <time>2020-02-29T09:23:21.000Z</time>
      </trkpt>
      <trkpt lat="49.15409" lon="6.62587">
        <ele>261</ele>
        <time>2020-02-29T09:23:31.000Z</time>
      </trkpt>
      <trkpt lat="49.15404" lon="6.6257">
        <ele>259</ele>
        <time>2020-02-29T09:23:41.000Z</time>
      </trkpt>
      <trkpt lat="49.15402" lon="6.62548">
        <ele>259</ele>
        <time>2020-02-29T09:23:51.000Z</time>
      </trkpt>
      <trkpt lat="49.15407" lon="6.62525">
        <ele>258</ele>
        <time>2020-02-29T09:24:01.000Z</time>
      </trkpt>
      <trkpt lat="49.15412" lon="6.62501">
        <ele>254</ele>
        <time>2020-02-29T09:24:11.000Z</time>
      </trkpt>
      <trkpt lat="49.15413" lon="6.62481">
        <ele>255</ele>
        <time>2020-02-29T09:24:21.000Z</time>
      </trkpt>
      <trkpt lat="49.1541" lon="6.6248">
        <ele>255</ele>
        <time>2020-02-29T09:24:31.000Z</time>
      </trkpt>
      <trkpt lat="49.15409" lon="6.62478">
        <ele>255</ele>
        <time>2020-02-29T09:24:41.000Z</time>
      </trkpt>
      <trkpt lat="49.15409" lon="6.62476">
        <ele>255</ele>
        <time>2020-02-29T09:25:26.000Z</time>
      </trkpt>
      <trkpt lat="49.1541" lon="6.62474">
        <ele>255</ele>
        <time>2020-02-29T09:26:24.000Z</time>
      </trkpt>
      <trkpt lat="49.15411" lon="6.62471">
        <ele>255</ele>
        <time>2020-02-29T09:27:44.000Z</time>
      </trkpt>
      <trkpt lat="49.1541" lon="6.62456">
        <ele>255</ele>
        <time>2020-02-29T09:27:54.000Z</time>
      </trkpt>
      <trkpt lat="49.15411" lon="6.62435">
        <ele>254</ele>
        <time>2020-02-29T09:28:04.000Z</time>
      </trkpt>
      <trkpt lat="49.15412" lon="6.62414">
        <ele>252</ele>
        <time>2020-02-29T09:28:14.000Z</time>
      </trkpt>
      <trkpt lat="49.15413" lon="6.62389">
        <ele>253</ele>
        <time>2020-02-29T09:28:24.000Z</time>
      </trkpt>
      <trkpt lat="49.15414" lon="6.62366">
        <ele>253</ele>
        <time>2020-02-29T09:28:34.000Z</time>
      </trkpt>
      <trkpt lat="49.15414" lon="6.62347">
        <ele>252</ele>
        <time>2020-02-29T09:28:44.000Z</time>
      </trkpt>
      <trkpt lat="49.15417" lon="6.62337">
        <ele>251</ele>
        <time>2020-02-29T09:28:54.000Z</time>
      </trkpt>
      <trkpt lat="49.15419" lon="6.62335">
        <ele>251</ele>
        <time>2020-02-29T09:29:04.000Z</time>
      </trkpt>
      <trkpt lat="49.15419" lon="6.62336">
        <ele>251</ele>
        <time>2020-02-29T09:29:14.000Z</time>
      </trkpt>
      <trkpt lat="49.1542" lon="6.62339">
        <ele>251</ele>
        <time>2020-02-29T09:30:01.000Z</time>
      </trkpt>
      <trkpt lat="49.15419" lon="6.62339">
        <ele>251</ele>
        <time>2020-02-29T09:30:11.000Z</time>
      </trkpt>
      <trkpt lat="49.15419" lon="6.62337">
        <ele>251</ele>
        <time>2020-02-29T09:30:29.000Z</time>
      </trkpt>
      <trkpt lat="49.15419" lon="6.62321">
        <ele>252</ele>
        <time>2020-02-29T09:30:39.000Z</time>
      </trkpt>
      <trkpt lat="49.15419" lon="6.6231">
        <ele>253</ele>
        <time>2020-02-29T09:30:49.000Z</time>
      </trkpt>
      <trkpt lat="49.15421" lon="6.62307">
        <ele>253</ele>
        <time>2020-02-29T09:32:07.000Z</time>
      </trkpt>
      <trkpt lat="49.1542" lon="6.62302">
        <ele>253</ele>
        <time>2020-02-29T09:32:17.000Z</time>
      </trkpt>
      <trkpt lat="49.15421" lon="6.62281">
        <ele>254</ele>
        <time>2020-02-29T09:32:27.000Z</time>
      </trkpt>
      <trkpt lat="49.15422" lon="6.62266">
        <ele>254</ele>
        <time>2020-02-29T09:32:37.000Z</time>
      </trkpt>
      <trkpt lat="49.15426" lon="6.62253">
        <ele>255</ele>
        <time>2020-02-29T09:32:47.000Z</time>
      </trkpt>
      <trkpt lat="49.15432" lon="6.62239">
        <ele>256</ele>
        <time>2020-02-29T09:32:57.000Z</time>
      </trkpt>
      <trkpt lat="49.15437" lon="6.62227">
        <ele>257</ele>
        <time>2020-02-29T09:33:07.000Z</time>
      </trkpt>
      <trkpt lat="49.15438" lon="6.62213">
        <ele>257</ele>
        <time>2020-02-29T09:33:17.000Z</time>
      </trkpt>
      <trkpt lat="49.15439" lon="6.62196">
        <ele>257</ele>
        <time>2020-02-29T09:33:27.000Z</time>
      </trkpt>
      <trkpt lat="49.1544" lon="6.62178">
        <ele>257</ele>
        <time>2020-02-29T09:33:37.000Z</time>
      </trkpt>
      <trkpt lat="49.15438" lon="6.62163">
        <ele>259</ele>
        <time>2020-02-29T09:33:47.000Z</time>
      </trkpt>
      <trkpt lat="49.15436" lon="6.62152">
        <ele>259</ele>
        <time>2020-02-29T09:33:57.000Z</time>
      </trkpt>
      <trkpt lat="49.15434" lon="6.62133">
        <ele>260</ele>
        <time>2020-02-29T09:34:07.000Z</time>
      </trkpt>
      <trkpt lat="49.15432" lon="6.62111">
        <ele>261</ele>
        <time>2020-02-29T09:34:17.000Z</time>
      </trkpt>
      <trkpt lat="49.15431" lon="6.62089">
        <ele>261</ele>
        <time>2020-02-29T09:34:27.000Z</time>
      </trkpt>
      <trkpt lat="49.1543" lon="6.62061">
        <ele>263</ele>
        <time>2020-02-29T09:34:37.000Z</time>
      </trkpt>
      <trkpt lat="49.15429" lon="6.62046">
        <ele>264</ele>
        <time>2020-02-29T09:34:47.000Z</time>
      </trkpt>
      <trkpt lat="49.15429" lon="6.62027">
        <ele>264</ele>
        <time>2020-02-29T09:34:57.000Z</time>
      </trkpt>
      <trkpt lat="49.1543" lon="6.62007">
        <ele>265</ele>
        <time>2020-02-29T09:35:07.000Z</time>
      </trkpt>
      <trkpt lat="49.15429" lon="6.6199">
        <ele>266</ele>
        <time>2020-02-29T09:35:17.000Z</time>
      </trkpt>
      <trkpt lat="49.15427" lon="6.61974">
        <ele>267</ele>
        <time>2020-02-29T09:35:27.000Z</time>
      </trkpt>
      <trkpt lat="49.15424" lon="6.61953">
        <ele>268</ele>
        <time>2020-02-29T09:35:37.000Z</time>
      </trkpt>
      <trkpt lat="49.1542" lon="6.61933">
        <ele>269</ele>
        <time>2020-02-29T09:35:47.000Z</time>
      </trkpt>
      <trkpt lat="49.15418" lon="6.61917">
        <ele>269</ele>
        <time>2020-02-29T09:35:57.000Z</time>
      </trkpt>
      <trkpt lat="49.15418" lon="6.61898">
        <ele>271</ele>
        <time>2020-02-29T09:36:07.000Z</time>
      </trkpt>
      <trkpt lat="49.15419" lon="6.61885">
        <ele>271</ele>
        <time>2020-02-29T09:36:17.000Z</time>
      </trkpt>
      <trkpt lat="49.15417" lon="6.61876">
        <ele>272</ele>
        <time>2020-02-29T09:36:27.000Z</time>
      </trkpt>
      <trkpt lat="49.15408" lon="6.61851">
        <ele>276</ele>
        <time>2020-02-29T09:36:37.000Z</time>
      </trkpt>
      <trkpt lat="49.15406" lon="6.61833">
        <ele>275</ele>
        <time>2020-02-29T09:36:47.000Z</time>
      </trkpt>
      <trkpt lat="49.15402" lon="6.6182">
        <ele>277</ele>
        <time>2020-02-29T09:36:57.000Z</time>
      </trkpt>
      <trkpt lat="49.15399" lon="6.61803">
        <ele>278</ele>
        <time>2020-02-29T09:37:07.000Z</time>
      </trkpt>
      <trkpt lat="49.15395" lon="6.61782">
        <ele>279</ele>
        <time>2020-02-29T09:37:17.000Z</time>
      </trkpt>
      <trkpt lat="49.15393" lon="6.61769">
        <ele>279</ele>
        <time>2020-02-29T09:37:27.000Z</time>
      </trkpt>
      <trkpt lat="49.15392" lon="6.61757">
        <ele>279</ele>
        <time>2020-02-29T09:37:37.000Z</time>
      </trkpt>
      <trkpt lat="49.1539" lon="6.61735">
        <ele>280</ele>
        <time>2020-02-29T09:37:47.000Z</time>
      </trkpt>
      <trkpt lat="49.15388" lon="6.61716">
        <ele>281</ele>
        <time>2020-02-29T09:37:57.000Z</time>
      </trkpt>
      <trkpt lat="49.15386" lon="6.61704">
        <ele>281</ele>
        <time>2020-02-29T09:38:07.000Z</time>
      </trkpt>
      <trkpt lat="49.15382" lon="6.6169">
        <ele>282</ele>
        <time>2020-02-29T09:38:17.000Z</time>
      </trkpt>
      <trkpt lat="49.15378" lon="6.61676">
        <ele>282</ele>
        <time>2020-02-29T09:38:27.000Z</time>
      </trkpt>
      <trkpt lat="49.15372" lon="6.61665">
        <ele>286</ele>
        <time>2020-02-29T09:38:37.000Z</time>
      </trkpt>
      <trkpt lat="49.1537" lon="6.61659">
        <ele>287</ele>
        <time>2020-02-29T09:38:47.000Z</time>
      </trkpt>
      <trkpt lat="49.15371" lon="6.61659">
        <ele>287</ele>
        <time>2020-02-29T09:38:57.000Z</time>
      </trkpt>
      <trkpt lat="49.15375" lon="6.61663">
        <ele>286</ele>
        <time>2020-02-29T09:39:43.000Z</time>
      </trkpt>
      <trkpt lat="49.15374" lon="6.6166">
        <ele>286</ele>
        <time>2020-02-29T09:39:53.000Z</time>
      </trkpt>
      <trkpt lat="49.15374" lon="6.61659">
        <ele>286</ele>
        <time>2020-02-29T09:40:03.000Z</time>
      </trkpt>
      <trkpt lat="49.15373" lon="6.6165">
        <ele>287</ele>
        <time>2020-02-29T09:40:13.000Z</time>
      </trkpt>
      <trkpt lat="49.15373" lon="6.61648">
        <ele>287</ele>
        <time>2020-02-29T09:40:23.000Z</time>
      </trkpt>
      <trkpt lat="49.15369" lon="6.61651">
        <ele>287</ele>
        <time>2020-02-29T09:40:33.000Z</time>
      </trkpt>
      <trkpt lat="49.15362" lon="6.61652">
        <ele>288</ele>
        <time>2020-02-29T09:40:43.000Z</time>
      </trkpt>
      <trkpt lat="49.15354" lon="6.61652">
        <ele>288</ele>
        <time>2020-02-29T09:40:53.000Z</time>
      </trkpt>
      <trkpt lat="49.15352" lon="6.61652">
        <ele>288</ele>
        <time>2020-02-29T09:41:03.000Z</time>
      </trkpt>
      <trkpt lat="49.1535" lon="6.6165">
        <ele>288</ele>
        <time>2020-02-29T09:42:19.000Z</time>
      </trkpt>
      <trkpt lat="49.15347" lon="6.61649">
        <ele>289</ele>
        <time>2020-02-29T09:42:29.000Z</time>
      </trkpt>
      <trkpt lat="49.15328" lon="6.61645">
        <ele>298</ele>
        <time>2020-02-29T09:42:39.000Z</time>
      </trkpt>
      <trkpt lat="49.15321" lon="6.61644">
        <ele>299</ele>
        <time>2020-02-29T09:42:49.000Z</time>
      </trkpt>
      <trkpt lat="49.15313" lon="6.6164">
        <ele>300</ele>
        <time>2020-02-29T09:42:59.000Z</time>
      </trkpt>
      <trkpt lat="49.1531" lon="6.61638">
        <ele>301</ele>
        <time>2020-02-29T09:43:09.000Z</time>
      </trkpt>
      <trkpt lat="49.15306" lon="6.61638">
        <ele>301</ele>
        <time>2020-02-29T09:43:19.000Z</time>
      </trkpt>
      <trkpt lat="49.15298" lon="6.61637">
        <ele>303</ele>
        <time>2020-02-29T09:43:29.000Z</time>
      </trkpt>
      <trkpt lat="49.15291" lon="6.61635">
        <ele>304</ele>
        <time>2020-02-29T09:43:39.000Z</time>
      </trkpt>
      <trkpt lat="49.15287" lon="6.61629">
        <ele>304</ele>
        <time>2020-02-29T09:43:49.000Z</time>
      </trkpt>
      <trkpt lat="49.15285" lon="6.61627">
        <ele>305</ele>
        <time>2020-02-29T09:44:25.000Z</time>
      </trkpt>
      <trkpt lat="49.15284" lon="6.61625">
        <ele>305</ele>
        <time>2020-02-29T09:44:38.000Z</time>
      </trkpt>
      <trkpt lat="49.15277" lon="6.6161">
        <ele>306</ele>
        <time>2020-02-29T09:44:48.000Z</time>
      </trkpt>
      <trkpt lat="49.15273" lon="6.61597">
        <ele>308</ele>
        <time>2020-02-29T09:44:58.000Z</time>
      </trkpt>
      <trkpt lat="49.15273" lon="6.61583">
        <ele>311</ele>
        <time>2020-02-29T09:45:08.000Z</time>
      </trkpt>
      <trkpt lat="49.15273" lon="6.61579">
        <ele>311</ele>
        <time>2020-02-29T09:45:18.000Z</time>
      </trkpt>
      <trkpt lat="49.15274" lon="6.61568">
        <ele>310</ele>
        <time>2020-02-29T09:45:28.000Z</time>
      </trkpt>
      <trkpt lat="49.15277" lon="6.61554">
        <ele>310</ele>
        <time>2020-02-29T09:45:38.000Z</time>
      </trkpt>
      <trkpt lat="49.15279" lon="6.61544">
        <ele>309</ele>
        <time>2020-02-29T09:45:48.000Z</time>
      </trkpt>
      <trkpt lat="49.15294" lon="6.61511">
        <ele>309</ele>
        <time>2020-02-29T09:45:58.000Z</time>
      </trkpt>
      <trkpt lat="49.15305" lon="6.61493">
        <ele>311</ele>
        <time>2020-02-29T09:46:08.000Z</time>
      </trkpt>
      <trkpt lat="49.15313" lon="6.61477">
        <ele>310</ele>
        <time>2020-02-29T09:46:18.000Z</time>
      </trkpt>
      <trkpt lat="49.15322" lon="6.61467">
        <ele>311</ele>
        <time>2020-02-29T09:46:28.000Z</time>
      </trkpt>
      <trkpt lat="49.15331" lon="6.61453">
        <ele>311</ele>
        <time>2020-02-29T09:46:38.000Z</time>
      </trkpt>
      <trkpt lat="49.15339" lon="6.61437">
        <ele>307</ele>
        <time>2020-02-29T09:46:48.000Z</time>
      </trkpt>
      <trkpt lat="49.15348" lon="6.61426">
        <ele>308</ele>
        <time>2020-02-29T09:46:58.000Z</time>
      </trkpt>
      <trkpt lat="49.15358" lon="6.61416">
        <ele>310</ele>
        <time>2020-02-29T09:47:08.000Z</time>
      </trkpt>
      <trkpt lat="49.15366" lon="6.61403">
        <ele>310</ele>
        <time>2020-02-29T09:47:18.000Z</time>
      </trkpt>
      <trkpt lat="49.15367" lon="6.61389">
        <ele>311</ele>
        <time>2020-02-29T09:47:28.000Z</time>
      </trkpt>
      <trkpt lat="49.1537" lon="6.6138">
        <ele>311</ele>
        <time>2020-02-29T09:47:38.000Z</time>
      </trkpt>
      <trkpt lat="49.15376" lon="6.61369">
        <ele>311</ele>
        <time>2020-02-29T09:47:48.000Z</time>
      </trkpt>
      <trkpt lat="49.15383" lon="6.61356">
        <ele>311</ele>
        <time>2020-02-29T09:47:58.000Z</time>
      </trkpt>
      <trkpt lat="49.15389" lon="6.61342">
        <ele>311</ele>
        <time>2020-02-29T09:48:08.000Z</time>
      </trkpt>
      <trkpt lat="49.15397" lon="6.61327">
        <ele>313</ele>
        <time>2020-02-29T09:48:18.000Z</time>
      </trkpt>
      <trkpt lat="49.15405" lon="6.61328">
        <ele>312</ele>
        <time>2020-02-29T09:48:28.000Z</time>
      </trkpt>
      <trkpt lat="49.15421" lon="6.61331">
        <ele>311</ele>
        <time>2020-02-29T09:48:38.000Z</time>
      </trkpt>
      <trkpt lat="49.15439" lon="6.61339">
        <ele>311</ele>
        <time>2020-02-29T09:48:48.000Z</time>
      </trkpt>
      <trkpt lat="49.15452" lon="6.61345">
        <ele>311</ele>
        <time>2020-02-29T09:48:58.000Z</time>
      </trkpt>
      <trkpt lat="49.15466" lon="6.61351">
        <ele>311</ele>
        <time>2020-02-29T09:49:08.000Z</time>
      </trkpt>
      <trkpt lat="49.15476" lon="6.61356">
        <ele>311</ele>
        <time>2020-02-29T09:49:18.000Z</time>
      </trkpt>
      <trkpt lat="49.15485" lon="6.61361">
        <ele>311</ele>
        <time>2020-02-29T09:49:28.000Z</time>
      </trkpt>
      <trkpt lat="49.15496" lon="6.6137">
        <ele>311</ele>
        <time>2020-02-29T09:49:38.000Z</time>
      </trkpt>
      <trkpt lat="49.15509" lon="6.61382">
        <ele>312</ele>
        <time>2020-02-29T09:49:48.000Z</time>
      </trkpt>
      <trkpt lat="49.1552" lon="6.61395">
        <ele>312</ele>
        <time>2020-02-29T09:49:58.000Z</time>
      </trkpt>
      <trkpt lat="49.15533" lon="6.61409">
        <ele>312</ele>
        <time>2020-02-29T09:50:08.000Z</time>
      </trkpt>
      <trkpt lat="49.15544" lon="6.61423">
        <ele>312</ele>
        <time>2020-02-29T09:50:18.000Z</time>
      </trkpt>
      <trkpt lat="49.15555" lon="6.61437">
        <ele>312</ele>
        <time>2020-02-29T09:50:28.000Z</time>
      </trkpt>
      <trkpt lat="49.15566" lon="6.61451">
        <ele>312</ele>
        <time>2020-02-29T09:50:38.000Z</time>
      </trkpt>
      <trkpt lat="49.15577" lon="6.61464">
        <ele>311</ele>
        <time>2020-02-29T09:50:48.000Z</time>
      </trkpt>
      <trkpt lat="49.15588" lon="6.61474">
        <ele>311</ele>
        <time>2020-02-29T09:50:58.000Z</time>
      </trkpt>
      <trkpt lat="49.15598" lon="6.61484">
        <ele>311</ele>
        <time>2020-02-29T09:51:08.000Z</time>
      </trkpt>
      <trkpt lat="49.1561" lon="6.61496">
        <ele>311</ele>
        <time>2020-02-29T09:51:18.000Z</time>
      </trkpt>
      <trkpt lat="49.1562" lon="6.61514">
        <ele>313</ele>
        <time>2020-02-29T09:51:28.000Z</time>
      </trkpt>
      <trkpt lat="49.15626" lon="6.61536">
        <ele>314</ele>
        <time>2020-02-29T09:51:38.000Z</time>
      </trkpt>
      <trkpt lat="49.1563" lon="6.61559">
        <ele>314</ele>
        <time>2020-02-29T09:51:48.000Z</time>
      </trkpt>
      <trkpt lat="49.15633" lon="6.61582">
        <ele>315</ele>
        <time>2020-02-29T09:51:58.000Z</time>
      </trkpt>
      <trkpt lat="49.15639" lon="6.61597">
        <ele>318</ele>
        <time>2020-02-29T09:52:08.000Z</time>
      </trkpt>
      <trkpt lat="49.15649" lon="6.61602">
        <ele>319</ele>
        <time>2020-02-29T09:52:18.000Z</time>
      </trkpt>
      <trkpt lat="49.15657" lon="6.61607">
        <ele>319</ele>
        <time>2020-02-29T09:52:28.000Z</time>
      </trkpt>
      <trkpt lat="49.15667" lon="6.61612">
        <ele>325</ele>
        <time>2020-02-29T09:52:38.000Z</time>
      </trkpt>
      <trkpt lat="49.15676" lon="6.61614">
        <ele>326</ele>
        <time>2020-02-29T09:52:48.000Z</time>
      </trkpt>
      <trkpt lat="49.15687" lon="6.61616">
        <ele>326</ele>
        <time>2020-02-29T09:52:58.000Z</time>
      </trkpt>
      <trkpt lat="49.15699" lon="6.6162">
        <ele>327</ele>
        <time>2020-02-29T09:53:08.000Z</time>
      </trkpt>
      <trkpt lat="49.157" lon="6.61622">
        <ele>327</ele>
        <time>2020-02-29T09:53:18.000Z</time>
      </trkpt>
      <trkpt lat="49.15699" lon="6.61618">
        <ele>327</ele>
        <time>2020-02-29T09:53:43.000Z</time>
      </trkpt>
      <trkpt lat="49.15699" lon="6.61619">
        <ele>327</ele>
        <time>2020-02-29T09:54:27.000Z</time>
      </trkpt>
      <trkpt lat="49.15704" lon="6.61615">
        <ele>327</ele>
        <time>2020-02-29T09:54:37.000Z</time>
      </trkpt>
      <trkpt lat="49.15711" lon="6.61608">
        <ele>328</ele>
        <time>2020-02-29T09:54:47.000Z</time>
      </trkpt>
      <trkpt lat="49.15722" lon="6.61595">
        <ele>328</ele>
        <time>2020-02-29T09:54:57.000Z</time>
      </trkpt>
      <trkpt lat="49.15733" lon="6.61583">
        <ele>327</ele>
        <time>2020-02-29T09:55:07.000Z</time>
      </trkpt>
      <trkpt lat="49.15744" lon="6.61573">
        <ele>328</ele>
        <time>2020-02-29T09:55:17.000Z</time>
      </trkpt>
      <trkpt lat="49.15749" lon="6.61567">
        <ele>327</ele>
        <time>2020-02-29T09:55:27.000Z</time>
      </trkpt>
      <trkpt lat="49.15755" lon="6.6156">
        <ele>329</ele>
        <time>2020-02-29T09:55:37.000Z</time>
      </trkpt>
      <trkpt lat="49.15765" lon="6.6154">
        <ele>328</ele>
        <time>2020-02-29T09:55:47.000Z</time>
      </trkpt>
      <trkpt lat="49.15773" lon="6.61523">
        <ele>327</ele>
        <time>2020-02-29T09:55:57.000Z</time>
      </trkpt>
      <trkpt lat="49.15779" lon="6.6151">
        <ele>327</ele>
        <time>2020-02-29T09:56:07.000Z</time>
      </trkpt>
      <trkpt lat="49.15785" lon="6.61491">
        <ele>321</ele>
        <time>2020-02-29T09:56:17.000Z</time>
      </trkpt>
      <trkpt lat="49.15792" lon="6.61472">
        <ele>320</ele>
        <time>2020-02-29T09:56:27.000Z</time>
      </trkpt>
      <trkpt lat="49.15808" lon="6.61457">
        <ele>320</ele>
        <time>2020-02-29T09:56:37.000Z</time>
      </trkpt>
      <trkpt lat="49.15829" lon="6.61439">
        <ele>319</ele>
        <time>2020-02-29T09:56:47.000Z</time>
      </trkpt>
      <trkpt lat="49.15842" lon="6.61435">
        <ele>318</ele>
        <time>2020-02-29T09:56:57.000Z</time>
      </trkpt>
      <trkpt lat="49.15856" lon="6.61432">
        <ele>317</ele>
        <time>2020-02-29T09:57:07.000Z</time>
      </trkpt>
      <trkpt lat="49.15865" lon="6.61441">
        <ele>316</ele>
        <time>2020-02-29T09:57:17.000Z</time>
      </trkpt>
      <trkpt lat="49.15877" lon="6.61445">
        <ele>315</ele>
        <time>2020-02-29T09:57:27.000Z</time>
      </trkpt>
      <trkpt lat="49.15888" lon="6.61447">
        <ele>314</ele>
        <time>2020-02-29T09:57:37.000Z</time>
      </trkpt>
      <trkpt lat="49.15901" lon="6.6145">
        <ele>314</ele>
        <time>2020-02-29T09:57:47.000Z</time>
      </trkpt>
      <trkpt lat="49.15911" lon="6.61453">
        <ele>313</ele>
        <time>2020-02-29T09:57:57.000Z</time>
      </trkpt>
      <trkpt lat="49.15922" lon="6.61459">
        <ele>305</ele>
        <time>2020-02-29T09:58:07.000Z</time>
      </trkpt>
      <trkpt lat="49.15938" lon="6.61463">
        <ele>305</ele>
        <time>2020-02-29T09:58:17.000Z</time>
      </trkpt>
      <trkpt lat="49.15948" lon="6.61467">
        <ele>304</ele>
        <time>2020-02-29T09:58:27.000Z</time>
      </trkpt>
      <trkpt lat="49.15961" lon="6.61473">
        <ele>304</ele>
        <time>2020-02-29T09:58:37.000Z</time>
      </trkpt>
      <trkpt lat="49.15974" lon="6.61483">
        <ele>303</ele>
        <time>2020-02-29T09:58:47.000Z</time>
      </trkpt>
      <trkpt lat="49.15987" lon="6.61496">
        <ele>303</ele>
        <time>2020-02-29T09:58:57.000Z</time>
      </trkpt>
      <trkpt lat="49.16005" lon="6.6151">
        <ele>304</ele>
        <time>2020-02-29T09:59:07.000Z</time>
      </trkpt>
      <trkpt lat="49.16017" lon="6.61519">
        <ele>305</ele>
        <time>2020-02-29T09:59:17.000Z</time>
      </trkpt>
      <trkpt lat="49.16029" lon="6.61528">
        <ele>305</ele>
        <time>2020-02-29T09:59:27.000Z</time>
      </trkpt>
      <trkpt lat="49.16038" lon="6.61532">
        <ele>305</ele>
        <time>2020-02-29T09:59:37.000Z</time>
      </trkpt>
      <trkpt lat="49.16043" lon="6.61539">
        <ele>306</ele>
        <time>2020-02-29T09:59:47.000Z</time>
      </trkpt>
      <trkpt lat="49.16047" lon="6.61541">
        <ele>306</ele>
        <time>2020-02-29T09:59:57.000Z</time>
      </trkpt>
      <trkpt lat="49.16054" lon="6.61537">
        <ele>305</ele>
        <time>2020-02-29T10:00:07.000Z</time>
      </trkpt>
      <trkpt lat="49.16061" lon="6.61529">
        <ele>304</ele>
        <time>2020-02-29T10:00:17.000Z</time>
      </trkpt>
      <trkpt lat="49.16064" lon="6.61532">
        <ele>304</ele>
        <time>2020-02-29T10:00:27.000Z</time>
      </trkpt>
      <trkpt lat="49.16068" lon="6.61534">
        <ele>304</ele>
        <time>2020-02-29T10:00:37.000Z</time>
      </trkpt>
      <trkpt lat="49.16072" lon="6.61537">
        <ele>304</ele>
        <time>2020-02-29T10:00:47.000Z</time>
      </trkpt>
      <trkpt lat="49.16079" lon="6.61527">
        <ele>302</ele>
        <time>2020-02-29T10:00:57.000Z</time>
      </trkpt>
      <trkpt lat="49.16094" lon="6.61504">
        <ele>298</ele>
        <time>2020-02-29T10:01:07.000Z</time>
      </trkpt>
      <trkpt lat="49.161" lon="6.61487">
        <ele>294</ele>
        <time>2020-02-29T10:01:17.000Z</time>
      </trkpt>
      <trkpt lat="49.16103" lon="6.61481">
        <ele>294</ele>
        <time>2020-02-29T10:01:27.000Z</time>
      </trkpt>
      <trkpt lat="49.16102" lon="6.61462">
        <ele>294</ele>
        <time>2020-02-29T10:01:37.000Z</time>
      </trkpt>
      <trkpt lat="49.16104" lon="6.61441">
        <ele>293</ele>
        <time>2020-02-29T10:01:47.000Z</time>
      </trkpt>
      <trkpt lat="49.16103" lon="6.61428">
        <ele>292</ele>
        <time>2020-02-29T10:01:57.000Z</time>
      </trkpt>
      <trkpt lat="49.16102" lon="6.6142">
        <ele>292</ele>
        <time>2020-02-29T10:02:07.000Z</time>
      </trkpt>
      <trkpt lat="49.16103" lon="6.61412">
        <ele>288</ele>
        <time>2020-02-29T10:02:17.000Z</time>
      </trkpt>
      <trkpt lat="49.161" lon="6.61399">
        <ele>288</ele>
        <time>2020-02-29T10:02:27.000Z</time>
      </trkpt>
      <trkpt lat="49.16097" lon="6.61385">
        <ele>287</ele>
        <time>2020-02-29T10:02:37.000Z</time>
      </trkpt>
      <trkpt lat="49.16093" lon="6.61369">
        <ele>286</ele>
        <time>2020-02-29T10:02:47.000Z</time>
      </trkpt>
      <trkpt lat="49.16087" lon="6.61351">
        <ele>285</ele>
        <time>2020-02-29T10:02:57.000Z</time>
      </trkpt>
      <trkpt lat="49.16085" lon="6.6134">
        <ele>284</ele>
        <time>2020-02-29T10:03:07.000Z</time>
      </trkpt>
      <trkpt lat="49.16083" lon="6.61334">
        <ele>283</ele>
        <time>2020-02-29T10:03:17.000Z</time>
      </trkpt>
      <trkpt lat="49.16081" lon="6.61326">
        <ele>281</ele>
        <time>2020-02-29T10:03:27.000Z</time>
      </trkpt>
      <trkpt lat="49.16085" lon="6.61311">
        <ele>279</ele>
        <time>2020-02-29T10:03:37.000Z</time>
      </trkpt>
      <trkpt lat="49.16083" lon="6.61299">
        <ele>276</ele>
        <time>2020-02-29T10:03:47.000Z</time>
      </trkpt>
      <trkpt lat="49.16082" lon="6.61297">
        <ele>276</ele>
        <time>2020-02-29T10:03:57.000Z</time>
      </trkpt>
      <trkpt lat="49.1608" lon="6.61291">
        <ele>275</ele>
        <time>2020-02-29T10:04:07.000Z</time>
      </trkpt>
      <trkpt lat="49.1608" lon="6.61289">
        <ele>275</ele>
        <time>2020-02-29T10:04:17.000Z</time>
      </trkpt>
      <trkpt lat="49.1608" lon="6.61287">
        <ele>274</ele>
        <time>2020-02-29T10:04:42.000Z</time>
      </trkpt>
      <trkpt lat="49.16082" lon="6.61274">
        <ele>273</ele>
        <time>2020-02-29T10:04:52.000Z</time>
      </trkpt>
      <trkpt lat="49.16079" lon="6.61264">
        <ele>273</ele>
        <time>2020-02-29T10:05:02.000Z</time>
      </trkpt>
      <trkpt lat="49.16074" lon="6.61251">
        <ele>272</ele>
        <time>2020-02-29T10:05:12.000Z</time>
      </trkpt>
      <trkpt lat="49.16062" lon="6.61235">
        <ele>265</ele>
        <time>2020-02-29T10:05:22.000Z</time>
      </trkpt>
      <trkpt lat="49.16055" lon="6.61229">
        <ele>263</ele>
        <time>2020-02-29T10:05:32.000Z</time>
      </trkpt>
      <trkpt lat="49.16038" lon="6.61215">
        <ele>261</ele>
        <time>2020-02-29T10:05:42.000Z</time>
      </trkpt>
      <trkpt lat="49.16024" lon="6.61197">
        <ele>259</ele>
        <time>2020-02-29T10:05:52.000Z</time>
      </trkpt>
      <trkpt lat="49.16022" lon="6.61168">
        <ele>256</ele>
        <time>2020-02-29T10:06:02.000Z</time>
      </trkpt>
      <trkpt lat="49.16025" lon="6.61142">
        <ele>253</ele>
        <time>2020-02-29T10:06:12.000Z</time>
      </trkpt>
      <trkpt lat="49.16028" lon="6.61118">
        <ele>253</ele>
        <time>2020-02-29T10:06:22.000Z</time>
      </trkpt>
      <trkpt lat="49.16031" lon="6.61109">
        <ele>253</ele>
        <time>2020-02-29T10:06:32.000Z</time>
      </trkpt>
      <trkpt lat="49.16033" lon="6.61111">
        <ele>253</ele>
        <time>2020-02-29T10:06:42.000Z</time>
      </trkpt>
      <trkpt lat="49.16037" lon="6.61101">
        <ele>253</ele>
        <time>2020-02-29T10:06:52.000Z</time>
      </trkpt>
      <trkpt lat="49.16039" lon="6.61099">
        <ele>253</ele>
        <time>2020-02-29T10:07:14.000Z</time>
      </trkpt>
      <trkpt lat="49.16039" lon="6.61086">
        <ele>252</ele>
        <time>2020-02-29T10:07:24.000Z</time>
      </trkpt>
      <trkpt lat="49.16041" lon="6.61072">
        <ele>254</ele>
        <time>2020-02-29T10:07:34.000Z</time>
      </trkpt>
      <trkpt lat="49.16048" lon="6.6105">
        <ele>255</ele>
        <time>2020-02-29T10:07:44.000Z</time>
      </trkpt>
      <trkpt lat="49.16054" lon="6.61041">
        <ele>255</ele>
        <time>2020-02-29T10:07:54.000Z</time>
      </trkpt>
      <trkpt lat="49.16046" lon="6.61037">
        <ele>256</ele>
        <time>2020-02-29T10:08:04.000Z</time>
      </trkpt>
      <trkpt lat="49.16045" lon="6.61029">
        <ele>256</ele>
        <time>2020-02-29T10:08:14.000Z</time>
      </trkpt>
      <trkpt lat="49.16045" lon="6.61022">
        <ele>256</ele>
        <time>2020-02-29T10:08:24.000Z</time>
      </trkpt>
      <trkpt lat="49.16043" lon="6.6101">
        <ele>257</ele>
        <time>2020-02-29T10:08:34.000Z</time>
      </trkpt>
      <trkpt lat="49.16039" lon="6.60989">
        <ele>263</ele>
        <time>2020-02-29T10:08:44.000Z</time>
      </trkpt>
      <trkpt lat="49.16039" lon="6.60966">
        <ele>265</ele>
        <time>2020-02-29T10:08:54.000Z</time>
      </trkpt>
      <trkpt lat="49.1604" lon="6.60958">
        <ele>265</ele>
        <time>2020-02-29T10:09:04.000Z</time>
      </trkpt>
      <trkpt lat="49.16044" lon="6.60938">
        <ele>266</ele>
        <time>2020-02-29T10:09:14.000Z</time>
      </trkpt>
      <trkpt lat="49.16047" lon="6.60921">
        <ele>267</ele>
        <time>2020-02-29T10:09:24.000Z</time>
      </trkpt>
      <trkpt lat="49.16048" lon="6.60909">
        <ele>274</ele>
        <time>2020-02-29T10:09:34.000Z</time>
      </trkpt>
      <trkpt lat="49.1605" lon="6.60895">
        <ele>275</ele>
        <time>2020-02-29T10:09:44.000Z</time>
      </trkpt>
      <trkpt lat="49.16051" lon="6.6088">
        <ele>276</ele>
        <time>2020-02-29T10:09:54.000Z</time>
      </trkpt>
      <trkpt lat="49.1605" lon="6.60864">
        <ele>277</ele>
        <time>2020-02-29T10:10:04.000Z</time>
      </trkpt>
      <trkpt lat="49.1605" lon="6.60848">
        <ele>278</ele>
        <time>2020-02-29T10:10:14.000Z</time>
      </trkpt>
      <trkpt lat="49.16048" lon="6.60832">
        <ele>285</ele>
        <time>2020-02-29T10:10:24.000Z</time>
      </trkpt>
      <trkpt lat="49.16046" lon="6.60812">
        <ele>285</ele>
        <time>2020-02-29T10:10:34.000Z</time>
      </trkpt>
      <trkpt lat="49.16045" lon="6.60795">
        <ele>286</ele>
        <time>2020-02-29T10:10:44.000Z</time>
      </trkpt>
      <trkpt lat="49.16046" lon="6.60779">
        <ele>287</ele>
        <time>2020-02-29T10:10:54.000Z</time>
      </trkpt>
      <trkpt lat="49.16045" lon="6.60769">
        <ele>288</ele>
        <time>2020-02-29T10:11:04.000Z</time>
      </trkpt>
      <trkpt lat="49.16047" lon="6.60759">
        <ele>288</ele>
        <time>2020-02-29T10:11:14.000Z</time>
      </trkpt>
      <trkpt lat="49.16049" lon="6.60745">
        <ele>295</ele>
        <time>2020-02-29T10:11:24.000Z</time>
      </trkpt>
      <trkpt lat="49.16049" lon="6.60725">
        <ele>296</ele>
        <time>2020-02-29T10:11:34.000Z</time>
      </trkpt>
      <trkpt lat="49.16047" lon="6.60711">
        <ele>297</ele>
        <time>2020-02-29T10:11:44.000Z</time>
      </trkpt>
      <trkpt lat="49.16047" lon="6.60702">
        <ele>298</ele>
        <time>2020-02-29T10:11:54.000Z</time>
      </trkpt>
      <trkpt lat="49.16048" lon="6.60694">
        <ele>299</ele>
        <time>2020-02-29T10:12:04.000Z</time>
      </trkpt>
      <trkpt lat="49.16051" lon="6.60681">
        <ele>300</ele>
        <time>2020-02-29T10:12:14.000Z</time>
      </trkpt>
      <trkpt lat="49.16053" lon="6.60664">
        <ele>307</ele>
        <time>2020-02-29T10:12:24.000Z</time>
      </trkpt>
      <trkpt lat="49.16054" lon="6.60652">
        <ele>308</ele>
        <time>2020-02-29T10:12:34.000Z</time>
      </trkpt>
      <trkpt lat="49.16054" lon="6.60641">
        <ele>308</ele>
        <time>2020-02-29T10:12:44.000Z</time>
      </trkpt>
      <trkpt lat="49.16053" lon="6.60632">
        <ele>309</ele>
        <time>2020-02-29T10:12:54.000Z</time>
      </trkpt>
      <trkpt lat="49.16052" lon="6.6062">
        <ele>309</ele>
        <time>2020-02-29T10:13:04.000Z</time>
      </trkpt>
      <trkpt lat="49.16052" lon="6.606">
        <ele>311</ele>
        <time>2020-02-29T10:13:14.000Z</time>
      </trkpt>
      <trkpt lat="49.16053" lon="6.60576">
        <ele>317</ele>
        <time>2020-02-29T10:13:24.000Z</time>
      </trkpt>
      <trkpt lat="49.16058" lon="6.60551">
        <ele>317</ele>
        <time>2020-02-29T10:13:34.000Z</time>
      </trkpt>
      <trkpt lat="49.16061" lon="6.60532">
        <ele>319</ele>
        <time>2020-02-29T10:13:44.000Z</time>
      </trkpt>
      <trkpt lat="49.16064" lon="6.60516">
        <ele>320</ele>
        <time>2020-02-29T10:13:54.000Z</time>
      </trkpt>
      <trkpt lat="49.16068" lon="6.60499">
        <ele>322</ele>
        <time>2020-02-29T10:14:04.000Z</time>
      </trkpt>
      <trkpt lat="49.16073" lon="6.60483">
        <ele>322</ele>
        <time>2020-02-29T10:14:14.000Z</time>
      </trkpt>
      <trkpt lat="49.16081" lon="6.60468">
        <ele>322</ele>
        <time>2020-02-29T10:14:24.000Z</time>
      </trkpt>
      <trkpt lat="49.16089" lon="6.60452">
        <ele>326</ele>
        <time>2020-02-29T10:14:34.000Z</time>
      </trkpt>
      <trkpt lat="49.16094" lon="6.60449">
        <ele>326</ele>
        <time>2020-02-29T10:14:44.000Z</time>
      </trkpt>
      <trkpt lat="49.16104" lon="6.60444">
        <ele>326</ele>
        <time>2020-02-29T10:14:54.000Z</time>
      </trkpt>
      <trkpt lat="49.16124" lon="6.60432">
        <ele>327</ele>
        <time>2020-02-29T10:15:04.000Z</time>
      </trkpt>
      <trkpt lat="49.16137" lon="6.60423">
        <ele>328</ele>
        <time>2020-02-29T10:15:14.000Z</time>
      </trkpt>
      <trkpt lat="49.1615" lon="6.60418">
        <ele>329</ele>
        <time>2020-02-29T10:15:24.000Z</time>
      </trkpt>
      <trkpt lat="49.16165" lon="6.60416">
        <ele>331</ele>
        <time>2020-02-29T10:15:34.000Z</time>
      </trkpt>
      <trkpt lat="49.16177" lon="6.60417">
        <ele>330</ele>
        <time>2020-02-29T10:15:44.000Z</time>
      </trkpt>
      <trkpt lat="49.16191" lon="6.60426">
        <ele>329</ele>
        <time>2020-02-29T10:15:54.000Z</time>
      </trkpt>
      <trkpt lat="49.16204" lon="6.6043">
        <ele>328</ele>
        <time>2020-02-29T10:16:04.000Z</time>
      </trkpt>
      <trkpt lat="49.1622" lon="6.60436">
        <ele>327</ele>
        <time>2020-02-29T10:16:14.000Z</time>
      </trkpt>
      <trkpt lat="49.16232" lon="6.60441">
        <ele>327</ele>
        <time>2020-02-29T10:16:24.000Z</time>
      </trkpt>
      <trkpt lat="49.16246" lon="6.60444">
        <ele>327</ele>
        <time>2020-02-29T10:16:34.000Z</time>
      </trkpt>
      <trkpt lat="49.16259" lon="6.60448">
        <ele>326</ele>
        <time>2020-02-29T10:16:44.000Z</time>
      </trkpt>
      <trkpt lat="49.16273" lon="6.60451">
        <ele>326</ele>
        <time>2020-02-29T10:16:54.000Z</time>
      </trkpt>
      <trkpt lat="49.16287" lon="6.60458">
        <ele>326</ele>
        <time>2020-02-29T10:17:04.000Z</time>
      </trkpt>
      <trkpt lat="49.16301" lon="6.60467">
        <ele>326</ele>
        <time>2020-02-29T10:17:14.000Z</time>
      </trkpt>
      <trkpt lat="49.16315" lon="6.60474">
        <ele>327</ele>
        <time>2020-02-29T10:17:24.000Z</time>
      </trkpt>
      <trkpt lat="49.16325" lon="6.60479">
        <ele>327</ele>
        <time>2020-02-29T10:17:34.000Z</time>
      </trkpt>
      <trkpt lat="49.16338" lon="6.60486">
        <ele>328</ele>
        <time>2020-02-29T10:17:44.000Z</time>
      </trkpt>
      <trkpt lat="49.1635" lon="6.60489">
        <ele>329</ele>
        <time>2020-02-29T10:17:54.000Z</time>
      </trkpt>
      <trkpt lat="49.16365" lon="6.60493">
        <ele>329</ele>
        <time>2020-02-29T10:18:04.000Z</time>
      </trkpt>
      <trkpt lat="49.16379" lon="6.60496">
        <ele>330</ele>
        <time>2020-02-29T10:18:14.000Z</time>
      </trkpt>
      <trkpt lat="49.16392" lon="6.60499">
        <ele>331</ele>
        <time>2020-02-29T10:18:24.000Z</time>
      </trkpt>
      <trkpt lat="49.1641" lon="6.60505">
        <ele>333</ele>
        <time>2020-02-29T10:18:34.000Z</time>
      </trkpt>
      <trkpt lat="49.1642" lon="6.60506">
        <ele>333</ele>
        <time>2020-02-29T10:18:44.000Z</time>
      </trkpt>
      <trkpt lat="49.1643" lon="6.60504">
        <ele>333</ele>
        <time>2020-02-29T10:18:54.000Z</time>
      </trkpt>
      <trkpt lat="49.16444" lon="6.60505">
        <ele>334</ele>
        <time>2020-02-29T10:19:04.000Z</time>
      </trkpt>
      <trkpt lat="49.16457" lon="6.60506">
        <ele>333</ele>
        <time>2020-02-29T10:19:14.000Z</time>
      </trkpt>
      <trkpt lat="49.16472" lon="6.60508">
        <ele>333</ele>
        <time>2020-02-29T10:19:24.000Z</time>
      </trkpt>
      <trkpt lat="49.16483" lon="6.60503">
        <ele>333</ele>
        <time>2020-02-29T10:19:34.000Z</time>
      </trkpt>
      <trkpt lat="49.16494" lon="6.60495">
        <ele>332</ele>
        <time>2020-02-29T10:19:44.000Z</time>
      </trkpt>
      <trkpt lat="49.16505" lon="6.60483">
        <ele>328</ele>
        <time>2020-02-29T10:19:54.000Z</time>
      </trkpt>
      <trkpt lat="49.16513" lon="6.60472">
        <ele>327</ele>
        <time>2020-02-29T10:20:04.000Z</time>
      </trkpt>
      <trkpt lat="49.16519" lon="6.6046">
        <ele>326</ele>
        <time>2020-02-29T10:20:14.000Z</time>
      </trkpt>
      <trkpt lat="49.16521" lon="6.60446">
        <ele>326</ele>
        <time>2020-02-29T10:20:24.000Z</time>
      </trkpt>
      <trkpt lat="49.1652" lon="6.60429">
        <ele>327</ele>
        <time>2020-02-29T10:20:34.000Z</time>
      </trkpt>
      <trkpt lat="49.16521" lon="6.60413">
        <ele>325</ele>
        <time>2020-02-29T10:20:44.000Z</time>
      </trkpt>
      <trkpt lat="49.16524" lon="6.60395">
        <ele>324</ele>
        <time>2020-02-29T10:20:54.000Z</time>
      </trkpt>
      <trkpt lat="49.16524" lon="6.60377">
        <ele>323</ele>
        <time>2020-02-29T10:21:04.000Z</time>
      </trkpt>
      <trkpt lat="49.16525" lon="6.60361">
        <ele>323</ele>
        <time>2020-02-29T10:21:14.000Z</time>
      </trkpt>
      <trkpt lat="49.16528" lon="6.60345">
        <ele>322</ele>
        <time>2020-02-29T10:21:24.000Z</time>
      </trkpt>
      <trkpt lat="49.16538" lon="6.60323">
        <ele>314</ele>
        <time>2020-02-29T10:21:34.000Z</time>
      </trkpt>
      <trkpt lat="49.16547" lon="6.60307">
        <ele>311</ele>
        <time>2020-02-29T10:21:44.000Z</time>
      </trkpt>
      <trkpt lat="49.16549" lon="6.60306">
        <ele>311</ele>
        <time>2020-02-29T10:21:54.000Z</time>
      </trkpt>
      <trkpt lat="49.16556" lon="6.60304">
        <ele>310</ele>
        <time>2020-02-29T10:22:31.000Z</time>
      </trkpt>
      <trkpt lat="49.16553" lon="6.60296">
        <ele>310</ele>
        <time>2020-02-29T10:22:41.000Z</time>
      </trkpt>
      <trkpt lat="49.16549" lon="6.60288">
        <ele>309</ele>
        <time>2020-02-29T10:22:51.000Z</time>
      </trkpt>
      <trkpt lat="49.16541" lon="6.60273">
        <ele>310</ele>
        <time>2020-02-29T10:23:01.000Z</time>
      </trkpt>
      <trkpt lat="49.16538" lon="6.60254">
        <ele>310</ele>
        <time>2020-02-29T10:23:11.000Z</time>
      </trkpt>
      <trkpt lat="49.16533" lon="6.6024">
        <ele>301</ele>
        <time>2020-02-29T10:23:21.000Z</time>
      </trkpt>
      <trkpt lat="49.16526" lon="6.60226">
        <ele>301</ele>
        <time>2020-02-29T10:23:31.000Z</time>
      </trkpt>
      <trkpt lat="49.16516" lon="6.60209">
        <ele>300</ele>
        <time>2020-02-29T10:23:41.000Z</time>
      </trkpt>
      <trkpt lat="49.16508" lon="6.60191">
        <ele>299</ele>
        <time>2020-02-29T10:23:51.000Z</time>
      </trkpt>
      <trkpt lat="49.165" lon="6.60172">
        <ele>301</ele>
        <time>2020-02-29T10:24:01.000Z</time>
      </trkpt>
      <trkpt lat="49.16494" lon="6.60156">
        <ele>298</ele>
        <time>2020-02-29T10:24:11.000Z</time>
      </trkpt>
      <trkpt lat="49.16487" lon="6.60137">
        <ele>294</ele>
        <time>2020-02-29T10:24:21.000Z</time>
      </trkpt>
      <trkpt lat="49.16482" lon="6.60122">
        <ele>291</ele>
        <time>2020-02-29T10:24:31.000Z</time>
      </trkpt>
      <trkpt lat="49.16481" lon="6.60114">
        <ele>289</ele>
        <time>2020-02-29T10:24:41.000Z</time>
      </trkpt>
      <trkpt lat="49.16481" lon="6.60113">
        <ele>289</ele>
        <time>2020-02-29T10:24:52.000Z</time>
      </trkpt>
      <trkpt lat="49.16473" lon="6.6009">
        <ele>286</ele>
        <time>2020-02-29T10:25:02.000Z</time>
      </trkpt>
      <trkpt lat="49.16465" lon="6.60087">
        <ele>288</ele>
        <time>2020-02-29T10:25:12.000Z</time>
      </trkpt>
      <trkpt lat="49.16457" lon="6.60082">
        <ele>274</ele>
        <time>2020-02-29T10:25:22.000Z</time>
      </trkpt>
      <trkpt lat="49.16452" lon="6.60076">
        <ele>275</ele>
        <time>2020-02-29T10:25:32.000Z</time>
      </trkpt>
      <trkpt lat="49.16446" lon="6.60065">
        <ele>274</ele>
        <time>2020-02-29T10:25:42.000Z</time>
      </trkpt>
      <trkpt lat="49.16433" lon="6.60049">
        <ele>273</ele>
        <time>2020-02-29T10:25:52.000Z</time>
      </trkpt>
      <trkpt lat="49.16425" lon="6.60038">
        <ele>271</ele>
        <time>2020-02-29T10:26:02.000Z</time>
      </trkpt>
      <trkpt lat="49.16414" lon="6.60024">
        <ele>270</ele>
        <time>2020-02-29T10:26:12.000Z</time>
      </trkpt>
      <trkpt lat="49.16401" lon="6.6001">
        <ele>268</ele>
        <time>2020-02-29T10:26:22.000Z</time>
      </trkpt>
      <trkpt lat="49.16384" lon="6.6">
        <ele>261</ele>
        <time>2020-02-29T10:26:32.000Z</time>
      </trkpt>
      <trkpt lat="49.16375" lon="6.5998">
        <ele>261</ele>
        <time>2020-02-29T10:26:42.000Z</time>
      </trkpt>
      <trkpt lat="49.1637" lon="6.59952">
        <ele>260</ele>
        <time>2020-02-29T10:26:52.000Z</time>
      </trkpt>
      <trkpt lat="49.16364" lon="6.59932">
        <ele>259</ele>
        <time>2020-02-29T10:27:02.000Z</time>
      </trkpt>
      <trkpt lat="49.16357" lon="6.59915">
        <ele>258</ele>
        <time>2020-02-29T10:27:12.000Z</time>
      </trkpt>
      <trkpt lat="49.16354" lon="6.59897">
        <ele>258</ele>
        <time>2020-02-29T10:27:22.000Z</time>
      </trkpt>
      <trkpt lat="49.16353" lon="6.59878">
        <ele>259</ele>
        <time>2020-02-29T10:27:32.000Z</time>
      </trkpt>
      <trkpt lat="49.16356" lon="6.59855">
        <ele>260</ele>
        <time>2020-02-29T10:27:42.000Z</time>
      </trkpt>
      <trkpt lat="49.16363" lon="6.59839">
        <ele>260</ele>
        <time>2020-02-29T10:27:52.000Z</time>
      </trkpt>
      <trkpt lat="49.16376" lon="6.59835">
        <ele>260</ele>
        <time>2020-02-29T10:28:02.000Z</time>
      </trkpt>
      <trkpt lat="49.16387" lon="6.59836">
        <ele>260</ele>
        <time>2020-02-29T10:28:12.000Z</time>
      </trkpt>
      <trkpt lat="49.16392" lon="6.59832">
        <ele>264</ele>
        <time>2020-02-29T10:28:22.000Z</time>
      </trkpt>
      <trkpt lat="49.1639" lon="6.59834">
        <ele>260</ele>
        <time>2020-02-29T10:28:32.000Z</time>
      </trkpt>
      <trkpt lat="49.16388" lon="6.59837">
        <ele>260</ele>
        <time>2020-02-29T10:28:42.000Z</time>
      </trkpt>
      <trkpt lat="49.16385" lon="6.59837">
        <ele>260</ele>
        <time>2020-02-29T10:28:52.000Z</time>
      </trkpt>
      <trkpt lat="49.16391" lon="6.59839">
        <ele>260</ele>
        <time>2020-02-29T10:29:02.000Z</time>
      </trkpt>
      <trkpt lat="49.16405" lon="6.59845">
        <ele>260</ele>
        <time>2020-02-29T10:29:12.000Z</time>
      </trkpt>
      <trkpt lat="49.16417" lon="6.5985">
        <ele>261</ele>
        <time>2020-02-29T10:29:22.000Z</time>
      </trkpt>
      <trkpt lat="49.16431" lon="6.59859">
        <ele>262</ele>
        <time>2020-02-29T10:29:32.000Z</time>
      </trkpt>
      <trkpt lat="49.16443" lon="6.59868">
        <ele>262</ele>
        <time>2020-02-29T10:29:42.000Z</time>
      </trkpt>
      <trkpt lat="49.16453" lon="6.59877">
        <ele>262</ele>
        <time>2020-02-29T10:29:52.000Z</time>
      </trkpt>
      <trkpt lat="49.16465" lon="6.59889">
        <ele>262</ele>
        <time>2020-02-29T10:30:02.000Z</time>
      </trkpt>
      <trkpt lat="49.16481" lon="6.59903">
        <ele>262</ele>
        <time>2020-02-29T10:30:12.000Z</time>
      </trkpt>
      <trkpt lat="49.16492" lon="6.59914">
        <ele>261</ele>
        <time>2020-02-29T10:30:22.000Z</time>
      </trkpt>
      <trkpt lat="49.16509" lon="6.59929">
        <ele>261</ele>
        <time>2020-02-29T10:30:32.000Z</time>
      </trkpt>
      <trkpt lat="49.16522" lon="6.59945">
        <ele>262</ele>
        <time>2020-02-29T10:30:42.000Z</time>
      </trkpt>
      <trkpt lat="49.16537" lon="6.59954">
        <ele>262</ele>
        <time>2020-02-29T10:30:52.000Z</time>
      </trkpt>
      <trkpt lat="49.16551" lon="6.59962">
        <ele>262</ele>
        <time>2020-02-29T10:31:02.000Z</time>
      </trkpt>
      <trkpt lat="49.16561" lon="6.59973">
        <ele>262</ele>
        <time>2020-02-29T10:31:12.000Z</time>
      </trkpt>
      <trkpt lat="49.1657" lon="6.59983">
        <ele>261</ele>
        <time>2020-02-29T10:31:22.000Z</time>
      </trkpt>
      <trkpt lat="49.1658" lon="6.59993">
        <ele>259</ele>
        <time>2020-02-29T10:31:32.000Z</time>
      </trkpt>
      <trkpt lat="49.16585" lon="6.60009">
        <ele>258</ele>
        <time>2020-02-29T10:31:42.000Z</time>
      </trkpt>
      <trkpt lat="49.16585" lon="6.60013">
        <ele>258</ele>
        <time>2020-02-29T10:31:52.000Z</time>
      </trkpt>
      <trkpt lat="49.16587" lon="6.60015">
        <ele>258</ele>
        <time>2020-02-29T10:32:08.000Z</time>
      </trkpt>
      <trkpt lat="49.16599" lon="6.60018">
        <ele>258</ele>
        <time>2020-02-29T10:32:18.000Z</time>
      </trkpt>
      <trkpt lat="49.1661" lon="6.60022">
        <ele>258</ele>
        <time>2020-02-29T10:32:28.000Z</time>
      </trkpt>
      <trkpt lat="49.16625" lon="6.60028">
        <ele>259</ele>
        <time>2020-02-29T10:32:38.000Z</time>
      </trkpt>
      <trkpt lat="49.1664" lon="6.60036">
        <ele>259</ele>
        <time>2020-02-29T10:32:48.000Z</time>
      </trkpt>
      <trkpt lat="49.16651" lon="6.60044">
        <ele>258</ele>
        <time>2020-02-29T10:32:58.000Z</time>
      </trkpt>
      <trkpt lat="49.16662" lon="6.6005">
        <ele>258</ele>
        <time>2020-02-29T10:33:08.000Z</time>
      </trkpt>
      <trkpt lat="49.1667" lon="6.60056">
        <ele>256</ele>
        <time>2020-02-29T10:33:18.000Z</time>
      </trkpt>
      <trkpt lat="49.16682" lon="6.60064">
        <ele>256</ele>
        <time>2020-02-29T10:33:28.000Z</time>
      </trkpt>
      <trkpt lat="49.16693" lon="6.60067">
        <ele>256</ele>
        <time>2020-02-29T10:33:38.000Z</time>
      </trkpt>
      <trkpt lat="49.16693" lon="6.60073">
        <ele>256</ele>
        <time>2020-02-29T10:33:48.000Z</time>
      </trkpt>
      <trkpt lat="49.16699" lon="6.60089">
        <ele>252</ele>
        <time>2020-02-29T10:33:58.000Z</time>
      </trkpt>
      <trkpt lat="49.16707" lon="6.60117">
        <ele>252</ele>
        <time>2020-02-29T10:34:08.000Z</time>
      </trkpt>
      <trkpt lat="49.16719" lon="6.60128">
        <ele>252</ele>
        <time>2020-02-29T10:34:18.000Z</time>
      </trkpt>
      <trkpt lat="49.16728" lon="6.60125">
        <ele>252</ele>
        <time>2020-02-29T10:34:28.000Z</time>
      </trkpt>
      <trkpt lat="49.16737" lon="6.60123">
        <ele>252</ele>
        <time>2020-02-29T10:34:38.000Z</time>
      </trkpt>
      <trkpt lat="49.16749" lon="6.60117">
        <ele>252</ele>
        <time>2020-02-29T10:34:48.000Z</time>
      </trkpt>
      <trkpt lat="49.16761" lon="6.60111">
        <ele>254</ele>
        <time>2020-02-29T10:34:58.000Z</time>
      </trkpt>
      <trkpt lat="49.16775" lon="6.60106">
        <ele>255</ele>
        <time>2020-02-29T10:35:08.000Z</time>
      </trkpt>
      <trkpt lat="49.16787" lon="6.60106">
        <ele>255</ele>
        <time>2020-02-29T10:35:18.000Z</time>
      </trkpt>
      <trkpt lat="49.168" lon="6.60109">
        <ele>256</ele>
        <time>2020-02-29T10:35:28.000Z</time>
      </trkpt>
      <trkpt lat="49.16816" lon="6.60111">
        <ele>257</ele>
        <time>2020-02-29T10:35:38.000Z</time>
      </trkpt>
      <trkpt lat="49.16826" lon="6.60112">
        <ele>257</ele>
        <time>2020-02-29T10:35:48.000Z</time>
      </trkpt>
      <trkpt lat="49.16836" lon="6.60112">
        <ele>269</ele>
        <time>2020-02-29T10:35:58.000Z</time>
      </trkpt>
      <trkpt lat="49.16846" lon="6.60111">
        <ele>271</ele>
        <time>2020-02-29T10:36:08.000Z</time>
      </trkpt>
      <trkpt lat="49.16853" lon="6.60106">
        <ele>271</ele>
        <time>2020-02-29T10:36:18.000Z</time>
      </trkpt>
      <trkpt lat="49.16859" lon="6.60102">
        <ele>272</ele>
        <time>2020-02-29T10:36:28.000Z</time>
      </trkpt>
      <trkpt lat="49.16861" lon="6.60093">
        <ele>272</ele>
        <time>2020-02-29T10:36:38.000Z</time>
      </trkpt>
      <trkpt lat="49.16868" lon="6.60088">
        <ele>274</ele>
        <time>2020-02-29T10:36:48.000Z</time>
      </trkpt>
      <trkpt lat="49.16877" lon="6.60086">
        <ele>277</ele>
        <time>2020-02-29T10:36:58.000Z</time>
      </trkpt>
      <trkpt lat="49.16882" lon="6.60095">
        <ele>279</ele>
        <time>2020-02-29T10:37:08.000Z</time>
      </trkpt>
      <trkpt lat="49.1689" lon="6.60101">
        <ele>280</ele>
        <time>2020-02-29T10:37:18.000Z</time>
      </trkpt>
      <trkpt lat="49.16896" lon="6.60112">
        <ele>281</ele>
        <time>2020-02-29T10:37:28.000Z</time>
      </trkpt>
      <trkpt lat="49.169" lon="6.6012">
        <ele>282</ele>
        <time>2020-02-29T10:37:38.000Z</time>
      </trkpt>
      <trkpt lat="49.16903" lon="6.60135">
        <ele>282</ele>
        <time>2020-02-29T10:37:48.000Z</time>
      </trkpt>
      <trkpt lat="49.169" lon="6.60148">
        <ele>283</ele>
        <time>2020-02-29T10:37:58.000Z</time>
      </trkpt>
      <trkpt lat="49.16894" lon="6.60167">
        <ele>283</ele>
        <time>2020-02-29T10:38:08.000Z</time>
      </trkpt>
      <trkpt lat="49.16889" lon="6.60189">
        <ele>281</ele>
        <time>2020-02-29T10:38:18.000Z</time>
      </trkpt>
      <trkpt lat="49.16888" lon="6.60202">
        <ele>280</ele>
        <time>2020-02-29T10:38:28.000Z</time>
      </trkpt>
      <trkpt lat="49.16888" lon="6.60217">
        <ele>280</ele>
        <time>2020-02-29T10:38:38.000Z</time>
      </trkpt>
      <trkpt lat="49.16889" lon="6.60228">
        <ele>280</ele>
        <time>2020-02-29T10:38:48.000Z</time>
      </trkpt>
      <trkpt lat="49.16889" lon="6.60236">
        <ele>281</ele>
        <time>2020-02-29T10:38:58.000Z</time>
      </trkpt>
      <trkpt lat="49.16891" lon="6.60248">
        <ele>282</ele>
        <time>2020-02-29T10:39:08.000Z</time>
      </trkpt>
      <trkpt lat="49.16895" lon="6.60264">
        <ele>281</ele>
        <time>2020-02-29T10:39:18.000Z</time>
      </trkpt>
      <trkpt lat="49.16901" lon="6.60288">
        <ele>279</ele>
        <time>2020-02-29T10:39:28.000Z</time>
      </trkpt>
      <trkpt lat="49.16904" lon="6.603">
        <ele>280</ele>
        <time>2020-02-29T10:39:38.000Z</time>
      </trkpt>
      <trkpt lat="49.16912" lon="6.60322">
        <ele>285</ele>
        <time>2020-02-29T10:39:48.000Z</time>
      </trkpt>
      <trkpt lat="49.16918" lon="6.60341">
        <ele>294</ele>
        <time>2020-02-29T10:39:58.000Z</time>
      </trkpt>
      <trkpt lat="49.16921" lon="6.60356">
        <ele>297</ele>
        <time>2020-02-29T10:40:08.000Z</time>
      </trkpt>
      <trkpt lat="49.16925" lon="6.60378">
        <ele>297</ele>
        <time>2020-02-29T10:40:18.000Z</time>
      </trkpt>
      <trkpt lat="49.16928" lon="6.60404">
        <ele>292</ele>
        <time>2020-02-29T10:40:28.000Z</time>
      </trkpt>
      <trkpt lat="49.16933" lon="6.6043">
        <ele>288</ele>
        <time>2020-02-29T10:40:38.000Z</time>
      </trkpt>
      <trkpt lat="49.16938" lon="6.60451">
        <ele>289</ele>
        <time>2020-02-29T10:40:48.000Z</time>
      </trkpt>
      <trkpt lat="49.16939" lon="6.60467">
        <ele>288</ele>
        <time>2020-02-29T10:40:58.000Z</time>
      </trkpt>
      <trkpt lat="49.16939" lon="6.6047">
        <ele>288</ele>
        <time>2020-02-29T10:41:08.000Z</time>
      </trkpt>
      <trkpt lat="49.16939" lon="6.60471">
        <ele>287</ele>
        <time>2020-02-29T10:41:22.000Z</time>
      </trkpt>
      <trkpt lat="49.1694" lon="6.60474">
        <ele>287</ele>
        <time>2020-02-29T10:41:52.000Z</time>
      </trkpt>
      <trkpt lat="49.16944" lon="6.60477">
        <ele>288</ele>
        <time>2020-02-29T10:42:02.000Z</time>
      </trkpt>
      <trkpt lat="49.16945" lon="6.60489">
        <ele>287</ele>
        <time>2020-02-29T10:42:12.000Z</time>
      </trkpt>
      <trkpt lat="49.16946" lon="6.60507">
        <ele>279</ele>
        <time>2020-02-29T10:42:22.000Z</time>
      </trkpt>
      <trkpt lat="49.16948" lon="6.60518">
        <ele>280</ele>
        <time>2020-02-29T10:42:32.000Z</time>
      </trkpt>
      <trkpt lat="49.16948" lon="6.60528">
        <ele>280</ele>
        <time>2020-02-29T10:42:42.000Z</time>
      </trkpt>
      <trkpt lat="49.16951" lon="6.60544">
        <ele>279</ele>
        <time>2020-02-29T10:42:52.000Z</time>
      </trkpt>
      <trkpt lat="49.16954" lon="6.6056">
        <ele>278</ele>
        <time>2020-02-29T10:43:02.000Z</time>
      </trkpt>
      <trkpt lat="49.16955" lon="6.60566">
        <ele>278</ele>
        <time>2020-02-29T10:43:12.000Z</time>
      </trkpt>
      <trkpt lat="49.16964" lon="6.60582">
        <ele>280</ele>
        <time>2020-02-29T10:43:22.000Z</time>
      </trkpt>
      <trkpt lat="49.16972" lon="6.60595">
        <ele>275</ele>
        <time>2020-02-29T10:43:32.000Z</time>
      </trkpt>
      <trkpt lat="49.16978" lon="6.60608">
        <ele>275</ele>
        <time>2020-02-29T10:43:42.000Z</time>
      </trkpt>
      <trkpt lat="49.16986" lon="6.60622">
        <ele>274</ele>
        <time>2020-02-29T10:43:52.000Z</time>
      </trkpt>
      <trkpt lat="49.16988" lon="6.6062">
        <ele>275</ele>
        <time>2020-02-29T10:44:02.000Z</time>
      </trkpt>
      <trkpt lat="49.16977" lon="6.60628">
        <ele>273</ele>
        <time>2020-02-29T10:44:12.000Z</time>
      </trkpt>
      <trkpt lat="49.16971" lon="6.60644">
        <ele>271</ele>
        <time>2020-02-29T10:44:22.000Z</time>
      </trkpt>
      <trkpt lat="49.16971" lon="6.60639">
        <ele>271</ele>
        <time>2020-02-29T10:44:32.000Z</time>
      </trkpt>
      <trkpt lat="49.1697" lon="6.60637">
        <ele>271</ele>
        <time>2020-02-29T10:44:42.000Z</time>
      </trkpt>
      <trkpt lat="49.1697" lon="6.60635">
        <ele>271</ele>
        <time>2020-02-29T10:44:59.000Z</time>
      </trkpt>
      <trkpt lat="49.16969" lon="6.60632">
        <ele>271</ele>
        <time>2020-02-29T10:45:09.000Z</time>
      </trkpt>
      <trkpt lat="49.16971" lon="6.6063">
        <ele>272</ele>
        <time>2020-02-29T10:45:23.000Z</time>
      </trkpt>
      <trkpt lat="49.16975" lon="6.6063">
        <ele>272</ele>
        <time>2020-02-29T10:45:33.000Z</time>
      </trkpt>
      <trkpt lat="49.16985" lon="6.6063">
        <ele>273</ele>
        <time>2020-02-29T10:45:43.000Z</time>
      </trkpt>
      <trkpt lat="49.16988" lon="6.6063">
        <ele>274</ele>
        <time>2020-02-29T10:45:53.000Z</time>
      </trkpt>
      <trkpt lat="49.16989" lon="6.60631">
        <ele>274</ele>
        <time>2020-02-29T10:46:05.000Z</time>
      </trkpt>
      <trkpt lat="49.16992" lon="6.60642">
        <ele>274</ele>
        <time>2020-02-29T10:46:15.000Z</time>
      </trkpt>
      <trkpt lat="49.16994" lon="6.60645">
        <ele>274</ele>
        <time>2020-02-29T10:46:25.000Z</time>
      </trkpt>
      <trkpt lat="49.16999" lon="6.60651">
        <ele>275</ele>
        <time>2020-02-29T10:46:35.000Z</time>
      </trkpt>
      <trkpt lat="49.17015" lon="6.60652">
        <ele>281</ele>
        <time>2020-02-29T10:46:45.000Z</time>
      </trkpt>
      <trkpt lat="49.17038" lon="6.60667">
        <ele>281</ele>
        <time>2020-02-29T10:46:55.000Z</time>
      </trkpt>
      <trkpt lat="49.1705" lon="6.60685">
        <ele>272</ele>
        <time>2020-02-29T10:47:05.000Z</time>
      </trkpt>
      <trkpt lat="49.17058" lon="6.60711">
        <ele>271</ele>
        <time>2020-02-29T10:47:15.000Z</time>
      </trkpt>
      <trkpt lat="49.17063" lon="6.60728">
        <ele>270</ele>
        <time>2020-02-29T10:47:25.000Z</time>
      </trkpt>
      <trkpt lat="49.17067" lon="6.60741">
        <ele>268</ele>
        <time>2020-02-29T10:47:35.000Z</time>
      </trkpt>
      <trkpt lat="49.17066" lon="6.60752">
        <ele>262</ele>
        <time>2020-02-29T10:47:45.000Z</time>
      </trkpt>
      <trkpt lat="49.1707" lon="6.6077">
        <ele>260</ele>
        <time>2020-02-29T10:47:55.000Z</time>
      </trkpt>
      <trkpt lat="49.1707" lon="6.60791">
        <ele>257</ele>
        <time>2020-02-29T10:48:05.000Z</time>
      </trkpt>
      <trkpt lat="49.1707" lon="6.60809">
        <ele>255</ele>
        <time>2020-02-29T10:48:15.000Z</time>
      </trkpt>
      <trkpt lat="49.17075" lon="6.60836">
        <ele>248</ele>
        <time>2020-02-29T10:48:25.000Z</time>
      </trkpt>
      <trkpt lat="49.17082" lon="6.60855">
        <ele>247</ele>
        <time>2020-02-29T10:48:35.000Z</time>
      </trkpt>
      <trkpt lat="49.1709" lon="6.60866">
        <ele>248</ele>
        <time>2020-02-29T10:48:45.000Z</time>
      </trkpt>
      <trkpt lat="49.17098" lon="6.60863">
        <ele>249</ele>
        <time>2020-02-29T10:48:55.000Z</time>
      </trkpt>
      <trkpt lat="49.17096" lon="6.60861">
        <ele>249</ele>
        <time>2020-02-29T10:49:05.000Z</time>
      </trkpt>
      <trkpt lat="49.17098" lon="6.60879">
        <ele>248</ele>
        <time>2020-02-29T10:53:24.000Z</time>
      </trkpt>
      <trkpt lat="49.1708" lon="6.60827">
        <ele>251</ele>
        <time>2020-02-29T11:03:56.767Z</time>
      </trkpt>
      <trkpt lat="49.17101" lon="6.60873">
        <ele>248</ele>
        <time>2020-02-29T11:04:06.000Z</time>
      </trkpt>
      <trkpt lat="49.17099" lon="6.60886">
        <ele>248</ele>
        <time>2020-02-29T11:05:16.000Z</time>
      </trkpt>
      <trkpt lat="49.17107" lon="6.6089">
        <ele>248</ele>
        <time>2020-02-29T11:05:26.000Z</time>
      </trkpt>
      <trkpt lat="49.17112" lon="6.60903">
        <ele>248</ele>
        <time>2020-02-29T11:05:36.000Z</time>
      </trkpt>
      <trkpt lat="49.17114" lon="6.60919">
        <ele>249</ele>
        <time>2020-02-29T11:05:46.000Z</time>
      </trkpt>
      <trkpt lat="49.17119" lon="6.60942">
        <ele>250</ele>
        <time>2020-02-29T11:05:56.000Z</time>
      </trkpt>
      <trkpt lat="49.17118" lon="6.60957">
        <ele>250</ele>
        <time>2020-02-29T11:06:06.000Z</time>
      </trkpt>
      <trkpt lat="49.17116" lon="6.60969">
        <ele>250</ele>
        <time>2020-02-29T11:06:16.000Z</time>
      </trkpt>
      <trkpt lat="49.17112" lon="6.60986">
        <ele>249</ele>
        <time>2020-02-29T11:06:26.000Z</time>
      </trkpt>
      <trkpt lat="49.1711" lon="6.60995">
        <ele>248</ele>
        <time>2020-02-29T11:06:36.000Z</time>
      </trkpt>
      <trkpt lat="49.17104" lon="6.61023">
        <ele>249</ele>
        <time>2020-02-29T11:06:46.000Z</time>
      </trkpt>
      <trkpt lat="49.17102" lon="6.61047">
        <ele>250</ele>
        <time>2020-02-29T11:06:56.000Z</time>
      </trkpt>
      <trkpt lat="49.17104" lon="6.61066">
        <ele>249</ele>
        <time>2020-02-29T11:07:06.000Z</time>
      </trkpt>
      <trkpt lat="49.17102" lon="6.61094">
        <ele>249</ele>
        <time>2020-02-29T11:07:16.000Z</time>
      </trkpt>
      <trkpt lat="49.171" lon="6.61113">
        <ele>251</ele>
        <time>2020-02-29T11:07:26.000Z</time>
      </trkpt>
      <trkpt lat="49.17097" lon="6.61131">
        <ele>251</ele>
        <time>2020-02-29T11:07:36.000Z</time>
      </trkpt>
      <trkpt lat="49.17093" lon="6.61148">
        <ele>249</ele>
        <time>2020-02-29T11:07:46.000Z</time>
      </trkpt>
      <trkpt lat="49.17089" lon="6.61163">
        <ele>245</ele>
        <time>2020-02-29T11:07:56.000Z</time>
      </trkpt>
      <trkpt lat="49.17085" lon="6.61174">
        <ele>246</ele>
        <time>2020-02-29T11:08:06.000Z</time>
      </trkpt>
      <trkpt lat="49.17083" lon="6.61177">
        <ele>247</ele>
        <time>2020-02-29T11:08:16.000Z</time>
      </trkpt>
      <trkpt lat="49.17083" lon="6.61185">
        <ele>241</ele>
        <time>2020-02-29T11:08:26.000Z</time>
      </trkpt>
      <trkpt lat="49.17084" lon="6.61201">
        <ele>251</ele>
        <time>2020-02-29T11:08:36.000Z</time>
      </trkpt>
      <trkpt lat="49.17084" lon="6.61215">
        <ele>251</ele>
        <time>2020-02-29T11:08:46.000Z</time>
      </trkpt>
      <trkpt lat="49.17084" lon="6.61234">
        <ele>248</ele>
        <time>2020-02-29T11:08:56.000Z</time>
      </trkpt>
      <trkpt lat="49.17085" lon="6.61255">
        <ele>244</ele>
        <time>2020-02-29T11:09:06.000Z</time>
      </trkpt>
      <trkpt lat="49.17085" lon="6.61278">
        <ele>250</ele>
        <time>2020-02-29T11:09:16.000Z</time>
      </trkpt>
      <trkpt lat="49.17085" lon="6.61292">
        <ele>250</ele>
        <time>2020-02-29T11:09:26.000Z</time>
      </trkpt>
      <trkpt lat="49.17085" lon="6.61309">
        <ele>249</ele>
        <time>2020-02-29T11:09:36.000Z</time>
      </trkpt>
      <trkpt lat="49.17086" lon="6.61333">
        <ele>242</ele>
        <time>2020-02-29T11:09:46.000Z</time>
      </trkpt>
      <trkpt lat="49.17087" lon="6.6136">
        <ele>247</ele>
        <time>2020-02-29T11:09:56.000Z</time>
      </trkpt>
      <trkpt lat="49.17084" lon="6.61386">
        <ele>246</ele>
        <time>2020-02-29T11:10:06.000Z</time>
      </trkpt>
      <trkpt lat="49.17083" lon="6.61404">
        <ele>238</ele>
        <time>2020-02-29T11:10:16.000Z</time>
      </trkpt>
      <trkpt lat="49.17082" lon="6.61423">
        <ele>238</ele>
        <time>2020-02-29T11:10:26.000Z</time>
      </trkpt>
      <trkpt lat="49.17085" lon="6.61437">
        <ele>243</ele>
        <time>2020-02-29T11:10:36.000Z</time>
      </trkpt>
      <trkpt lat="49.17091" lon="6.61451">
        <ele>244</ele>
        <time>2020-02-29T11:10:46.000Z</time>
      </trkpt>
      <trkpt lat="49.17097" lon="6.61471">
        <ele>244</ele>
        <time>2020-02-29T11:10:56.000Z</time>
      </trkpt>
      <trkpt lat="49.17103" lon="6.61493">
        <ele>243</ele>
        <time>2020-02-29T11:11:06.000Z</time>
      </trkpt>
      <trkpt lat="49.1711" lon="6.61512">
        <ele>243</ele>
        <time>2020-02-29T11:11:16.000Z</time>
      </trkpt>
      <trkpt lat="49.1712" lon="6.61532">
        <ele>244</ele>
        <time>2020-02-29T11:11:26.000Z</time>
      </trkpt>
      <trkpt lat="49.17127" lon="6.61551">
        <ele>244</ele>
        <time>2020-02-29T11:11:36.000Z</time>
      </trkpt>
      <trkpt lat="49.17131" lon="6.61566">
        <ele>244</ele>
        <time>2020-02-29T11:11:46.000Z</time>
      </trkpt>
      <trkpt lat="49.17134" lon="6.61578">
        <ele>245</ele>
        <time>2020-02-29T11:11:56.000Z</time>
      </trkpt>
      <trkpt lat="49.17134" lon="6.61596">
        <ele>243</ele>
        <time>2020-02-29T11:12:06.000Z</time>
      </trkpt>
      <trkpt lat="49.17139" lon="6.61619">
        <ele>243</ele>
        <time>2020-02-29T11:12:16.000Z</time>
      </trkpt>
      <trkpt lat="49.17147" lon="6.61642">
        <ele>244</ele>
        <time>2020-02-29T11:12:26.000Z</time>
      </trkpt>
      <trkpt lat="49.17153" lon="6.61664">
        <ele>244</ele>
        <time>2020-02-29T11:12:36.000Z</time>
      </trkpt>
      <trkpt lat="49.17161" lon="6.61679">
        <ele>244</ele>
        <time>2020-02-29T11:12:46.000Z</time>
      </trkpt>
      <trkpt lat="49.17166" lon="6.61695">
        <ele>243</ele>
        <time>2020-02-29T11:12:56.000Z</time>
      </trkpt>
      <trkpt lat="49.17171" lon="6.61712">
        <ele>248</ele>
        <time>2020-02-29T11:13:06.000Z</time>
      </trkpt>
      <trkpt lat="49.17176" lon="6.61728">
        <ele>247</ele>
        <time>2020-02-29T11:13:16.000Z</time>
      </trkpt>
      <trkpt lat="49.17185" lon="6.61745">
        <ele>247</ele>
        <time>2020-02-29T11:13:26.000Z</time>
      </trkpt>
      <trkpt lat="49.17196" lon="6.61762">
        <ele>245</ele>
        <time>2020-02-29T11:13:36.000Z</time>
      </trkpt>
      <trkpt lat="49.17207" lon="6.61775">
        <ele>245</ele>
        <time>2020-02-29T11:13:46.000Z</time>
      </trkpt>
      <trkpt lat="49.17218" lon="6.61786">
        <ele>245</ele>
        <time>2020-02-29T11:13:56.000Z</time>
      </trkpt>
      <trkpt lat="49.17226" lon="6.61796">
        <ele>245</ele>
        <time>2020-02-29T11:14:06.000Z</time>
      </trkpt>
      <trkpt lat="49.17234" lon="6.61804">
        <ele>246</ele>
        <time>2020-02-29T11:14:16.000Z</time>
      </trkpt>
      <trkpt lat="49.17247" lon="6.61817">
        <ele>246</ele>
        <time>2020-02-29T11:14:26.000Z</time>
      </trkpt>
      <trkpt lat="49.17262" lon="6.61839">
        <ele>246</ele>
        <time>2020-02-29T11:14:36.000Z</time>
      </trkpt>
      <trkpt lat="49.17272" lon="6.61859">
        <ele>245</ele>
        <time>2020-02-29T11:14:46.000Z</time>
      </trkpt>
      <trkpt lat="49.17281" lon="6.61881">
        <ele>244</ele>
        <time>2020-02-29T11:14:56.000Z</time>
      </trkpt>
      <trkpt lat="49.17289" lon="6.61903">
        <ele>243</ele>
        <time>2020-02-29T11:15:06.000Z</time>
      </trkpt>
      <trkpt lat="49.17295" lon="6.6192">
        <ele>242</ele>
        <time>2020-02-29T11:15:16.000Z</time>
      </trkpt>
      <trkpt lat="49.17301" lon="6.61939">
        <ele>242</ele>
        <time>2020-02-29T11:15:26.000Z</time>
      </trkpt>
      <trkpt lat="49.17306" lon="6.61959">
        <ele>242</ele>
        <time>2020-02-29T11:15:36.000Z</time>
      </trkpt>
      <trkpt lat="49.17314" lon="6.61983">
        <ele>241</ele>
        <time>2020-02-29T11:15:46.000Z</time>
      </trkpt>
      <trkpt lat="49.17321" lon="6.62005">
        <ele>240</ele>
        <time>2020-02-29T11:15:56.000Z</time>
      </trkpt>
      <trkpt lat="49.17328" lon="6.62024">
        <ele>240</ele>
        <time>2020-02-29T11:16:06.000Z</time>
      </trkpt>
      <trkpt lat="49.17334" lon="6.62045">
        <ele>238</ele>
        <time>2020-02-29T11:16:16.000Z</time>
      </trkpt>
      <trkpt lat="49.17339" lon="6.62063">
        <ele>238</ele>
        <time>2020-02-29T11:16:26.000Z</time>
      </trkpt>
      <trkpt lat="49.17346" lon="6.62081">
        <ele>237</ele>
        <time>2020-02-29T11:16:36.000Z</time>
      </trkpt>
      <trkpt lat="49.1735" lon="6.62094">
        <ele>236</ele>
        <time>2020-02-29T11:16:46.000Z</time>
      </trkpt>
      <trkpt lat="49.17357" lon="6.62107">
        <ele>235</ele>
        <time>2020-02-29T11:16:56.000Z</time>
      </trkpt>
      <trkpt lat="49.17364" lon="6.62123">
        <ele>235</ele>
        <time>2020-02-29T11:17:06.000Z</time>
      </trkpt>
      <trkpt lat="49.17373" lon="6.62135">
        <ele>235</ele>
        <time>2020-02-29T11:17:16.000Z</time>
      </trkpt>
      <trkpt lat="49.17382" lon="6.62149">
        <ele>234</ele>
        <time>2020-02-29T11:17:26.000Z</time>
      </trkpt>
      <trkpt lat="49.17391" lon="6.6216">
        <ele>234</ele>
        <time>2020-02-29T11:17:36.000Z</time>
      </trkpt>
      <trkpt lat="49.17395" lon="6.62155">
        <ele>234</ele>
        <time>2020-02-29T11:17:46.000Z</time>
      </trkpt>
      <trkpt lat="49.174" lon="6.62144">
        <ele>234</ele>
        <time>2020-02-29T11:17:56.000Z</time>
      </trkpt>
      <trkpt lat="49.1741" lon="6.62126">
        <ele>234</ele>
        <time>2020-02-29T11:18:06.000Z</time>
      </trkpt>
      <trkpt lat="49.17419" lon="6.62113">
        <ele>235</ele>
        <time>2020-02-29T11:18:16.000Z</time>
      </trkpt>
      <trkpt lat="49.17429" lon="6.62106">
        <ele>236</ele>
        <time>2020-02-29T11:18:26.000Z</time>
      </trkpt>
      <trkpt lat="49.17442" lon="6.62102">
        <ele>236</ele>
        <time>2020-02-29T11:18:36.000Z</time>
      </trkpt>
      <trkpt lat="49.17458" lon="6.621">
        <ele>236</ele>
        <time>2020-02-29T11:18:46.000Z</time>
      </trkpt>
      <trkpt lat="49.17473" lon="6.62101">
        <ele>236</ele>
        <time>2020-02-29T11:18:56.000Z</time>
      </trkpt>
      <trkpt lat="49.17485" lon="6.62104">
        <ele>236</ele>
        <time>2020-02-29T11:19:06.000Z</time>
      </trkpt>
      <trkpt lat="49.175" lon="6.62108">
        <ele>237</ele>
        <time>2020-02-29T11:19:16.000Z</time>
      </trkpt>
      <trkpt lat="49.17516" lon="6.62113">
        <ele>237</ele>
        <time>2020-02-29T11:19:26.000Z</time>
      </trkpt>
      <trkpt lat="49.17531" lon="6.62117">
        <ele>237</ele>
        <time>2020-02-29T11:19:36.000Z</time>
      </trkpt>
      <trkpt lat="49.17546" lon="6.6212">
        <ele>237</ele>
        <time>2020-02-29T11:19:46.000Z</time>
      </trkpt>
      <trkpt lat="49.17559" lon="6.62122">
        <ele>237</ele>
        <time>2020-02-29T11:19:56.000Z</time>
      </trkpt>
      <trkpt lat="49.17572" lon="6.62124">
        <ele>237</ele>
        <time>2020-02-29T11:20:06.000Z</time>
      </trkpt>
      <trkpt lat="49.17584" lon="6.6213">
        <ele>241</ele>
        <time>2020-02-29T11:20:16.000Z</time>
      </trkpt>
      <trkpt lat="49.17595" lon="6.62142">
        <ele>241</ele>
        <time>2020-02-29T11:20:26.000Z</time>
      </trkpt>
      <trkpt lat="49.17603" lon="6.62157">
        <ele>240</ele>
        <time>2020-02-29T11:20:36.000Z</time>
      </trkpt>
      <trkpt lat="49.17607" lon="6.62178">
        <ele>240</ele>
        <time>2020-02-29T11:20:46.000Z</time>
      </trkpt>
      <trkpt lat="49.1761" lon="6.62203">
        <ele>240</ele>
        <time>2020-02-29T11:20:56.000Z</time>
      </trkpt>
      <trkpt lat="49.17613" lon="6.62227">
        <ele>240</ele>
        <time>2020-02-29T11:21:06.000Z</time>
      </trkpt>
      <trkpt lat="49.17616" lon="6.62251">
        <ele>240</ele>
        <time>2020-02-29T11:21:16.000Z</time>
      </trkpt>
      <trkpt lat="49.17618" lon="6.62273">
        <ele>240</ele>
        <time>2020-02-29T11:21:26.000Z</time>
      </trkpt>
      <trkpt lat="49.1762" lon="6.62294">
        <ele>240</ele>
        <time>2020-02-29T11:21:36.000Z</time>
      </trkpt>
      <trkpt lat="49.17621" lon="6.62316">
        <ele>240</ele>
        <time>2020-02-29T11:21:46.000Z</time>
      </trkpt>
      <trkpt lat="49.17621" lon="6.62339">
        <ele>239</ele>
        <time>2020-02-29T11:21:56.000Z</time>
      </trkpt>
      <trkpt lat="49.17621" lon="6.62359">
        <ele>239</ele>
        <time>2020-02-29T11:22:06.000Z</time>
      </trkpt>
      <trkpt lat="49.17621" lon="6.6238">
        <ele>239</ele>
        <time>2020-02-29T11:22:16.000Z</time>
      </trkpt>
      <trkpt lat="49.17621" lon="6.62401">
        <ele>238</ele>
        <time>2020-02-29T11:22:26.000Z</time>
      </trkpt>
      <trkpt lat="49.17622" lon="6.6242">
        <ele>238</ele>
        <time>2020-02-29T11:22:36.000Z</time>
      </trkpt>
      <trkpt lat="49.17622" lon="6.62442">
        <ele>238</ele>
        <time>2020-02-29T11:22:46.000Z</time>
      </trkpt>
      <trkpt lat="49.17623" lon="6.62458">
        <ele>239</ele>
        <time>2020-02-29T11:22:56.000Z</time>
      </trkpt>
      <trkpt lat="49.17624" lon="6.6248">
        <ele>239</ele>
        <time>2020-02-29T11:23:06.000Z</time>
      </trkpt>
      <trkpt lat="49.17626" lon="6.62498">
        <ele>239</ele>
        <time>2020-02-29T11:23:16.000Z</time>
      </trkpt>
      <trkpt lat="49.1763" lon="6.62517">
        <ele>239</ele>
        <time>2020-02-29T11:23:26.000Z</time>
      </trkpt>
      <trkpt lat="49.17634" lon="6.62536">
        <ele>239</ele>
        <time>2020-02-29T11:23:36.000Z</time>
      </trkpt>
      <trkpt lat="49.17636" lon="6.62553">
        <ele>239</ele>
        <time>2020-02-29T11:23:46.000Z</time>
      </trkpt>
      <trkpt lat="49.1764" lon="6.62573">
        <ele>239</ele>
        <time>2020-02-29T11:23:56.000Z</time>
      </trkpt>
      <trkpt lat="49.17641" lon="6.62581">
        <ele>239</ele>
        <time>2020-02-29T11:24:06.000Z</time>
      </trkpt>
      <trkpt lat="49.17645" lon="6.62594">
        <ele>238</ele>
        <time>2020-02-29T11:24:16.000Z</time>
      </trkpt>
      <trkpt lat="49.17651" lon="6.62611">
        <ele>238</ele>
        <time>2020-02-29T11:24:26.000Z</time>
      </trkpt>
      <trkpt lat="49.1766" lon="6.62629">
        <ele>237</ele>
        <time>2020-02-29T11:24:36.000Z</time>
      </trkpt>
      <trkpt lat="49.17664" lon="6.62642">
        <ele>237</ele>
        <time>2020-02-29T11:24:46.000Z</time>
      </trkpt>
      <trkpt lat="49.17666" lon="6.62642">
        <ele>237</ele>
        <time>2020-02-29T11:24:56.000Z</time>
      </trkpt>
      <trkpt lat="49.17667" lon="6.62644">
        <ele>240</ele>
        <time>2020-02-29T11:25:09.000Z</time>
      </trkpt>
      <trkpt lat="49.1767" lon="6.62652">
        <ele>239</ele>
        <time>2020-02-29T11:25:19.000Z</time>
      </trkpt>
      <trkpt lat="49.17678" lon="6.62667">
        <ele>238</ele>
        <time>2020-02-29T11:25:29.000Z</time>
      </trkpt>
      <trkpt lat="49.17685" lon="6.62683">
        <ele>239</ele>
        <time>2020-02-29T11:25:39.000Z</time>
      </trkpt>
      <trkpt lat="49.17695" lon="6.62701">
        <ele>239</ele>
        <time>2020-02-29T11:25:49.000Z</time>
      </trkpt>
      <trkpt lat="49.17702" lon="6.62718">
        <ele>240</ele>
        <time>2020-02-29T11:25:59.000Z</time>
      </trkpt>
      <trkpt lat="49.17712" lon="6.62731">
        <ele>240</ele>
        <time>2020-02-29T11:26:09.000Z</time>
      </trkpt>
      <trkpt lat="49.17724" lon="6.62742">
        <ele>240</ele>
        <time>2020-02-29T11:26:19.000Z</time>
      </trkpt>
      <trkpt lat="49.17735" lon="6.62751">
        <ele>240</ele>
        <time>2020-02-29T11:26:29.000Z</time>
      </trkpt>
      <trkpt lat="49.17747" lon="6.62762">
        <ele>240</ele>
        <time>2020-02-29T11:26:39.000Z</time>
      </trkpt>
      <trkpt lat="49.17759" lon="6.62778">
        <ele>239</ele>
        <time>2020-02-29T11:26:49.000Z</time>
      </trkpt>
      <trkpt lat="49.17768" lon="6.62797">
        <ele>238</ele>
        <time>2020-02-29T11:26:59.000Z</time>
      </trkpt>
      <trkpt lat="49.17775" lon="6.62816">
        <ele>237</ele>
        <time>2020-02-29T11:27:09.000Z</time>
      </trkpt>
      <trkpt lat="49.1778" lon="6.62836">
        <ele>236</ele>
        <time>2020-02-29T11:27:19.000Z</time>
      </trkpt>
      <trkpt lat="49.17785" lon="6.62855">
        <ele>236</ele>
        <time>2020-02-29T11:27:29.000Z</time>
      </trkpt>
      <trkpt lat="49.1779" lon="6.62876">
        <ele>236</ele>
        <time>2020-02-29T11:27:39.000Z</time>
      </trkpt>
      <trkpt lat="49.17794" lon="6.62895">
        <ele>236</ele>
        <time>2020-02-29T11:27:49.000Z</time>
      </trkpt>
      <trkpt lat="49.17799" lon="6.62915">
        <ele>235</ele>
        <time>2020-02-29T11:27:59.000Z</time>
      </trkpt>
      <trkpt lat="49.17804" lon="6.62935">
        <ele>235</ele>
        <time>2020-02-29T11:28:09.000Z</time>
      </trkpt>
      <trkpt lat="49.17808" lon="6.62954">
        <ele>234</ele>
        <time>2020-02-29T11:28:19.000Z</time>
      </trkpt>
      <trkpt lat="49.17813" lon="6.62975">
        <ele>234</ele>
        <time>2020-02-29T11:28:29.000Z</time>
      </trkpt>
      <trkpt lat="49.17817" lon="6.62993">
        <ele>233</ele>
        <time>2020-02-29T11:28:39.000Z</time>
      </trkpt>
      <trkpt lat="49.17823" lon="6.63012">
        <ele>233</ele>
        <time>2020-02-29T11:28:49.000Z</time>
      </trkpt>
      <trkpt lat="49.1783" lon="6.63033">
        <ele>233</ele>
        <time>2020-02-29T11:28:59.000Z</time>
      </trkpt>
      <trkpt lat="49.17839" lon="6.63046">
        <ele>234</ele>
        <time>2020-02-29T11:29:09.000Z</time>
      </trkpt>
      <trkpt lat="49.17852" lon="6.63051">
        <ele>234</ele>
        <time>2020-02-29T11:29:19.000Z</time>
      </trkpt>
      <trkpt lat="49.17864" lon="6.63056">
        <ele>234</ele>
        <time>2020-02-29T11:29:29.000Z</time>
      </trkpt>
      <trkpt lat="49.17878" lon="6.63061">
        <ele>235</ele>
        <time>2020-02-29T11:29:39.000Z</time>
      </trkpt>
      <trkpt lat="49.17891" lon="6.63064">
        <ele>236</ele>
        <time>2020-02-29T11:29:49.000Z</time>
      </trkpt>
      <trkpt lat="49.17905" lon="6.63066">
        <ele>236</ele>
        <time>2020-02-29T11:29:59.000Z</time>
      </trkpt>
      <trkpt lat="49.17919" lon="6.6307">
        <ele>240</ele>
        <time>2020-02-29T11:30:09.000Z</time>
      </trkpt>
      <trkpt lat="49.17931" lon="6.63072">
        <ele>240</ele>
        <time>2020-02-29T11:30:19.000Z</time>
      </trkpt>
      <trkpt lat="49.17938" lon="6.63075">
        <ele>241</ele>
        <time>2020-02-29T11:30:29.000Z</time>
      </trkpt>
      <trkpt lat="49.17949" lon="6.63077">
        <ele>242</ele>
        <time>2020-02-29T11:30:39.000Z</time>
      </trkpt>
      <trkpt lat="49.1796" lon="6.6308">
        <ele>243</ele>
        <time>2020-02-29T11:30:49.000Z</time>
      </trkpt>
      <trkpt lat="49.17973" lon="6.63086">
        <ele>242</ele>
        <time>2020-02-29T11:30:59.000Z</time>
      </trkpt>
      <trkpt lat="49.17987" lon="6.63094">
        <ele>244</ele>
        <time>2020-02-29T11:31:09.000Z</time>
      </trkpt>
      <trkpt lat="49.18001" lon="6.63101">
        <ele>246</ele>
        <time>2020-02-29T11:31:19.000Z</time>
      </trkpt>
      <trkpt lat="49.18009" lon="6.63097">
        <ele>246</ele>
        <time>2020-02-29T11:31:29.000Z</time>
      </trkpt>
      <trkpt lat="49.18021" lon="6.6309">
        <ele>246</ele>
        <time>2020-02-29T11:31:39.000Z</time>
      </trkpt>
      <trkpt lat="49.18028" lon="6.63088">
        <ele>246</ele>
        <time>2020-02-29T11:31:49.000Z</time>
      </trkpt>
      <trkpt lat="49.18043" lon="6.63084">
        <ele>247</ele>
        <time>2020-02-29T11:31:59.000Z</time>
      </trkpt>
      <trkpt lat="49.18058" lon="6.63078">
        <ele>250</ele>
        <time>2020-02-29T11:32:09.000Z</time>
      </trkpt>
      <trkpt lat="49.18073" lon="6.63071">
        <ele>250</ele>
        <time>2020-02-29T11:32:19.000Z</time>
      </trkpt>
      <trkpt lat="49.18088" lon="6.63064">
        <ele>252</ele>
        <time>2020-02-29T11:32:29.000Z</time>
      </trkpt>
      <trkpt lat="49.181" lon="6.63058">
        <ele>253</ele>
        <time>2020-02-29T11:32:39.000Z</time>
      </trkpt>
      <trkpt lat="49.18112" lon="6.6305">
        <ele>254</ele>
        <time>2020-02-29T11:32:49.000Z</time>
      </trkpt>
      <trkpt lat="49.18124" lon="6.63043">
        <ele>254</ele>
        <time>2020-02-29T11:32:59.000Z</time>
      </trkpt>
      <trkpt lat="49.18137" lon="6.63037">
        <ele>255</ele>
        <time>2020-02-29T11:33:09.000Z</time>
      </trkpt>
      <trkpt lat="49.18152" lon="6.63036">
        <ele>255</ele>
        <time>2020-02-29T11:33:19.000Z</time>
      </trkpt>
      <trkpt lat="49.18162" lon="6.63043">
        <ele>255</ele>
        <time>2020-02-29T11:33:29.000Z</time>
      </trkpt>
      <trkpt lat="49.18165" lon="6.63035">
        <ele>255</ele>
        <time>2020-02-29T11:33:39.000Z</time>
      </trkpt>
      <trkpt lat="49.18168" lon="6.63029">
        <ele>254</ele>
        <time>2020-02-29T11:33:56.000Z</time>
      </trkpt>
      <trkpt lat="49.18187" lon="6.63005">
        <ele>255</ele>
        <time>2020-02-29T11:42:43.580Z</time>
      </trkpt>
      <trkpt lat="49.18197" lon="6.62995">
        <ele>260</ele>
        <time>2020-02-29T11:42:53.000Z</time>
      </trkpt>
      <trkpt lat="49.18205" lon="6.62981">
        <ele>260</ele>
        <time>2020-02-29T11:43:03.000Z</time>
      </trkpt>
      <trkpt lat="49.18212" lon="6.62968">
        <ele>261</ele>
        <time>2020-02-29T11:43:13.000Z</time>
      </trkpt>
      <trkpt lat="49.18217" lon="6.62955">
        <ele>262</ele>
        <time>2020-02-29T11:43:23.000Z</time>
      </trkpt>
      <trkpt lat="49.18223" lon="6.62945">
        <ele>262</ele>
        <time>2020-02-29T11:43:33.000Z</time>
      </trkpt>
      <trkpt lat="49.18228" lon="6.62936">
        <ele>263</ele>
        <time>2020-02-29T11:43:43.000Z</time>
      </trkpt>
      <trkpt lat="49.18239" lon="6.62915">
        <ele>268</ele>
        <time>2020-02-29T11:43:53.000Z</time>
      </trkpt>
      <trkpt lat="49.18246" lon="6.62893">
        <ele>271</ele>
        <time>2020-02-29T11:44:03.000Z</time>
      </trkpt>
      <trkpt lat="49.18253" lon="6.62869">
        <ele>264</ele>
        <time>2020-02-29T11:44:13.000Z</time>
      </trkpt>
      <trkpt lat="49.18259" lon="6.62855">
        <ele>266</ele>
        <time>2020-02-29T11:44:23.000Z</time>
      </trkpt>
      <trkpt lat="49.18271" lon="6.62834">
        <ele>267</ele>
        <time>2020-02-29T11:44:33.000Z</time>
      </trkpt>
      <trkpt lat="49.1828" lon="6.62817">
        <ele>268</ele>
        <time>2020-02-29T11:44:43.000Z</time>
      </trkpt>
      <trkpt lat="49.18288" lon="6.62801">
        <ele>267</ele>
        <time>2020-02-29T11:44:53.000Z</time>
      </trkpt>
      <trkpt lat="49.183" lon="6.62793">
        <ele>266</ele>
        <time>2020-02-29T11:45:03.000Z</time>
      </trkpt>
      <trkpt lat="49.18312" lon="6.62775">
        <ele>265</ele>
        <time>2020-02-29T11:45:13.000Z</time>
      </trkpt>
      <trkpt lat="49.1832" lon="6.62756">
        <ele>262</ele>
        <time>2020-02-29T11:45:23.000Z</time>
      </trkpt>
      <trkpt lat="49.18331" lon="6.62738">
        <ele>263</ele>
        <time>2020-02-29T11:45:33.000Z</time>
      </trkpt>
      <trkpt lat="49.1834" lon="6.62721">
        <ele>255</ele>
        <time>2020-02-29T11:45:43.000Z</time>
      </trkpt>
      <trkpt lat="49.1835" lon="6.62706">
        <ele>255</ele>
        <time>2020-02-29T11:45:53.000Z</time>
      </trkpt>
      <trkpt lat="49.1836" lon="6.62693">
        <ele>255</ele>
        <time>2020-02-29T11:46:03.000Z</time>
      </trkpt>
      <trkpt lat="49.18365" lon="6.62695">
        <ele>255</ele>
        <time>2020-02-29T11:46:13.000Z</time>
      </trkpt>
      <trkpt lat="49.18367" lon="6.62694">
        <ele>255</ele>
        <time>2020-02-29T11:46:23.000Z</time>
      </trkpt>
      <trkpt lat="49.18369" lon="6.62692">
        <ele>255</ele>
        <time>2020-02-29T11:46:33.000Z</time>
      </trkpt>
      <trkpt lat="49.18373" lon="6.62687">
        <ele>255</ele>
        <time>2020-02-29T11:46:43.000Z</time>
      </trkpt>
      <trkpt lat="49.18373" lon="6.62686">
        <ele>254</ele>
        <time>2020-02-29T11:47:05.000Z</time>
      </trkpt>
      <trkpt lat="49.18379" lon="6.62675">
        <ele>254</ele>
        <time>2020-02-29T11:47:15.000Z</time>
      </trkpt>
      <trkpt lat="49.18387" lon="6.62661">
        <ele>256</ele>
        <time>2020-02-29T11:47:25.000Z</time>
      </trkpt>
      <trkpt lat="49.18396" lon="6.62645">
        <ele>256</ele>
        <time>2020-02-29T11:47:35.000Z</time>
      </trkpt>
      <trkpt lat="49.18401" lon="6.62638">
        <ele>256</ele>
        <time>2020-02-29T11:47:45.000Z</time>
      </trkpt>
      <trkpt lat="49.18408" lon="6.62627">
        <ele>257</ele>
        <time>2020-02-29T11:47:55.000Z</time>
      </trkpt>
      <trkpt lat="49.18418" lon="6.62614">
        <ele>253</ele>
        <time>2020-02-29T11:48:05.000Z</time>
      </trkpt>
      <trkpt lat="49.1843" lon="6.62602">
        <ele>253</ele>
        <time>2020-02-29T11:48:15.000Z</time>
      </trkpt>
      <trkpt lat="49.18442" lon="6.62591">
        <ele>253</ele>
        <time>2020-02-29T11:48:25.000Z</time>
      </trkpt>
      <trkpt lat="49.18454" lon="6.62578">
        <ele>255</ele>
        <time>2020-02-29T11:48:35.000Z</time>
      </trkpt>
      <trkpt lat="49.18466" lon="6.62567">
        <ele>254</ele>
        <time>2020-02-29T11:48:45.000Z</time>
      </trkpt>
      <trkpt lat="49.18476" lon="6.62557">
        <ele>254</ele>
        <time>2020-02-29T11:48:55.000Z</time>
      </trkpt>
      <trkpt lat="49.18487" lon="6.62547">
        <ele>254</ele>
        <time>2020-02-29T11:49:05.000Z</time>
      </trkpt>
      <trkpt lat="49.18497" lon="6.62536">
        <ele>253</ele>
        <time>2020-02-29T11:49:15.000Z</time>
      </trkpt>
      <trkpt lat="49.18508" lon="6.62527">
        <ele>248</ele>
        <time>2020-02-29T11:49:25.000Z</time>
      </trkpt>
      <trkpt lat="49.18519" lon="6.6252">
        <ele>248</ele>
        <time>2020-02-29T11:49:35.000Z</time>
      </trkpt>
      <trkpt lat="49.18531" lon="6.6251">
        <ele>247</ele>
        <time>2020-02-29T11:49:45.000Z</time>
      </trkpt>
      <trkpt lat="49.18544" lon="6.625">
        <ele>246</ele>
        <time>2020-02-29T11:49:55.000Z</time>
      </trkpt>
      <trkpt lat="49.18555" lon="6.6249">
        <ele>245</ele>
        <time>2020-02-29T11:50:05.000Z</time>
      </trkpt>
      <trkpt lat="49.18566" lon="6.6248">
        <ele>245</ele>
        <time>2020-02-29T11:50:15.000Z</time>
      </trkpt>
      <trkpt lat="49.18577" lon="6.62469">
        <ele>245</ele>
        <time>2020-02-29T11:50:25.000Z</time>
      </trkpt>
      <trkpt lat="49.18588" lon="6.62458">
        <ele>243</ele>
        <time>2020-02-29T11:50:35.000Z</time>
      </trkpt>
      <trkpt lat="49.18601" lon="6.62448">
        <ele>243</ele>
        <time>2020-02-29T11:50:45.000Z</time>
      </trkpt>
      <trkpt lat="49.18613" lon="6.62439">
        <ele>243</ele>
        <time>2020-02-29T11:50:55.000Z</time>
      </trkpt>
      <trkpt lat="49.18624" lon="6.62431">
        <ele>243</ele>
        <time>2020-02-29T11:51:05.000Z</time>
      </trkpt>
      <trkpt lat="49.18635" lon="6.62421">
        <ele>242</ele>
        <time>2020-02-29T11:51:15.000Z</time>
      </trkpt>
      <trkpt lat="49.18645" lon="6.6241">
        <ele>243</ele>
        <time>2020-02-29T11:51:25.000Z</time>
      </trkpt>
      <trkpt lat="49.18656" lon="6.624">
        <ele>242</ele>
        <time>2020-02-29T11:51:35.000Z</time>
      </trkpt>
      <trkpt lat="49.18667" lon="6.62389">
        <ele>242</ele>
        <time>2020-02-29T11:51:45.000Z</time>
      </trkpt>
      <trkpt lat="49.1868" lon="6.62382">
        <ele>242</ele>
        <time>2020-02-29T11:51:55.000Z</time>
      </trkpt>
      <trkpt lat="49.18692" lon="6.62375">
        <ele>242</ele>
        <time>2020-02-29T11:52:05.000Z</time>
      </trkpt>
      <trkpt lat="49.18703" lon="6.62365">
        <ele>242</ele>
        <time>2020-02-29T11:52:15.000Z</time>
      </trkpt>
      <trkpt lat="49.18714" lon="6.62371">
        <ele>242</ele>
        <time>2020-02-29T11:52:25.000Z</time>
      </trkpt>
      <trkpt lat="49.18718" lon="6.62389">
        <ele>241</ele>
        <time>2020-02-29T11:52:35.000Z</time>
      </trkpt>
      <trkpt lat="49.18722" lon="6.62411">
        <ele>241</ele>
        <time>2020-02-29T11:52:45.000Z</time>
      </trkpt>
      <trkpt lat="49.18723" lon="6.62429">
        <ele>240</ele>
        <time>2020-02-29T11:52:55.000Z</time>
      </trkpt>
      <trkpt lat="49.18729" lon="6.62431">
        <ele>240</ele>
        <time>2020-02-29T11:53:05.000Z</time>
      </trkpt>
      <trkpt lat="49.18737" lon="6.62431">
        <ele>240</ele>
        <time>2020-02-29T11:53:15.000Z</time>
      </trkpt>
      <trkpt lat="49.18745" lon="6.6243">
        <ele>240</ele>
        <time>2020-02-29T11:53:25.000Z</time>
      </trkpt>
      <trkpt lat="49.18758" lon="6.62429">
        <ele>240</ele>
        <time>2020-02-29T11:53:35.000Z</time>
      </trkpt>
      <trkpt lat="49.18771" lon="6.62429">
        <ele>240</ele>
        <time>2020-02-29T11:53:45.000Z</time>
      </trkpt>
      <trkpt lat="49.1878" lon="6.62421">
        <ele>240</ele>
        <time>2020-02-29T11:53:55.000Z</time>
      </trkpt>
      <trkpt lat="49.18785" lon="6.62424">
        <ele>240</ele>
        <time>2020-02-29T11:54:05.000Z</time>
      </trkpt>
      <trkpt lat="49.18795" lon="6.62427">
        <ele>240</ele>
        <time>2020-02-29T11:54:15.000Z</time>
      </trkpt>
      <trkpt lat="49.18805" lon="6.6243">
        <ele>240</ele>
        <time>2020-02-29T11:54:25.000Z</time>
      </trkpt>
      <trkpt lat="49.1882" lon="6.62435">
        <ele>240</ele>
        <time>2020-02-29T11:54:35.000Z</time>
      </trkpt>
      <trkpt lat="49.18837" lon="6.6244">
        <ele>243</ele>
        <time>2020-02-29T11:54:45.000Z</time>
      </trkpt>
      <trkpt lat="49.18843" lon="6.62449">
        <ele>244</ele>
        <time>2020-02-29T11:54:55.000Z</time>
      </trkpt>
      <trkpt lat="49.18843" lon="6.62473">
        <ele>243</ele>
        <time>2020-02-29T11:55:05.000Z</time>
      </trkpt>
      <trkpt lat="49.18842" lon="6.62497">
        <ele>241</ele>
        <time>2020-02-29T11:55:15.000Z</time>
      </trkpt>
      <trkpt lat="49.18841" lon="6.62518">
        <ele>241</ele>
        <time>2020-02-29T11:55:25.000Z</time>
      </trkpt>
      <trkpt lat="49.18839" lon="6.62538">
        <ele>242</ele>
        <time>2020-02-29T11:55:35.000Z</time>
      </trkpt>
      <trkpt lat="49.18836" lon="6.62555">
        <ele>241</ele>
        <time>2020-02-29T11:55:45.000Z</time>
      </trkpt>
      <trkpt lat="49.18831" lon="6.62574">
        <ele>238</ele>
        <time>2020-02-29T11:55:55.000Z</time>
      </trkpt>
      <trkpt lat="49.18827" lon="6.62591">
        <ele>238</ele>
        <time>2020-02-29T11:56:05.000Z</time>
      </trkpt>
      <trkpt lat="49.18822" lon="6.62609">
        <ele>238</ele>
        <time>2020-02-29T11:56:15.000Z</time>
      </trkpt>
      <trkpt lat="49.1882" lon="6.6263">
        <ele>238</ele>
        <time>2020-02-29T11:56:25.000Z</time>
      </trkpt>
      <trkpt lat="49.18819" lon="6.62648">
        <ele>238</ele>
        <time>2020-02-29T11:56:35.000Z</time>
      </trkpt>
      <trkpt lat="49.18819" lon="6.62667">
        <ele>237</ele>
        <time>2020-02-29T11:56:45.000Z</time>
      </trkpt>
      <trkpt lat="49.18821" lon="6.62687">
        <ele>237</ele>
        <time>2020-02-29T11:56:55.000Z</time>
      </trkpt>
      <trkpt lat="49.18825" lon="6.62707">
        <ele>237</ele>
        <time>2020-02-29T11:57:05.000Z</time>
      </trkpt>
      <trkpt lat="49.18828" lon="6.62726">
        <ele>236</ele>
        <time>2020-02-29T11:57:15.000Z</time>
      </trkpt>
      <trkpt lat="49.18831" lon="6.62748">
        <ele>235</ele>
        <time>2020-02-29T11:57:25.000Z</time>
      </trkpt>
      <trkpt lat="49.1883" lon="6.6277">
        <ele>236</ele>
        <time>2020-02-29T11:57:35.000Z</time>
      </trkpt>
      <trkpt lat="49.18831" lon="6.6279">
        <ele>236</ele>
        <time>2020-02-29T11:57:45.000Z</time>
      </trkpt>
      <trkpt lat="49.18837" lon="6.62799">
        <ele>237</ele>
        <time>2020-02-29T11:57:55.000Z</time>
      </trkpt>
      <trkpt lat="49.18847" lon="6.62805">
        <ele>237</ele>
        <time>2020-02-29T11:58:05.000Z</time>
      </trkpt>
      <trkpt lat="49.18856" lon="6.62814">
        <ele>237</ele>
        <time>2020-02-29T11:58:15.000Z</time>
      </trkpt>
      <trkpt lat="49.18866" lon="6.62826">
        <ele>238</ele>
        <time>2020-02-29T11:58:25.000Z</time>
      </trkpt>
      <trkpt lat="49.18867" lon="6.62849">
        <ele>238</ele>
        <time>2020-02-29T11:58:35.000Z</time>
      </trkpt>
      <trkpt lat="49.18868" lon="6.62874">
        <ele>238</ele>
        <time>2020-02-29T11:58:45.000Z</time>
      </trkpt>
      <trkpt lat="49.1887" lon="6.62896">
        <ele>238</ele>
        <time>2020-02-29T11:58:55.000Z</time>
      </trkpt>
      <trkpt lat="49.1887" lon="6.62915">
        <ele>238</ele>
        <time>2020-02-29T11:59:05.000Z</time>
      </trkpt>
      <trkpt lat="49.18869" lon="6.62934">
        <ele>239</ele>
        <time>2020-02-29T11:59:15.000Z</time>
      </trkpt>
      <trkpt lat="49.18867" lon="6.62955">
        <ele>239</ele>
        <time>2020-02-29T11:59:25.000Z</time>
      </trkpt>
      <trkpt lat="49.18866" lon="6.62972">
        <ele>239</ele>
        <time>2020-02-29T11:59:35.000Z</time>
      </trkpt>
      <trkpt lat="49.18862" lon="6.6299">
        <ele>239</ele>
        <time>2020-02-29T11:59:45.000Z</time>
      </trkpt>
      <trkpt lat="49.18858" lon="6.63009">
        <ele>240</ele>
        <time>2020-02-29T11:59:55.000Z</time>
      </trkpt>
      <trkpt lat="49.18852" lon="6.6303">
        <ele>241</ele>
        <time>2020-02-29T12:00:05.000Z</time>
      </trkpt>
      <trkpt lat="49.18845" lon="6.63047">
        <ele>240</ele>
        <time>2020-02-29T12:00:15.000Z</time>
      </trkpt>
      <trkpt lat="49.18838" lon="6.63065">
        <ele>239</ele>
        <time>2020-02-29T12:00:25.000Z</time>
      </trkpt>
      <trkpt lat="49.18834" lon="6.63081">
        <ele>236</ele>
        <time>2020-02-29T12:00:35.000Z</time>
      </trkpt>
      <trkpt lat="49.18834" lon="6.63098">
        <ele>241</ele>
        <time>2020-02-29T12:00:45.000Z</time>
      </trkpt>
      <trkpt lat="49.18833" lon="6.63117">
        <ele>237</ele>
        <time>2020-02-29T12:00:55.000Z</time>
      </trkpt>
      <trkpt lat="49.18831" lon="6.63134">
        <ele>237</ele>
        <time>2020-02-29T12:01:05.000Z</time>
      </trkpt>
      <trkpt lat="49.18829" lon="6.63154">
        <ele>238</ele>
        <time>2020-02-29T12:01:15.000Z</time>
      </trkpt>
      <trkpt lat="49.18827" lon="6.63174">
        <ele>238</ele>
        <time>2020-02-29T12:01:25.000Z</time>
      </trkpt>
      <trkpt lat="49.18826" lon="6.63193">
        <ele>238</ele>
        <time>2020-02-29T12:01:35.000Z</time>
      </trkpt>
      <trkpt lat="49.18826" lon="6.63212">
        <ele>238</ele>
        <time>2020-02-29T12:01:45.000Z</time>
      </trkpt>
      <trkpt lat="49.18824" lon="6.63232">
        <ele>238</ele>
        <time>2020-02-29T12:01:55.000Z</time>
      </trkpt>
      <trkpt lat="49.18823" lon="6.63251">
        <ele>239</ele>
        <time>2020-02-29T12:02:05.000Z</time>
      </trkpt>
      <trkpt lat="49.18823" lon="6.6327">
        <ele>238</ele>
        <time>2020-02-29T12:02:15.000Z</time>
      </trkpt>
      <trkpt lat="49.18822" lon="6.63287">
        <ele>238</ele>
        <time>2020-02-29T12:02:25.000Z</time>
      </trkpt>
      <trkpt lat="49.18819" lon="6.63303">
        <ele>238</ele>
        <time>2020-02-29T12:02:35.000Z</time>
      </trkpt>
      <trkpt lat="49.18818" lon="6.6332">
        <ele>239</ele>
        <time>2020-02-29T12:02:45.000Z</time>
      </trkpt>
      <trkpt lat="49.18817" lon="6.63338">
        <ele>239</ele>
        <time>2020-02-29T12:02:55.000Z</time>
      </trkpt>
      <trkpt lat="49.18818" lon="6.63358">
        <ele>239</ele>
        <time>2020-02-29T12:03:05.000Z</time>
      </trkpt>
      <trkpt lat="49.18816" lon="6.63381">
        <ele>239</ele>
        <time>2020-02-29T12:03:15.000Z</time>
      </trkpt>
      <trkpt lat="49.18823" lon="6.63393">
        <ele>241</ele>
        <time>2020-02-29T12:03:25.000Z</time>
      </trkpt>
      <trkpt lat="49.18821" lon="6.63413">
        <ele>242</ele>
        <time>2020-02-29T12:03:35.000Z</time>
      </trkpt>
      <trkpt lat="49.18821" lon="6.63433">
        <ele>243</ele>
        <time>2020-02-29T12:03:45.000Z</time>
      </trkpt>
      <trkpt lat="49.18819" lon="6.63454">
        <ele>242</ele>
        <time>2020-02-29T12:03:55.000Z</time>
      </trkpt>
      <trkpt lat="49.18816" lon="6.63471">
        <ele>243</ele>
        <time>2020-02-29T12:04:05.000Z</time>
      </trkpt>
      <trkpt lat="49.18814" lon="6.63487">
        <ele>244</ele>
        <time>2020-02-29T12:04:15.000Z</time>
      </trkpt>
      <trkpt lat="49.18812" lon="6.63508">
        <ele>245</ele>
        <time>2020-02-29T12:04:25.000Z</time>
      </trkpt>
      <trkpt lat="49.18811" lon="6.63531">
        <ele>244</ele>
        <time>2020-02-29T12:04:35.000Z</time>
      </trkpt>
      <trkpt lat="49.18811" lon="6.63552">
        <ele>245</ele>
        <time>2020-02-29T12:04:45.000Z</time>
      </trkpt>
      <trkpt lat="49.1881" lon="6.63574">
        <ele>246</ele>
        <time>2020-02-29T12:04:55.000Z</time>
      </trkpt>
      <trkpt lat="49.18809" lon="6.63595">
        <ele>247</ele>
        <time>2020-02-29T12:05:05.000Z</time>
      </trkpt>
      <trkpt lat="49.1881" lon="6.63614">
        <ele>247</ele>
        <time>2020-02-29T12:05:15.000Z</time>
      </trkpt>
      <trkpt lat="49.18809" lon="6.63635">
        <ele>247</ele>
        <time>2020-02-29T12:05:25.000Z</time>
      </trkpt>
      <trkpt lat="49.18804" lon="6.63655">
        <ele>247</ele>
        <time>2020-02-29T12:05:35.000Z</time>
      </trkpt>
      <trkpt lat="49.18799" lon="6.63679">
        <ele>247</ele>
        <time>2020-02-29T12:05:45.000Z</time>
      </trkpt>
      <trkpt lat="49.18795" lon="6.63701">
        <ele>245</ele>
        <time>2020-02-29T12:05:55.000Z</time>
      </trkpt>
      <trkpt lat="49.1879" lon="6.63723">
        <ele>245</ele>
        <time>2020-02-29T12:06:05.000Z</time>
      </trkpt>
      <trkpt lat="49.18786" lon="6.63745">
        <ele>244</ele>
        <time>2020-02-29T12:06:15.000Z</time>
      </trkpt>
      <trkpt lat="49.18784" lon="6.63767">
        <ele>242</ele>
        <time>2020-02-29T12:06:25.000Z</time>
      </trkpt>
      <trkpt lat="49.18784" lon="6.63786">
        <ele>243</ele>
        <time>2020-02-29T12:06:35.000Z</time>
      </trkpt>
      <trkpt lat="49.18786" lon="6.63806">
        <ele>243</ele>
        <time>2020-02-29T12:06:45.000Z</time>
      </trkpt>
      <trkpt lat="49.18786" lon="6.63827">
        <ele>242</ele>
        <time>2020-02-29T12:06:55.000Z</time>
      </trkpt>
      <trkpt lat="49.18785" lon="6.63847">
        <ele>242</ele>
        <time>2020-02-29T12:07:05.000Z</time>
      </trkpt>
      <trkpt lat="49.18783" lon="6.63868">
        <ele>242</ele>
        <time>2020-02-29T12:07:15.000Z</time>
      </trkpt>
      <trkpt lat="49.18782" lon="6.63885">
        <ele>242</ele>
        <time>2020-02-29T12:07:25.000Z</time>
      </trkpt>
      <trkpt lat="49.18781" lon="6.63905">
        <ele>241</ele>
        <time>2020-02-29T12:07:35.000Z</time>
      </trkpt>
      <trkpt lat="49.18784" lon="6.63921">
        <ele>241</ele>
        <time>2020-02-29T12:07:45.000Z</time>
      </trkpt>
      <trkpt lat="49.18789" lon="6.63938">
        <ele>241</ele>
        <time>2020-02-29T12:07:55.000Z</time>
      </trkpt>
      <trkpt lat="49.18793" lon="6.63955">
        <ele>241</ele>
        <time>2020-02-29T12:08:05.000Z</time>
      </trkpt>
      <trkpt lat="49.18799" lon="6.63971">
        <ele>241</ele>
        <time>2020-02-29T12:08:15.000Z</time>
      </trkpt>
      <trkpt lat="49.18805" lon="6.63983">
        <ele>242</ele>
        <time>2020-02-29T12:08:25.000Z</time>
      </trkpt>
      <trkpt lat="49.18811" lon="6.63987">
        <ele>242</ele>
        <time>2020-02-29T12:08:35.000Z</time>
      </trkpt>
      <trkpt lat="49.18805" lon="6.63993">
        <ele>242</ele>
        <time>2020-02-29T12:09:56.000Z</time>
      </trkpt>
      <trkpt lat="49.18801" lon="6.64">
        <ele>241</ele>
        <time>2020-02-29T12:10:06.000Z</time>
      </trkpt>
      <trkpt lat="49.18799" lon="6.64001">
        <ele>240</ele>
        <time>2020-02-29T12:10:16.000Z</time>
      </trkpt>
      <trkpt lat="49.18801" lon="6.64001">
        <ele>241</ele>
        <time>2020-02-29T12:10:28.000Z</time>
      </trkpt>
      <trkpt lat="49.18809" lon="6.64013">
        <ele>241</ele>
        <time>2020-02-29T12:10:38.000Z</time>
      </trkpt>
      <trkpt lat="49.18813" lon="6.64031">
        <ele>241</ele>
        <time>2020-02-29T12:10:48.000Z</time>
      </trkpt>
      <trkpt lat="49.18815" lon="6.64051">
        <ele>241</ele>
        <time>2020-02-29T12:10:58.000Z</time>
      </trkpt>
      <trkpt lat="49.18823" lon="6.64077">
        <ele>243</ele>
        <time>2020-02-29T12:11:08.000Z</time>
      </trkpt>
      <trkpt lat="49.18829" lon="6.641">
        <ele>243</ele>
        <time>2020-02-29T12:11:18.000Z</time>
      </trkpt>
      <trkpt lat="49.18831" lon="6.64122">
        <ele>242</ele>
        <time>2020-02-29T12:11:28.000Z</time>
      </trkpt>
      <trkpt lat="49.18834" lon="6.64141">
        <ele>255</ele>
        <time>2020-02-29T12:11:38.000Z</time>
      </trkpt>
      <trkpt lat="49.18837" lon="6.64162">
        <ele>251</ele>
        <time>2020-02-29T12:11:48.000Z</time>
      </trkpt>
      <trkpt lat="49.18842" lon="6.64184">
        <ele>255</ele>
        <time>2020-02-29T12:11:58.000Z</time>
      </trkpt>
      <trkpt lat="49.18841" lon="6.64199">
        <ele>257</ele>
        <time>2020-02-29T12:12:08.000Z</time>
      </trkpt>
      <trkpt lat="49.1884" lon="6.64205">
        <ele>257</ele>
        <time>2020-02-29T12:12:18.000Z</time>
      </trkpt>
      <trkpt lat="49.18839" lon="6.64214">
        <ele>256</ele>
        <time>2020-02-29T12:12:28.000Z</time>
      </trkpt>
      <trkpt lat="49.18838" lon="6.64233">
        <ele>254</ele>
        <time>2020-02-29T12:12:38.000Z</time>
      </trkpt>
      <trkpt lat="49.18839" lon="6.64251">
        <ele>249</ele>
        <time>2020-02-29T12:12:48.000Z</time>
      </trkpt>
      <trkpt lat="49.18845" lon="6.64282">
        <ele>253</ele>
        <time>2020-02-29T12:12:58.000Z</time>
      </trkpt>
      <trkpt lat="49.1885" lon="6.64306">
        <ele>252</ele>
        <time>2020-02-29T12:13:08.000Z</time>
      </trkpt>
      <trkpt lat="49.18854" lon="6.64326">
        <ele>250</ele>
        <time>2020-02-29T12:13:18.000Z</time>
      </trkpt>
      <trkpt lat="49.18858" lon="6.64343">
        <ele>245</ele>
        <time>2020-02-29T12:13:28.000Z</time>
      </trkpt>
      <trkpt lat="49.18861" lon="6.64361">
        <ele>245</ele>
        <time>2020-02-29T12:13:38.000Z</time>
      </trkpt>
      <trkpt lat="49.18862" lon="6.64376">
        <ele>244</ele>
        <time>2020-02-29T12:13:48.000Z</time>
      </trkpt>
      <trkpt lat="49.18861" lon="6.64402">
        <ele>241</ele>
        <time>2020-02-29T12:13:58.000Z</time>
      </trkpt>
      <trkpt lat="49.18858" lon="6.64426">
        <ele>236</ele>
        <time>2020-02-29T12:14:08.000Z</time>
      </trkpt>
      <trkpt lat="49.18857" lon="6.64445">
        <ele>236</ele>
        <time>2020-02-29T12:14:18.000Z</time>
      </trkpt>
      <trkpt lat="49.18851" lon="6.64469">
        <ele>236</ele>
        <time>2020-02-29T12:14:28.000Z</time>
      </trkpt>
      <trkpt lat="49.18847" lon="6.6449">
        <ele>235</ele>
        <time>2020-02-29T12:14:38.000Z</time>
      </trkpt>
      <trkpt lat="49.18844" lon="6.6451">
        <ele>235</ele>
        <time>2020-02-29T12:14:48.000Z</time>
      </trkpt>
      <trkpt lat="49.18843" lon="6.64532">
        <ele>236</ele>
        <time>2020-02-29T12:14:58.000Z</time>
      </trkpt>
      <trkpt lat="49.18844" lon="6.64556">
        <ele>237</ele>
        <time>2020-02-29T12:15:08.000Z</time>
      </trkpt>
      <trkpt lat="49.18847" lon="6.64579">
        <ele>237</ele>
        <time>2020-02-29T12:15:18.000Z</time>
      </trkpt>
      <trkpt lat="49.18851" lon="6.64601">
        <ele>239</ele>
        <time>2020-02-29T12:15:28.000Z</time>
      </trkpt>
      <trkpt lat="49.18855" lon="6.64617">
        <ele>240</ele>
        <time>2020-02-29T12:15:38.000Z</time>
      </trkpt>
      <trkpt lat="49.18859" lon="6.64629">
        <ele>240</ele>
        <time>2020-02-29T12:15:48.000Z</time>
      </trkpt>
      <trkpt lat="49.18865" lon="6.64633">
        <ele>240</ele>
        <time>2020-02-29T12:15:58.000Z</time>
      </trkpt>
      <trkpt lat="49.18872" lon="6.64631">
        <ele>240</ele>
        <time>2020-02-29T12:16:08.000Z</time>
      </trkpt>
      <trkpt lat="49.18878" lon="6.64632">
        <ele>240</ele>
        <time>2020-02-29T12:16:18.000Z</time>
      </trkpt>
      <trkpt lat="49.18885" lon="6.64633">
        <ele>241</ele>
        <time>2020-02-29T12:16:28.000Z</time>
      </trkpt>
      <trkpt lat="49.18894" lon="6.64641">
        <ele>241</ele>
        <time>2020-02-29T12:16:38.000Z</time>
      </trkpt>
      <trkpt lat="49.18906" lon="6.64643">
        <ele>242</ele>
        <time>2020-02-29T12:16:48.000Z</time>
      </trkpt>
      <trkpt lat="49.1892" lon="6.64646">
        <ele>245</ele>
        <time>2020-02-29T12:16:58.000Z</time>
      </trkpt>
      <trkpt lat="49.18934" lon="6.64652">
        <ele>246</ele>
        <time>2020-02-29T12:17:08.000Z</time>
      </trkpt>
      <trkpt lat="49.18947" lon="6.64656">
        <ele>246</ele>
        <time>2020-02-29T12:17:18.000Z</time>
      </trkpt>
      <trkpt lat="49.18961" lon="6.64662">
        <ele>247</ele>
        <time>2020-02-29T12:17:28.000Z</time>
      </trkpt>
      <trkpt lat="49.18975" lon="6.64669">
        <ele>248</ele>
        <time>2020-02-29T12:17:38.000Z</time>
      </trkpt>
      <trkpt lat="49.18992" lon="6.64676">
        <ele>249</ele>
        <time>2020-02-29T12:17:48.000Z</time>
      </trkpt>
      <trkpt lat="49.19005" lon="6.64681">
        <ele>252</ele>
        <time>2020-02-29T12:17:58.000Z</time>
      </trkpt>
      <trkpt lat="49.19018" lon="6.64694">
        <ele>253</ele>
        <time>2020-02-29T12:18:08.000Z</time>
      </trkpt>
      <trkpt lat="49.19031" lon="6.64702">
        <ele>253</ele>
        <time>2020-02-29T12:18:18.000Z</time>
      </trkpt>
      <trkpt lat="49.19044" lon="6.64708">
        <ele>254</ele>
        <time>2020-02-29T12:18:28.000Z</time>
      </trkpt>
      <trkpt lat="49.1906" lon="6.64725">
        <ele>254</ele>
        <time>2020-02-29T12:18:38.000Z</time>
      </trkpt>
      <trkpt lat="49.19072" lon="6.64737">
        <ele>255</ele>
        <time>2020-02-29T12:18:48.000Z</time>
      </trkpt>
      <trkpt lat="49.19083" lon="6.64747">
        <ele>256</ele>
        <time>2020-02-29T12:18:58.000Z</time>
      </trkpt>
      <trkpt lat="49.19093" lon="6.64755">
        <ele>259</ele>
        <time>2020-02-29T12:19:08.000Z</time>
      </trkpt>
      <trkpt lat="49.19106" lon="6.6477">
        <ele>261</ele>
        <time>2020-02-29T12:19:18.000Z</time>
      </trkpt>
      <trkpt lat="49.19117" lon="6.6478">
        <ele>262</ele>
        <time>2020-02-29T12:19:28.000Z</time>
      </trkpt>
      <trkpt lat="49.19125" lon="6.64796">
        <ele>263</ele>
        <time>2020-02-29T12:19:38.000Z</time>
      </trkpt>
      <trkpt lat="49.19134" lon="6.64821">
        <ele>263</ele>
        <time>2020-02-29T12:19:48.000Z</time>
      </trkpt>
      <trkpt lat="49.19141" lon="6.64847">
        <ele>263</ele>
        <time>2020-02-29T12:19:58.000Z</time>
      </trkpt>
      <trkpt lat="49.19145" lon="6.64876">
        <ele>262</ele>
        <time>2020-02-29T12:20:08.000Z</time>
      </trkpt>
      <trkpt lat="49.19147" lon="6.64897">
        <ele>262</ele>
        <time>2020-02-29T12:20:18.000Z</time>
      </trkpt>
      <trkpt lat="49.19149" lon="6.64915">
        <ele>262</ele>
        <time>2020-02-29T12:20:28.000Z</time>
      </trkpt>
      <trkpt lat="49.19154" lon="6.64932">
        <ele>261</ele>
        <time>2020-02-29T12:20:38.000Z</time>
      </trkpt>
      <trkpt lat="49.19156" lon="6.64956">
        <ele>260</ele>
        <time>2020-02-29T12:20:48.000Z</time>
      </trkpt>
      <trkpt lat="49.19159" lon="6.64979">
        <ele>261</ele>
        <time>2020-02-29T12:20:58.000Z</time>
      </trkpt>
      <trkpt lat="49.1916" lon="6.64997">
        <ele>263</ele>
        <time>2020-02-29T12:21:08.000Z</time>
      </trkpt>
      <trkpt lat="49.19164" lon="6.65014">
        <ele>262</ele>
        <time>2020-02-29T12:21:18.000Z</time>
      </trkpt>
      <trkpt lat="49.19169" lon="6.65031">
        <ele>269</ele>
        <time>2020-02-29T12:21:28.000Z</time>
      </trkpt>
      <trkpt lat="49.19174" lon="6.65058">
        <ele>269</ele>
        <time>2020-02-29T12:21:38.000Z</time>
      </trkpt>
      <trkpt lat="49.1918" lon="6.6508">
        <ele>267</ele>
        <time>2020-02-29T12:21:48.000Z</time>
      </trkpt>
      <trkpt lat="49.19182" lon="6.65101">
        <ele>267</ele>
        <time>2020-02-29T12:21:58.000Z</time>
      </trkpt>
      <trkpt lat="49.19187" lon="6.65118">
        <ele>268</ele>
        <time>2020-02-29T12:22:08.000Z</time>
      </trkpt>
      <trkpt lat="49.19193" lon="6.65132">
        <ele>268</ele>
        <time>2020-02-29T12:22:18.000Z</time>
      </trkpt>
      <trkpt lat="49.19196" lon="6.65148">
        <ele>267</ele>
        <time>2020-02-29T12:22:28.000Z</time>
      </trkpt>
      <trkpt lat="49.19202" lon="6.65165">
        <ele>268</ele>
        <time>2020-02-29T12:22:38.000Z</time>
      </trkpt>
      <trkpt lat="49.19207" lon="6.65192">
        <ele>266</ele>
        <time>2020-02-29T12:22:48.000Z</time>
      </trkpt>
      <trkpt lat="49.19213" lon="6.65216">
        <ele>266</ele>
        <time>2020-02-29T12:22:58.000Z</time>
      </trkpt>
      <trkpt lat="49.19217" lon="6.65237">
        <ele>266</ele>
        <time>2020-02-29T12:23:08.000Z</time>
      </trkpt>
      <trkpt lat="49.19222" lon="6.65256">
        <ele>265</ele>
        <time>2020-02-29T12:23:18.000Z</time>
      </trkpt>
      <trkpt lat="49.19226" lon="6.65275">
        <ele>265</ele>
        <time>2020-02-29T12:23:28.000Z</time>
      </trkpt>
      <trkpt lat="49.19231" lon="6.65298">
        <ele>264</ele>
        <time>2020-02-29T12:23:38.000Z</time>
      </trkpt>
      <trkpt lat="49.19234" lon="6.65321">
        <ele>265</ele>
        <time>2020-02-29T12:23:48.000Z</time>
      </trkpt>
      <trkpt lat="49.19235" lon="6.65347">
        <ele>264</ele>
        <time>2020-02-29T12:23:58.000Z</time>
      </trkpt>
      <trkpt lat="49.19237" lon="6.6537">
        <ele>262</ele>
        <time>2020-02-29T12:24:08.000Z</time>
      </trkpt>
      <trkpt lat="49.1924" lon="6.65392">
        <ele>262</ele>
        <time>2020-02-29T12:24:18.000Z</time>
      </trkpt>
      <trkpt lat="49.19243" lon="6.65411">
        <ele>263</ele>
        <time>2020-02-29T12:24:28.000Z</time>
      </trkpt>
      <trkpt lat="49.19247" lon="6.65431">
        <ele>262</ele>
        <time>2020-02-29T12:24:38.000Z</time>
      </trkpt>
      <trkpt lat="49.19252" lon="6.65451">
        <ele>271</ele>
        <time>2020-02-29T12:24:48.000Z</time>
      </trkpt>
      <trkpt lat="49.19257" lon="6.65468">
        <ele>271</ele>
        <time>2020-02-29T12:24:58.000Z</time>
      </trkpt>
      <trkpt lat="49.19263" lon="6.65484">
        <ele>269</ele>
        <time>2020-02-29T12:25:08.000Z</time>
      </trkpt>
      <trkpt lat="49.19269" lon="6.655">
        <ele>269</ele>
        <time>2020-02-29T12:25:18.000Z</time>
      </trkpt>
      <trkpt lat="49.19275" lon="6.65518">
        <ele>268</ele>
        <time>2020-02-29T12:25:28.000Z</time>
      </trkpt>
      <trkpt lat="49.19283" lon="6.65525">
        <ele>269</ele>
        <time>2020-02-29T12:25:38.000Z</time>
      </trkpt>
      <trkpt lat="49.19287" lon="6.65536">
        <ele>269</ele>
        <time>2020-02-29T12:25:48.000Z</time>
      </trkpt>
      <trkpt lat="49.19288" lon="6.65561">
        <ele>268</ele>
        <time>2020-02-29T12:25:58.000Z</time>
      </trkpt>
      <trkpt lat="49.19301" lon="6.65588">
        <ele>264</ele>
        <time>2020-02-29T12:26:08.000Z</time>
      </trkpt>
      <trkpt lat="49.19311" lon="6.65602">
        <ele>265</ele>
        <time>2020-02-29T12:26:18.000Z</time>
      </trkpt>
      <trkpt lat="49.19317" lon="6.65616">
        <ele>264</ele>
        <time>2020-02-29T12:26:28.000Z</time>
      </trkpt>
      <trkpt lat="49.19322" lon="6.65628">
        <ele>264</ele>
        <time>2020-02-29T12:26:38.000Z</time>
      </trkpt>
      <trkpt lat="49.1933" lon="6.65635">
        <ele>264</ele>
        <time>2020-02-29T12:26:48.000Z</time>
      </trkpt>
      <trkpt lat="49.19335" lon="6.65647">
        <ele>268</ele>
        <time>2020-02-29T12:26:58.000Z</time>
      </trkpt>
      <trkpt lat="49.19347" lon="6.65659">
        <ele>268</ele>
        <time>2020-02-29T12:27:08.000Z</time>
      </trkpt>
      <trkpt lat="49.19361" lon="6.65669">
        <ele>265</ele>
        <time>2020-02-29T12:27:18.000Z</time>
      </trkpt>
      <trkpt lat="49.19376" lon="6.65681">
        <ele>266</ele>
        <time>2020-02-29T12:27:28.000Z</time>
      </trkpt>
      <trkpt lat="49.19388" lon="6.65691">
        <ele>266</ele>
        <time>2020-02-29T12:27:38.000Z</time>
      </trkpt>
      <trkpt lat="49.19399" lon="6.65702">
        <ele>266</ele>
        <time>2020-02-29T12:27:48.000Z</time>
      </trkpt>
      <trkpt lat="49.19411" lon="6.65719">
        <ele>265</ele>
        <time>2020-02-29T12:27:58.000Z</time>
      </trkpt>
      <trkpt lat="49.19422" lon="6.65732">
        <ele>266</ele>
        <time>2020-02-29T12:28:08.000Z</time>
      </trkpt>
      <trkpt lat="49.19432" lon="6.65748">
        <ele>265</ele>
        <time>2020-02-29T12:28:18.000Z</time>
      </trkpt>
      <trkpt lat="49.19443" lon="6.65768">
        <ele>262</ele>
        <time>2020-02-29T12:28:28.000Z</time>
      </trkpt>
      <trkpt lat="49.19448" lon="6.65766">
        <ele>262</ele>
        <time>2020-02-29T12:28:38.000Z</time>
      </trkpt>
      <trkpt lat="49.19446" lon="6.65769">
        <ele>262</ele>
        <time>2020-02-29T12:28:48.000Z</time>
      </trkpt>
      <trkpt lat="49.19445" lon="6.65781">
        <ele>261</ele>
        <time>2020-02-29T12:31:20.000Z</time>
      </trkpt>
      <trkpt lat="49.19446" lon="6.65782">
        <ele>261</ele>
        <time>2020-02-29T12:31:30.000Z</time>
      </trkpt>
      <trkpt lat="49.19445" lon="6.65783">
        <ele>261</ele>
        <time>2020-02-29T12:32:03.000Z</time>
      </trkpt>
      <trkpt lat="49.19446" lon="6.65785">
        <ele>261</ele>
        <time>2020-02-29T12:35:08.000Z</time>
      </trkpt>
      <trkpt lat="49.19454" lon="6.65798">
        <ele>260</ele>
        <time>2020-02-29T12:35:18.000Z</time>
      </trkpt>
      <trkpt lat="49.19463" lon="6.65813">
        <ele>260</ele>
        <time>2020-02-29T12:35:28.000Z</time>
      </trkpt>
      <trkpt lat="49.19476" lon="6.65833">
        <ele>259</ele>
        <time>2020-02-29T12:35:38.000Z</time>
      </trkpt>
      <trkpt lat="49.19486" lon="6.65851">
        <ele>256</ele>
        <time>2020-02-29T12:35:48.000Z</time>
      </trkpt>
      <trkpt lat="49.19496" lon="6.65866">
        <ele>255</ele>
        <time>2020-02-29T12:35:58.000Z</time>
      </trkpt>
      <trkpt lat="49.19506" lon="6.65879">
        <ele>251</ele>
        <time>2020-02-29T12:36:08.000Z</time>
      </trkpt>
      <trkpt lat="49.19514" lon="6.65891">
        <ele>250</ele>
        <time>2020-02-29T12:36:18.000Z</time>
      </trkpt>
      <trkpt lat="49.19523" lon="6.65902">
        <ele>249</ele>
        <time>2020-02-29T12:36:28.000Z</time>
      </trkpt>
      <trkpt lat="49.19534" lon="6.65913">
        <ele>248</ele>
        <time>2020-02-29T12:36:38.000Z</time>
      </trkpt>
      <trkpt lat="49.19545" lon="6.65931">
        <ele>243</ele>
        <time>2020-02-29T12:36:48.000Z</time>
      </trkpt>
      <trkpt lat="49.19544" lon="6.65961">
        <ele>242</ele>
        <time>2020-02-29T12:36:58.000Z</time>
      </trkpt>
      <trkpt lat="49.19544" lon="6.65987">
        <ele>241</ele>
        <time>2020-02-29T12:37:08.000Z</time>
      </trkpt>
      <trkpt lat="49.19541" lon="6.66011">
        <ele>239</ele>
        <time>2020-02-29T12:37:18.000Z</time>
      </trkpt>
      <trkpt lat="49.19536" lon="6.66031">
        <ele>239</ele>
        <time>2020-02-29T12:37:28.000Z</time>
      </trkpt>
      <trkpt lat="49.19533" lon="6.66049">
        <ele>239</ele>
        <time>2020-02-29T12:37:38.000Z</time>
      </trkpt>
      <trkpt lat="49.1953" lon="6.66068">
        <ele>239</ele>
        <time>2020-02-29T12:37:48.000Z</time>
      </trkpt>
      <trkpt lat="49.19525" lon="6.66089">
        <ele>239</ele>
        <time>2020-02-29T12:37:58.000Z</time>
      </trkpt>
      <trkpt lat="49.1952" lon="6.66109">
        <ele>240</ele>
        <time>2020-02-29T12:38:08.000Z</time>
      </trkpt>
      <trkpt lat="49.19516" lon="6.66129">
        <ele>240</ele>
        <time>2020-02-29T12:38:18.000Z</time>
      </trkpt>
      <trkpt lat="49.19512" lon="6.66151">
        <ele>240</ele>
        <time>2020-02-29T12:38:28.000Z</time>
      </trkpt>
      <trkpt lat="49.19508" lon="6.66173">
        <ele>240</ele>
        <time>2020-02-29T12:38:38.000Z</time>
      </trkpt>
      <trkpt lat="49.19501" lon="6.66192">
        <ele>241</ele>
        <time>2020-02-29T12:38:48.000Z</time>
      </trkpt>
      <trkpt lat="49.19496" lon="6.66215">
        <ele>238</ele>
        <time>2020-02-29T12:38:58.000Z</time>
      </trkpt>
      <trkpt lat="49.1949" lon="6.66237">
        <ele>239</ele>
        <time>2020-02-29T12:39:08.000Z</time>
      </trkpt>
      <trkpt lat="49.19492" lon="6.66252">
        <ele>240</ele>
        <time>2020-02-29T12:39:18.000Z</time>
      </trkpt>
      <trkpt lat="49.19491" lon="6.66261">
        <ele>240</ele>
        <time>2020-02-29T12:39:28.000Z</time>
      </trkpt>
      <trkpt lat="49.19491" lon="6.66284">
        <ele>239</ele>
        <time>2020-02-29T12:39:38.000Z</time>
      </trkpt>
      <trkpt lat="49.19497" lon="6.66301">
        <ele>239</ele>
        <time>2020-02-29T12:39:48.000Z</time>
      </trkpt>
      <trkpt lat="49.19501" lon="6.6632">
        <ele>242</ele>
        <time>2020-02-29T12:39:58.000Z</time>
      </trkpt>
      <trkpt lat="49.19503" lon="6.66341">
        <ele>243</ele>
        <time>2020-02-29T12:40:08.000Z</time>
      </trkpt>
      <trkpt lat="49.19506" lon="6.66362">
        <ele>246</ele>
        <time>2020-02-29T12:40:18.000Z</time>
      </trkpt>
      <trkpt lat="49.19507" lon="6.66385">
        <ele>247</ele>
        <time>2020-02-29T12:40:28.000Z</time>
      </trkpt>
      <trkpt lat="49.19505" lon="6.66407">
        <ele>245</ele>
        <time>2020-02-29T12:40:38.000Z</time>
      </trkpt>
      <trkpt lat="49.19505" lon="6.66427">
        <ele>246</ele>
        <time>2020-02-29T12:40:48.000Z</time>
      </trkpt>
      <trkpt lat="49.19505" lon="6.66451">
        <ele>247</ele>
        <time>2020-02-29T12:40:58.000Z</time>
      </trkpt>
      <trkpt lat="49.19506" lon="6.6647">
        <ele>247</ele>
        <time>2020-02-29T12:41:08.000Z</time>
      </trkpt>
      <trkpt lat="49.19512" lon="6.66465">
        <ele>248</ele>
        <time>2020-02-29T12:41:18.000Z</time>
      </trkpt>
      <trkpt lat="49.19519" lon="6.66461">
        <ele>248</ele>
        <time>2020-02-29T12:41:28.000Z</time>
      </trkpt>
      <trkpt lat="49.19529" lon="6.66464">
        <ele>249</ele>
        <time>2020-02-29T12:41:38.000Z</time>
      </trkpt>
      <trkpt lat="49.19539" lon="6.66472">
        <ele>250</ele>
        <time>2020-02-29T12:41:48.000Z</time>
      </trkpt>
      <trkpt lat="49.19549" lon="6.66477">
        <ele>251</ele>
        <time>2020-02-29T12:41:58.000Z</time>
      </trkpt>
      <trkpt lat="49.19557" lon="6.66492">
        <ele>252</ele>
        <time>2020-02-29T12:42:08.000Z</time>
      </trkpt>
      <trkpt lat="49.19568" lon="6.66505">
        <ele>253</ele>
        <time>2020-02-29T12:42:18.000Z</time>
      </trkpt>
      <trkpt lat="49.19577" lon="6.66522">
        <ele>253</ele>
        <time>2020-02-29T12:42:28.000Z</time>
      </trkpt>
      <trkpt lat="49.1958" lon="6.66545">
        <ele>252</ele>
        <time>2020-02-29T12:42:38.000Z</time>
      </trkpt>
      <trkpt lat="49.19583" lon="6.66573">
        <ele>255</ele>
        <time>2020-02-29T12:42:48.000Z</time>
      </trkpt>
      <trkpt lat="49.1958" lon="6.66593">
        <ele>255</ele>
        <time>2020-02-29T12:42:58.000Z</time>
      </trkpt>
      <trkpt lat="49.19578" lon="6.66612">
        <ele>252</ele>
        <time>2020-02-29T12:43:08.000Z</time>
      </trkpt>
      <trkpt lat="49.1958" lon="6.66632">
        <ele>252</ele>
        <time>2020-02-29T12:43:18.000Z</time>
      </trkpt>
      <trkpt lat="49.19577" lon="6.66652">
        <ele>252</ele>
        <time>2020-02-29T12:43:28.000Z</time>
      </trkpt>
      <trkpt lat="49.19579" lon="6.66666">
        <ele>254</ele>
        <time>2020-02-29T12:43:38.000Z</time>
      </trkpt>
      <trkpt lat="49.19579" lon="6.66679">
        <ele>252</ele>
        <time>2020-02-29T12:43:48.000Z</time>
      </trkpt>
      <trkpt lat="49.19585" lon="6.66696">
        <ele>256</ele>
        <time>2020-02-29T12:43:58.000Z</time>
      </trkpt>
      <trkpt lat="49.1959" lon="6.66715">
        <ele>256</ele>
        <time>2020-02-29T12:44:08.000Z</time>
      </trkpt>
      <trkpt lat="49.19595" lon="6.66735">
        <ele>255</ele>
        <time>2020-02-29T12:44:18.000Z</time>
      </trkpt>
      <trkpt lat="49.196" lon="6.66755">
        <ele>254</ele>
        <time>2020-02-29T12:44:28.000Z</time>
      </trkpt>
      <trkpt lat="49.19606" lon="6.66778">
        <ele>254</ele>
        <time>2020-02-29T12:44:38.000Z</time>
      </trkpt>
      <trkpt lat="49.1961" lon="6.66794">
        <ele>253</ele>
        <time>2020-02-29T12:44:48.000Z</time>
      </trkpt>
      <trkpt lat="49.19611" lon="6.66812">
        <ele>253</ele>
        <time>2020-02-29T12:44:58.000Z</time>
      </trkpt>
      <trkpt lat="49.19615" lon="6.66833">
        <ele>253</ele>
        <time>2020-02-29T12:45:08.000Z</time>
      </trkpt>
      <trkpt lat="49.19618" lon="6.66852">
        <ele>251</ele>
        <time>2020-02-29T12:45:18.000Z</time>
      </trkpt>
      <trkpt lat="49.1962" lon="6.66869">
        <ele>251</ele>
        <time>2020-02-29T12:45:28.000Z</time>
      </trkpt>
      <trkpt lat="49.19621" lon="6.66888">
        <ele>251</ele>
        <time>2020-02-29T12:45:38.000Z</time>
      </trkpt>
      <trkpt lat="49.19623" lon="6.66907">
        <ele>250</ele>
        <time>2020-02-29T12:45:48.000Z</time>
      </trkpt>
      <trkpt lat="49.19626" lon="6.66928">
        <ele>247</ele>
        <time>2020-02-29T12:45:58.000Z</time>
      </trkpt>
      <trkpt lat="49.19632" lon="6.66944">
        <ele>247</ele>
        <time>2020-02-29T12:46:08.000Z</time>
      </trkpt>
      <trkpt lat="49.19635" lon="6.66959">
        <ele>246</ele>
        <time>2020-02-29T12:46:18.000Z</time>
      </trkpt>
      <trkpt lat="49.19638" lon="6.66978">
        <ele>245</ele>
        <time>2020-02-29T12:46:28.000Z</time>
      </trkpt>
      <trkpt lat="49.19635" lon="6.67003">
        <ele>241</ele>
        <time>2020-02-29T12:46:38.000Z</time>
      </trkpt>
      <trkpt lat="49.1963" lon="6.67031">
        <ele>241</ele>
        <time>2020-02-29T12:46:48.000Z</time>
      </trkpt>
      <trkpt lat="49.19622" lon="6.67051">
        <ele>240</ele>
        <time>2020-02-29T12:46:58.000Z</time>
      </trkpt>
      <trkpt lat="49.19614" lon="6.67066">
        <ele>239</ele>
        <time>2020-02-29T12:47:08.000Z</time>
      </trkpt>
      <trkpt lat="49.19602" lon="6.6708">
        <ele>238</ele>
        <time>2020-02-29T12:47:18.000Z</time>
      </trkpt>
      <trkpt lat="49.19591" lon="6.67096">
        <ele>236</ele>
        <time>2020-02-29T12:47:28.000Z</time>
      </trkpt>
      <trkpt lat="49.19578" lon="6.67111">
        <ele>234</ele>
        <time>2020-02-29T12:47:38.000Z</time>
      </trkpt>
      <trkpt lat="49.19566" lon="6.67127">
        <ele>233</ele>
        <time>2020-02-29T12:47:48.000Z</time>
      </trkpt>
      <trkpt lat="49.19555" lon="6.67143">
        <ele>233</ele>
        <time>2020-02-29T12:47:58.000Z</time>
      </trkpt>
      <trkpt lat="49.19546" lon="6.6716">
        <ele>232</ele>
        <time>2020-02-29T12:48:08.000Z</time>
      </trkpt>
      <trkpt lat="49.19537" lon="6.67175">
        <ele>231</ele>
        <time>2020-02-29T12:48:18.000Z</time>
      </trkpt>
      <trkpt lat="49.19527" lon="6.67194">
        <ele>231</ele>
        <time>2020-02-29T12:48:28.000Z</time>
      </trkpt>
      <trkpt lat="49.19516" lon="6.67211">
        <ele>230</ele>
        <time>2020-02-29T12:48:38.000Z</time>
      </trkpt>
      <trkpt lat="49.19508" lon="6.67229">
        <ele>230</ele>
        <time>2020-02-29T12:48:48.000Z</time>
      </trkpt>
      <trkpt lat="49.195" lon="6.67245">
        <ele>229</ele>
        <time>2020-02-29T12:48:58.000Z</time>
      </trkpt>
      <trkpt lat="49.19493" lon="6.67262">
        <ele>227</ele>
        <time>2020-02-29T12:49:08.000Z</time>
      </trkpt>
      <trkpt lat="49.19486" lon="6.67279">
        <ele>227</ele>
        <time>2020-02-29T12:49:18.000Z</time>
      </trkpt>
      <trkpt lat="49.19476" lon="6.67292">
        <ele>227</ele>
        <time>2020-02-29T12:49:28.000Z</time>
      </trkpt>
      <trkpt lat="49.19468" lon="6.67309">
        <ele>227</ele>
        <time>2020-02-29T12:49:38.000Z</time>
      </trkpt>
      <trkpt lat="49.19462" lon="6.67327">
        <ele>227</ele>
        <time>2020-02-29T12:49:48.000Z</time>
      </trkpt>
      <trkpt lat="49.19455" lon="6.67345">
        <ele>227</ele>
        <time>2020-02-29T12:49:58.000Z</time>
      </trkpt>
      <trkpt lat="49.19449" lon="6.67364">
        <ele>227</ele>
        <time>2020-02-29T12:50:08.000Z</time>
      </trkpt>
      <trkpt lat="49.19442" lon="6.6738">
        <ele>227</ele>
        <time>2020-02-29T12:50:18.000Z</time>
      </trkpt>
      <trkpt lat="49.19435" lon="6.674">
        <ele>227</ele>
        <time>2020-02-29T12:50:28.000Z</time>
      </trkpt>
      <trkpt lat="49.19427" lon="6.67419">
        <ele>227</ele>
        <time>2020-02-29T12:50:38.000Z</time>
      </trkpt>
      <trkpt lat="49.19419" lon="6.67438">
        <ele>227</ele>
        <time>2020-02-29T12:50:48.000Z</time>
      </trkpt>
      <trkpt lat="49.19412" lon="6.67455">
        <ele>225</ele>
        <time>2020-02-29T12:50:58.000Z</time>
      </trkpt>
      <trkpt lat="49.19405" lon="6.67471">
        <ele>225</ele>
        <time>2020-02-29T12:51:08.000Z</time>
      </trkpt>
      <trkpt lat="49.19396" lon="6.67487">
        <ele>225</ele>
        <time>2020-02-29T12:51:18.000Z</time>
      </trkpt>
      <trkpt lat="49.19386" lon="6.67501">
        <ele>225</ele>
        <time>2020-02-29T12:51:28.000Z</time>
      </trkpt>
      <trkpt lat="49.19372" lon="6.67507">
        <ele>224</ele>
        <time>2020-02-29T12:51:38.000Z</time>
      </trkpt>
      <trkpt lat="49.19369" lon="6.67522">
        <ele>224</ele>
        <time>2020-02-29T12:51:48.000Z</time>
      </trkpt>
      <trkpt lat="49.19366" lon="6.67536">
        <ele>224</ele>
        <time>2020-02-29T12:51:58.000Z</time>
      </trkpt>
      <trkpt lat="49.19362" lon="6.67554">
        <ele>224</ele>
        <time>2020-02-29T12:52:08.000Z</time>
      </trkpt>
      <trkpt lat="49.19358" lon="6.67572">
        <ele>224</ele>
        <time>2020-02-29T12:52:18.000Z</time>
      </trkpt>
      <trkpt lat="49.19356" lon="6.67591">
        <ele>224</ele>
        <time>2020-02-29T12:52:28.000Z</time>
      </trkpt>
      <trkpt lat="49.19354" lon="6.67613">
        <ele>224</ele>
        <time>2020-02-29T12:52:38.000Z</time>
      </trkpt>
      <trkpt lat="49.19348" lon="6.67632">
        <ele>224</ele>
        <time>2020-02-29T12:52:48.000Z</time>
      </trkpt>
      <trkpt lat="49.1934" lon="6.67653">
        <ele>224</ele>
        <time>2020-02-29T12:52:58.000Z</time>
      </trkpt>
      <trkpt lat="49.19332" lon="6.67671">
        <ele>222</ele>
        <time>2020-02-29T12:53:08.000Z</time>
      </trkpt>
      <trkpt lat="49.19317" lon="6.6767">
        <ele>221</ele>
        <time>2020-02-29T12:53:18.000Z</time>
      </trkpt>
      <trkpt lat="49.19314" lon="6.67684">
        <ele>221</ele>
        <time>2020-02-29T12:53:28.000Z</time>
      </trkpt>
      <trkpt lat="49.19321" lon="6.67694">
        <ele>221</ele>
        <time>2020-02-29T12:53:38.000Z</time>
      </trkpt>
      <trkpt lat="49.19317" lon="6.67711">
        <ele>220</ele>
        <time>2020-02-29T12:53:48.000Z</time>
      </trkpt>
      <trkpt lat="49.19314" lon="6.67731">
        <ele>220</ele>
        <time>2020-02-29T12:53:58.000Z</time>
      </trkpt>
      <trkpt lat="49.19306" lon="6.67746">
        <ele>220</ele>
        <time>2020-02-29T12:54:08.000Z</time>
      </trkpt>
      <trkpt lat="49.19297" lon="6.67761">
        <ele>219</ele>
        <time>2020-02-29T12:54:18.000Z</time>
      </trkpt>
      <trkpt lat="49.19291" lon="6.67779">
        <ele>219</ele>
        <time>2020-02-29T12:54:28.000Z</time>
      </trkpt>
      <trkpt lat="49.19283" lon="6.67795">
        <ele>219</ele>
        <time>2020-02-29T12:54:38.000Z</time>
      </trkpt>
      <trkpt lat="49.19275" lon="6.67812">
        <ele>219</ele>
        <time>2020-02-29T12:54:48.000Z</time>
      </trkpt>
      <trkpt lat="49.1927" lon="6.6783">
        <ele>219</ele>
        <time>2020-02-29T12:54:58.000Z</time>
      </trkpt>
      <trkpt lat="49.19265" lon="6.67847">
        <ele>218</ele>
        <time>2020-02-29T12:55:08.000Z</time>
      </trkpt>
      <trkpt lat="49.19256" lon="6.67865">
        <ele>219</ele>
        <time>2020-02-29T12:55:18.000Z</time>
      </trkpt>
      <trkpt lat="49.19251" lon="6.67871">
        <ele>219</ele>
        <time>2020-02-29T12:55:28.000Z</time>
      </trkpt>
      <trkpt lat="49.19248" lon="6.67867">
        <ele>218</ele>
        <time>2020-02-29T12:55:38.000Z</time>
      </trkpt>
      <trkpt lat="49.19246" lon="6.67866">
        <ele>218</ele>
        <time>2020-02-29T12:55:48.000Z</time>
      </trkpt>
      <trkpt lat="49.19244" lon="6.67868">
        <ele>217</ele>
        <time>2020-02-29T12:55:58.000Z</time>
      </trkpt>
      <trkpt lat="49.19241" lon="6.67873">
        <ele>217</ele>
        <time>2020-02-29T12:56:10.000Z</time>
      </trkpt>
      <trkpt lat="49.19242" lon="6.67886">
        <ele>218</ele>
        <time>2020-02-29T12:56:20.000Z</time>
      </trkpt>
      <trkpt lat="49.1924" lon="6.67899">
        <ele>218</ele>
        <time>2020-02-29T12:56:30.000Z</time>
      </trkpt>
      <trkpt lat="49.19234" lon="6.67913">
        <ele>218</ele>
        <time>2020-02-29T12:56:40.000Z</time>
      </trkpt>
      <trkpt lat="49.19225" lon="6.67927">
        <ele>219</ele>
        <time>2020-02-29T12:56:50.000Z</time>
      </trkpt>
      <trkpt lat="49.1921" lon="6.67936">
        <ele>219</ele>
        <time>2020-02-29T12:57:00.000Z</time>
      </trkpt>
      <trkpt lat="49.19175" lon="6.67941">
        <ele>218</ele>
        <time>2020-02-29T12:57:10.000Z</time>
      </trkpt>
      <trkpt lat="49.19163" lon="6.67933">
        <ele>219</ele>
        <time>2020-02-29T12:57:20.000Z</time>
      </trkpt>
      <trkpt lat="49.19153" lon="6.67916">
        <ele>216</ele>
        <time>2020-02-29T12:57:30.000Z</time>
      </trkpt>
      <trkpt lat="49.19145" lon="6.679">
        <ele>216</ele>
        <time>2020-02-29T12:57:40.000Z</time>
      </trkpt>
      <trkpt lat="49.19136" lon="6.67888">
        <ele>217</ele>
        <time>2020-02-29T12:57:50.000Z</time>
      </trkpt>
      <trkpt lat="49.19129" lon="6.67881">
        <ele>217</ele>
        <time>2020-02-29T12:58:00.000Z</time>
      </trkpt>
      <trkpt lat="49.1912" lon="6.67872">
        <ele>216</ele>
        <time>2020-02-29T12:58:10.000Z</time>
      </trkpt>
      <trkpt lat="49.19112" lon="6.67859">
        <ele>216</ele>
        <time>2020-02-29T12:58:20.000Z</time>
      </trkpt>
      <trkpt lat="49.19096" lon="6.6785">
        <ele>214</ele>
        <time>2020-02-29T12:58:30.000Z</time>
      </trkpt>
      <trkpt lat="49.19082" lon="6.67844">
        <ele>214</ele>
        <time>2020-02-29T12:58:40.000Z</time>
      </trkpt>
      <trkpt lat="49.19069" lon="6.6784">
        <ele>215</ele>
        <time>2020-02-29T12:58:50.000Z</time>
      </trkpt>
      <trkpt lat="49.19055" lon="6.67833">
        <ele>213</ele>
        <time>2020-02-29T12:59:00.000Z</time>
      </trkpt>
      <trkpt lat="49.1904" lon="6.67829">
        <ele>213</ele>
        <time>2020-02-29T12:59:10.000Z</time>
      </trkpt>
      <trkpt lat="49.19027" lon="6.67823">
        <ele>214</ele>
        <time>2020-02-29T12:59:20.000Z</time>
      </trkpt>
      <trkpt lat="49.19014" lon="6.67819">
        <ele>214</ele>
        <time>2020-02-29T12:59:30.000Z</time>
      </trkpt>
      <trkpt lat="49.19004" lon="6.67815">
        <ele>214</ele>
        <time>2020-02-29T12:59:40.000Z</time>
      </trkpt>
      <trkpt lat="49.18992" lon="6.67813">
        <ele>215</ele>
        <time>2020-02-29T12:59:50.000Z</time>
      </trkpt>
      <trkpt lat="49.18979" lon="6.67806">
        <ele>214</ele>
        <time>2020-02-29T13:00:00.000Z</time>
      </trkpt>
      <trkpt lat="49.18966" lon="6.678">
        <ele>214</ele>
        <time>2020-02-29T13:00:10.000Z</time>
      </trkpt>
      <trkpt lat="49.18952" lon="6.67795">
        <ele>214</ele>
        <time>2020-02-29T13:00:20.000Z</time>
      </trkpt>
      <trkpt lat="49.18939" lon="6.67791">
        <ele>214</ele>
        <time>2020-02-29T13:00:30.000Z</time>
      </trkpt>
      <trkpt lat="49.18922" lon="6.67783">
        <ele>214</ele>
        <time>2020-02-29T13:00:40.000Z</time>
      </trkpt>
      <trkpt lat="49.18906" lon="6.67784">
        <ele>214</ele>
        <time>2020-02-29T13:00:50.000Z</time>
      </trkpt>
      <trkpt lat="49.18897" lon="6.67793">
        <ele>214</ele>
        <time>2020-02-29T13:01:00.000Z</time>
      </trkpt>
      <trkpt lat="49.18887" lon="6.678">
        <ele>214</ele>
        <time>2020-02-29T13:01:10.000Z</time>
      </trkpt>
      <trkpt lat="49.18878" lon="6.67809">
        <ele>214</ele>
        <time>2020-02-29T13:01:20.000Z</time>
      </trkpt>
      <trkpt lat="49.18867" lon="6.67822">
        <ele>214</ele>
        <time>2020-02-29T13:01:30.000Z</time>
      </trkpt>
      <trkpt lat="49.18859" lon="6.67837">
        <ele>214</ele>
        <time>2020-02-29T13:01:40.000Z</time>
      </trkpt>
      <trkpt lat="49.18852" lon="6.67851">
        <ele>214</ele>
        <time>2020-02-29T13:01:50.000Z</time>
      </trkpt>
      <trkpt lat="49.18844" lon="6.67867">
        <ele>214</ele>
        <time>2020-02-29T13:02:00.000Z</time>
      </trkpt>
      <trkpt lat="49.18842" lon="6.67884">
        <ele>214</ele>
        <time>2020-02-29T13:02:10.000Z</time>
      </trkpt>
      <trkpt lat="49.18837" lon="6.67892">
        <ele>214</ele>
        <time>2020-02-29T13:02:20.000Z</time>
      </trkpt>
      <trkpt lat="49.18828" lon="6.67903">
        <ele>213</ele>
        <time>2020-02-29T13:02:30.000Z</time>
      </trkpt>
      <trkpt lat="49.18819" lon="6.67919">
        <ele>214</ele>
        <time>2020-02-29T13:02:40.000Z</time>
      </trkpt>
      <trkpt lat="49.1881" lon="6.67929">
        <ele>215</ele>
        <time>2020-02-29T13:02:50.000Z</time>
      </trkpt>
      <trkpt lat="49.18801" lon="6.6794">
        <ele>216</ele>
        <time>2020-02-29T13:03:00.000Z</time>
      </trkpt>
      <trkpt lat="49.18792" lon="6.67952">
        <ele>217</ele>
        <time>2020-02-29T13:03:10.000Z</time>
      </trkpt>
      <trkpt lat="49.18782" lon="6.67962">
        <ele>217</ele>
        <time>2020-02-29T13:03:20.000Z</time>
      </trkpt>
      <trkpt lat="49.18772" lon="6.67972">
        <ele>217</ele>
        <time>2020-02-29T13:03:30.000Z</time>
      </trkpt>
      <trkpt lat="49.1876" lon="6.67988">
        <ele>216</ele>
        <time>2020-02-29T13:03:40.000Z</time>
      </trkpt>
      <trkpt lat="49.18746" lon="6.68007">
        <ele>215</ele>
        <time>2020-02-29T13:03:50.000Z</time>
      </trkpt>
      <trkpt lat="49.18734" lon="6.68023">
        <ele>216</ele>
        <time>2020-02-29T13:04:00.000Z</time>
      </trkpt>
      <trkpt lat="49.18727" lon="6.68032">
        <ele>216</ele>
        <time>2020-02-29T13:04:10.000Z</time>
      </trkpt>
      <trkpt lat="49.18717" lon="6.6804">
        <ele>216</ele>
        <time>2020-02-29T13:04:20.000Z</time>
      </trkpt>
      <trkpt lat="49.18706" lon="6.6805">
        <ele>216</ele>
        <time>2020-02-29T13:04:30.000Z</time>
      </trkpt>
      <trkpt lat="49.18691" lon="6.68061">
        <ele>216</ele>
        <time>2020-02-29T13:04:40.000Z</time>
      </trkpt>
      <trkpt lat="49.18687" lon="6.68074">
        <ele>216</ele>
        <time>2020-02-29T13:04:50.000Z</time>
      </trkpt>
      <trkpt lat="49.18686" lon="6.68083">
        <ele>216</ele>
        <time>2020-02-29T13:05:00.000Z</time>
      </trkpt>
      <trkpt lat="49.18684" lon="6.68095">
        <ele>218</ele>
        <time>2020-02-29T13:05:10.000Z</time>
      </trkpt>
      <trkpt lat="49.18685" lon="6.68116">
        <ele>219</ele>
        <time>2020-02-29T13:05:20.000Z</time>
      </trkpt>
      <trkpt lat="49.18685" lon="6.68135">
        <ele>220</ele>
        <time>2020-02-29T13:05:30.000Z</time>
      </trkpt>
      <trkpt lat="49.18682" lon="6.68155">
        <ele>220</ele>
        <time>2020-02-29T13:05:40.000Z</time>
      </trkpt>
      <trkpt lat="49.18682" lon="6.68164">
        <ele>220</ele>
        <time>2020-02-29T13:05:50.000Z</time>
      </trkpt>
      <trkpt lat="49.1868" lon="6.68166">
        <ele>220</ele>
        <time>2020-02-29T13:06:00.000Z</time>
      </trkpt>
      <trkpt lat="49.1867" lon="6.68173">
        <ele>222</ele>
        <time>2020-02-29T13:06:10.000Z</time>
      </trkpt>
      <trkpt lat="49.18666" lon="6.68183">
        <ele>221</ele>
        <time>2020-02-29T13:06:20.000Z</time>
      </trkpt>
      <trkpt lat="49.18655" lon="6.68192">
        <ele>221</ele>
        <time>2020-02-29T13:06:30.000Z</time>
      </trkpt>
      <trkpt lat="49.18643" lon="6.68203">
        <ele>222</ele>
        <time>2020-02-29T13:06:40.000Z</time>
      </trkpt>
      <trkpt lat="49.18626" lon="6.68215">
        <ele>222</ele>
        <time>2020-02-29T13:06:50.000Z</time>
      </trkpt>
      <trkpt lat="49.18613" lon="6.68226">
        <ele>223</ele>
        <time>2020-02-29T13:07:00.000Z</time>
      </trkpt>
      <trkpt lat="49.186" lon="6.68232">
        <ele>223</ele>
        <time>2020-02-29T13:07:10.000Z</time>
      </trkpt>
      <trkpt lat="49.18589" lon="6.68237">
        <ele>224</ele>
        <time>2020-02-29T13:07:20.000Z</time>
      </trkpt>
      <trkpt lat="49.1858" lon="6.68242">
        <ele>224</ele>
        <time>2020-02-29T13:07:30.000Z</time>
      </trkpt>
      <trkpt lat="49.1858" lon="6.68237">
        <ele>224</ele>
        <time>2020-02-29T13:07:40.000Z</time>
      </trkpt>
      <trkpt lat="49.18578" lon="6.68235">
        <ele>223</ele>
        <time>2020-02-29T13:07:50.000Z</time>
      </trkpt>
      <trkpt lat="49.18564" lon="6.68238">
        <ele>223</ele>
        <time>2020-02-29T13:08:00.000Z</time>
      </trkpt>
      <trkpt lat="49.18553" lon="6.68247">
        <ele>222</ele>
        <time>2020-02-29T13:08:10.000Z</time>
      </trkpt>
      <trkpt lat="49.18545" lon="6.68265">
        <ele>229</ele>
        <time>2020-02-29T13:08:20.000Z</time>
      </trkpt>
      <trkpt lat="49.18537" lon="6.68273">
        <ele>229</ele>
        <time>2020-02-29T13:08:30.000Z</time>
      </trkpt>
      <trkpt lat="49.1853" lon="6.68275">
        <ele>229</ele>
        <time>2020-02-29T13:08:40.000Z</time>
      </trkpt>
      <trkpt lat="49.18524" lon="6.68275">
        <ele>229</ele>
        <time>2020-02-29T13:08:50.000Z</time>
      </trkpt>
      <trkpt lat="49.18511" lon="6.68276">
        <ele>229</ele>
        <time>2020-02-29T13:09:00.000Z</time>
      </trkpt>
      <trkpt lat="49.18499" lon="6.68277">
        <ele>228</ele>
        <time>2020-02-29T13:09:10.000Z</time>
      </trkpt>
      <trkpt lat="49.18484" lon="6.68285">
        <ele>229</ele>
        <time>2020-02-29T13:09:20.000Z</time>
      </trkpt>
      <trkpt lat="49.18471" lon="6.68287">
        <ele>230</ele>
        <time>2020-02-29T13:09:30.000Z</time>
      </trkpt>
      <trkpt lat="49.18459" lon="6.68292">
        <ele>230</ele>
        <time>2020-02-29T13:09:40.000Z</time>
      </trkpt>
      <trkpt lat="49.18449" lon="6.68297">
        <ele>230</ele>
        <time>2020-02-29T13:09:50.000Z</time>
      </trkpt>
      <trkpt lat="49.18437" lon="6.683">
        <ele>231</ele>
        <time>2020-02-29T13:10:00.000Z</time>
      </trkpt>
      <trkpt lat="49.18425" lon="6.68298">
        <ele>231</ele>
        <time>2020-02-29T13:10:10.000Z</time>
      </trkpt>
      <trkpt lat="49.18412" lon="6.683">
        <ele>233</ele>
        <time>2020-02-29T13:10:20.000Z</time>
      </trkpt>
      <trkpt lat="49.18401" lon="6.68299">
        <ele>233</ele>
        <time>2020-02-29T13:10:30.000Z</time>
      </trkpt>
      <trkpt lat="49.18389" lon="6.683">
        <ele>234</ele>
        <time>2020-02-29T13:10:40.000Z</time>
      </trkpt>
      <trkpt lat="49.18377" lon="6.68292">
        <ele>233</ele>
        <time>2020-02-29T13:10:50.000Z</time>
      </trkpt>
      <trkpt lat="49.1836" lon="6.68285">
        <ele>234</ele>
        <time>2020-02-29T13:11:00.000Z</time>
      </trkpt>
      <trkpt lat="49.18346" lon="6.68273">
        <ele>233</ele>
        <time>2020-02-29T13:11:10.000Z</time>
      </trkpt>
      <trkpt lat="49.18334" lon="6.68275">
        <ele>234</ele>
        <time>2020-02-29T13:11:20.000Z</time>
      </trkpt>
      <trkpt lat="49.18329" lon="6.6828">
        <ele>238</ele>
        <time>2020-02-29T13:11:30.000Z</time>
      </trkpt>
      <trkpt lat="49.1832" lon="6.68267">
        <ele>237</ele>
        <time>2020-02-29T13:11:40.000Z</time>
      </trkpt>
      <trkpt lat="49.18307" lon="6.68265">
        <ele>238</ele>
        <time>2020-02-29T13:11:50.000Z</time>
      </trkpt>
      <trkpt lat="49.18296" lon="6.68258">
        <ele>239</ele>
        <time>2020-02-29T13:12:00.000Z</time>
      </trkpt>
      <trkpt lat="49.18291" lon="6.68255">
        <ele>239</ele>
        <time>2020-02-29T13:12:10.000Z</time>
      </trkpt>
      <trkpt lat="49.1829" lon="6.68244">
        <ele>233</ele>
        <time>2020-02-29T13:12:20.000Z</time>
      </trkpt>
      <trkpt lat="49.18276" lon="6.68232">
        <ele>234</ele>
        <time>2020-02-29T13:12:30.000Z</time>
      </trkpt>
      <trkpt lat="49.18263" lon="6.68219">
        <ele>234</ele>
        <time>2020-02-29T13:12:40.000Z</time>
      </trkpt>
      <trkpt lat="49.18256" lon="6.68212">
        <ele>233</ele>
        <time>2020-02-29T13:12:50.000Z</time>
      </trkpt>
      <trkpt lat="49.18248" lon="6.68202">
        <ele>234</ele>
        <time>2020-02-29T13:13:00.000Z</time>
      </trkpt>
      <trkpt lat="49.18235" lon="6.68191">
        <ele>233</ele>
        <time>2020-02-29T13:13:10.000Z</time>
      </trkpt>
      <trkpt lat="49.18227" lon="6.68185">
        <ele>233</ele>
        <time>2020-02-29T13:13:20.000Z</time>
      </trkpt>
      <trkpt lat="49.18225" lon="6.68184">
        <ele>233</ele>
        <time>2020-02-29T13:13:38.000Z</time>
      </trkpt>
      <trkpt lat="49.18221" lon="6.68182">
        <ele>233</ele>
        <time>2020-02-29T13:13:48.000Z</time>
      </trkpt>
      <trkpt lat="49.18212" lon="6.68175">
        <ele>233</ele>
        <time>2020-02-29T13:13:58.000Z</time>
      </trkpt>
      <trkpt lat="49.18206" lon="6.68172">
        <ele>233</ele>
        <time>2020-02-29T13:14:08.000Z</time>
      </trkpt>
      <trkpt lat="49.18202" lon="6.6817">
        <ele>233</ele>
        <time>2020-02-29T13:14:18.000Z</time>
      </trkpt>
      <trkpt lat="49.18189" lon="6.68153">
        <ele>227</ele>
        <time>2020-02-29T13:14:28.000Z</time>
      </trkpt>
      <trkpt lat="49.18179" lon="6.68138">
        <ele>227</ele>
        <time>2020-02-29T13:14:38.000Z</time>
      </trkpt>
      <trkpt lat="49.18173" lon="6.68131">
        <ele>226</ele>
        <time>2020-02-29T13:14:48.000Z</time>
      </trkpt>
      <trkpt lat="49.1817" lon="6.68128">
        <ele>226</ele>
        <time>2020-02-29T13:14:58.000Z</time>
      </trkpt>
      <trkpt lat="49.18161" lon="6.68114">
        <ele>228</ele>
        <time>2020-02-29T13:15:08.000Z</time>
      </trkpt>
      <trkpt lat="49.18152" lon="6.68107">
        <ele>227</ele>
        <time>2020-02-29T13:15:18.000Z</time>
      </trkpt>
      <trkpt lat="49.18137" lon="6.68095">
        <ele>228</ele>
        <time>2020-02-29T13:15:28.000Z</time>
      </trkpt>
      <trkpt lat="49.18133" lon="6.68087">
        <ele>228</ele>
        <time>2020-02-29T13:15:38.000Z</time>
      </trkpt>
      <trkpt lat="49.18124" lon="6.68079">
        <ele>226</ele>
        <time>2020-02-29T13:15:48.000Z</time>
      </trkpt>
      <trkpt lat="49.18115" lon="6.68079">
        <ele>227</ele>
        <time>2020-02-29T13:15:58.000Z</time>
      </trkpt>
      <trkpt lat="49.18104" lon="6.68084">
        <ele>230</ele>
        <time>2020-02-29T13:16:08.000Z</time>
      </trkpt>
      <trkpt lat="49.18094" lon="6.68083">
        <ele>230</ele>
        <time>2020-02-29T13:16:18.000Z</time>
      </trkpt>
      <trkpt lat="49.18084" lon="6.68081">
        <ele>232</ele>
        <time>2020-02-29T13:16:28.000Z</time>
      </trkpt>
      <trkpt lat="49.18075" lon="6.68074">
        <ele>233</ele>
        <time>2020-02-29T13:16:38.000Z</time>
      </trkpt>
      <trkpt lat="49.18064" lon="6.68068">
        <ele>233</ele>
        <time>2020-02-29T13:16:48.000Z</time>
      </trkpt>
      <trkpt lat="49.18055" lon="6.68058">
        <ele>233</ele>
        <time>2020-02-29T13:16:58.000Z</time>
      </trkpt>
      <trkpt lat="49.18045" lon="6.68046">
        <ele>233</ele>
        <time>2020-02-29T13:17:08.000Z</time>
      </trkpt>
      <trkpt lat="49.18033" lon="6.68037">
        <ele>233</ele>
        <time>2020-02-29T13:17:18.000Z</time>
      </trkpt>
      <trkpt lat="49.1802" lon="6.68032">
        <ele>233</ele>
        <time>2020-02-29T13:17:28.000Z</time>
      </trkpt>
      <trkpt lat="49.18009" lon="6.68024">
        <ele>233</ele>
        <time>2020-02-29T13:17:38.000Z</time>
      </trkpt>
      <trkpt lat="49.17998" lon="6.68014">
        <ele>233</ele>
        <time>2020-02-29T13:17:48.000Z</time>
      </trkpt>
      <trkpt lat="49.17986" lon="6.68011">
        <ele>233</ele>
        <time>2020-02-29T13:17:58.000Z</time>
      </trkpt>
      <trkpt lat="49.17976" lon="6.68003">
        <ele>233</ele>
        <time>2020-02-29T13:18:08.000Z</time>
      </trkpt>
      <trkpt lat="49.17961" lon="6.67994">
        <ele>225</ele>
        <time>2020-02-29T13:18:18.000Z</time>
      </trkpt>
      <trkpt lat="49.1795" lon="6.67987">
        <ele>225</ele>
        <time>2020-02-29T13:18:28.000Z</time>
      </trkpt>
      <trkpt lat="49.17939" lon="6.67981">
        <ele>224</ele>
        <time>2020-02-29T13:18:38.000Z</time>
      </trkpt>
      <trkpt lat="49.17924" lon="6.67976">
        <ele>224</ele>
        <time>2020-02-29T13:18:48.000Z</time>
      </trkpt>
      <trkpt lat="49.17908" lon="6.67972">
        <ele>222</ele>
        <time>2020-02-29T13:18:58.000Z</time>
      </trkpt>
      <trkpt lat="49.17897" lon="6.67959">
        <ele>222</ele>
        <time>2020-02-29T13:19:08.000Z</time>
      </trkpt>
      <trkpt lat="49.17892" lon="6.67938">
        <ele>221</ele>
        <time>2020-02-29T13:19:18.000Z</time>
      </trkpt>
      <trkpt lat="49.17886" lon="6.67919">
        <ele>220</ele>
        <time>2020-02-29T13:19:28.000Z</time>
      </trkpt>
      <trkpt lat="49.1788" lon="6.6791">
        <ele>219</ele>
        <time>2020-02-29T13:19:38.000Z</time>
      </trkpt>
      <trkpt lat="49.17874" lon="6.67901">
        <ele>219</ele>
        <time>2020-02-29T13:19:48.000Z</time>
      </trkpt>
      <trkpt lat="49.17865" lon="6.67897">
        <ele>219</ele>
        <time>2020-02-29T13:19:58.000Z</time>
      </trkpt>
      <trkpt lat="49.17856" lon="6.67892">
        <ele>219</ele>
        <time>2020-02-29T13:20:08.000Z</time>
      </trkpt>
      <trkpt lat="49.17852" lon="6.67878">
        <ele>219</ele>
        <time>2020-02-29T13:20:18.000Z</time>
      </trkpt>
      <trkpt lat="49.17843" lon="6.67867">
        <ele>219</ele>
        <time>2020-02-29T13:20:28.000Z</time>
      </trkpt>
      <trkpt lat="49.17832" lon="6.67862">
        <ele>220</ele>
        <time>2020-02-29T13:20:38.000Z</time>
      </trkpt>
      <trkpt lat="49.17819" lon="6.67858">
        <ele>220</ele>
        <time>2020-02-29T13:20:48.000Z</time>
      </trkpt>
      <trkpt lat="49.17808" lon="6.67852">
        <ele>220</ele>
        <time>2020-02-29T13:20:58.000Z</time>
      </trkpt>
      <trkpt lat="49.17794" lon="6.67838">
        <ele>220</ele>
        <time>2020-02-29T13:21:08.000Z</time>
      </trkpt>
      <trkpt lat="49.17785" lon="6.67819">
        <ele>221</ele>
        <time>2020-02-29T13:21:18.000Z</time>
      </trkpt>
      <trkpt lat="49.17776" lon="6.67806">
        <ele>221</ele>
        <time>2020-02-29T13:21:28.000Z</time>
      </trkpt>
      <trkpt lat="49.17766" lon="6.67796">
        <ele>222</ele>
        <time>2020-02-29T13:21:38.000Z</time>
      </trkpt>
      <trkpt lat="49.17759" lon="6.67803">
        <ele>222</ele>
        <time>2020-02-29T13:21:48.000Z</time>
      </trkpt>
      <trkpt lat="49.17749" lon="6.67796">
        <ele>221</ele>
        <time>2020-02-29T13:21:58.000Z</time>
      </trkpt>
      <trkpt lat="49.17743" lon="6.67776">
        <ele>222</ele>
        <time>2020-02-29T13:22:08.000Z</time>
      </trkpt>
      <trkpt lat="49.1774" lon="6.67754">
        <ele>222</ele>
        <time>2020-02-29T13:22:18.000Z</time>
      </trkpt>
      <trkpt lat="49.17739" lon="6.67736">
        <ele>223</ele>
        <time>2020-02-29T13:22:28.000Z</time>
      </trkpt>
      <trkpt lat="49.1774" lon="6.67722">
        <ele>223</ele>
        <time>2020-02-29T13:22:38.000Z</time>
      </trkpt>
      <trkpt lat="49.1774" lon="6.67708">
        <ele>223</ele>
        <time>2020-02-29T13:22:48.000Z</time>
      </trkpt>
      <trkpt lat="49.1774" lon="6.67688">
        <ele>224</ele>
        <time>2020-02-29T13:22:58.000Z</time>
      </trkpt>
      <trkpt lat="49.17737" lon="6.67667">
        <ele>224</ele>
        <time>2020-02-29T13:23:08.000Z</time>
      </trkpt>
      <trkpt lat="49.17734" lon="6.67645">
        <ele>226</ele>
        <time>2020-02-29T13:23:18.000Z</time>
      </trkpt>
      <trkpt lat="49.17735" lon="6.67625">
        <ele>226</ele>
        <time>2020-02-29T13:23:28.000Z</time>
      </trkpt>
      <trkpt lat="49.17734" lon="6.67607">
        <ele>226</ele>
        <time>2020-02-29T13:23:38.000Z</time>
      </trkpt>
      <trkpt lat="49.17731" lon="6.67588">
        <ele>227</ele>
        <time>2020-02-29T13:23:48.000Z</time>
      </trkpt>
      <trkpt lat="49.17729" lon="6.6757">
        <ele>229</ele>
        <time>2020-02-29T13:23:58.000Z</time>
      </trkpt>
      <trkpt lat="49.17728" lon="6.67577">
        <ele>229</ele>
        <time>2020-02-29T13:24:08.000Z</time>
      </trkpt>
      <trkpt lat="49.17729" lon="6.6758">
        <ele>229</ele>
        <time>2020-02-29T13:24:18.000Z</time>
      </trkpt>
      <trkpt lat="49.17728" lon="6.67577">
        <ele>229</ele>
        <time>2020-02-29T13:24:25.000Z</time>
      </trkpt>
    </trkseg>
  </trk>
</gpx>